[[{"header":{"parameterUnit":"m.s-1","parameterCategory":1,"la1":30.6,"la2":29.2853,"lo1":-89.7004,"lo2":-87.6739,"dy":0.0162,"dx":0.0183,"nx":112,"ny":82,"refTime":"2023-07-20T12:00:00:Z","depth":0,"parameterNumber":2,"parameterNumberName":"U-component_of_WINDS"},"data":[0.0,0.0,0.0,0.0,0.0,0.0,0.0,0.0,0.0,0.0,0.0,0.0,0.0,0.0,0.0,0.0,0.0,0.0,0.0,0.0,0.0,0.0,0.0,0.0,0.0,0.0,0.0,0.0,0.0,0.0,0.0,0.0,0.0,0.0,0.0,0.0,0.0,0.0,0.0,0.0,0.0,0.0,0.0,0.0,0.0,0.0,0.0,0.0,0.0,0.0,0.0,0.0,0.0,0.0,0.0,0.0,0.0,0.0,0.0,0.0,0.0,0.0,0.0,0.0,0.0,0.0,0.0,0.0,0.0,0.0,0.0,0.0,0.0,0.0,0.0,0.0,0.0,0.0,0.0,0.0,0.0,0.0,0.0,0.0,0.0,0.0,0.0,0.0,0.0,0.0,-3.5615,-4.0685,-4.5386,-4.8826,-5.0455,-4.9213,-4.6228,-4.1263,0.0,0.0,0.0,0.0,0.0,0.0,0.0,0.0,0.0,0.0,0.0,0.0,0.0,0.0,0.0,0.0,0.0,0.0,0.0,0.0,0.0,0.0,0.0,0.0,0.0,0.0,0.0,0.0,0.0,0.0,0.0,0.0,0.0,0.0,0.0,0.0,0.0,0.0,0.0,0.0,0.0,0.0,0.0,0.0,0.0,0.0,0.0,0.0,0.0,0.0,0.0,0.0,0.0,0.0,0.0,0.0,0.0,0.0,0.0,0.0,0.0,0.0,0.0,0.0,0.0,0.0,0.0,0.0,0.0,0.0,0.0,0.0,0.0,0.0,0.0,0.0,0.0,0.0,0.0,0.0,0.0,0.0,0.0,0.0,0.0,0.0,0.0,0.0,0.0,0.0,0.0,0.0,0.0,0.0,0.0,0.0,0.0,0.0,0.0,0.0,0.0,0.0,0.0,0.0,-3.6462,-4.2016,-4.5484,-4.8024,-4.9497,-4.7593,-4.4833,-4.1222,0.0,0.0,0.0,0.0,0.0,0.0,0.0,0.0,0.0,0.0,0.0,0.0,0.0,0.0,0.0,0.0,0.0,0.0,0.0,0.0,0.0,0.0,0.0,0.0,0.0,0.0,0.0,0.0,0.0,0.0,0.0,0.0,0.0,0.0,0.0,0.0,0.0,0.0,0.0,0.0,0.0,0.0,0.0,0.0,0.0,0.0,0.0,0.0,0.0,0.0,0.0,0.0,0.0,0.0,0.0,0.0,0.0,0.0,0.0,0.0,0.0,0.0,0.0,0.0,0.0,0.0,0.0,0.0,0.0,0.0,0.0,0.0,0.0,0.0,0.0,0.0,0.0,0.0,0.0,0.0,0.0,0.0,0.0,0.0,0.0,0.0,0.0,0.0,0.0,0.0,0.0,0.0,0.0,0.0,0.0,0.0,0.0,0.0,0.0,0.0,0.0,0.0,0.0,-3.5184,-3.8085,-4.1873,-4.4335,-4.6296,-4.7778,-4.6486,-4.4185,-4.0902,-3.9517,0.0,0.0,0.0,0.0,0.0,0.0,0.0,0.0,0.0,0.0,0.0,0.0,0.0,0.0,0.0,0.0,0.0,0.0,0.0,0.0,0.0,0.0,0.0,0.0,0.0,0.0,0.0,0.0,0.0,0.0,0.0,0.0,0.0,0.0,0.0,0.0,0.0,0.0,0.0,0.0,0.0,0.0,0.0,0.0,0.0,0.0,0.0,0.0,0.0,0.0,0.0,0.0,0.0,0.0,0.0,0.0,0.0,0.0,0.0,0.0,0.0,0.0,0.0,0.0,0.0,0.0,0.0,0.0,0.0,0.0,0.0,0.0,0.0,0.0,0.0,0.0,0.0,0.0,0.0,0.0,0.0,0.0,0.0,0.0,0.0,0.0,0.0,0.0,0.0,0.0,0.0,0.0,0.0,0.0,0.0,0.0,0.0,0.0,0.0,0.0,0.0,0.0,-3.7231,-3.921,-4.1248,-4.2867,-4.4388,-4.5779,-4.4986,-4.3139,-4.0345,-3.8757,0.0,0.0,0.0,0.0,0.0,0.0,0.0,0.0,0.0,0.0,0.0,0.0,0.0,0.0,0.0,0.0,0.0,0.0,0.0,0.0,0.0,0.0,0.0,0.0,0.0,0.0,0.0,0.0,0.0,0.0,0.0,0.0,0.0,0.0,0.0,0.0,0.0,0.0,0.0,0.0,0.0,0.0,0.0,0.0,0.0,0.0,0.0,0.0,0.0,0.0,0.0,0.0,0.0,0.0,0.0,0.0,0.0,0.0,0.0,0.0,0.0,0.0,0.0,0.0,0.0,0.0,0.0,0.0,0.0,0.0,0.0,0.0,0.0,0.0,0.0,0.0,0.0,0.0,0.0,0.0,0.0,0.0,0.0,0.0,0.0,0.0,0.0,0.0,0.0,0.0,0.0,0.0,0.0,0.0,0.0,0.0,0.0,0.0,0.0,0.0,0.0,0.0,-3.7237,-3.8914,-4.0342,-4.171,-4.2808,-4.3513,-4.236,-4.1039,-3.9526,-3.771,0.0,0.0,0.0,0.0,0.0,0.0,0.0,0.0,0.0,0.0,0.0,0.0,0.0,0.0,0.0,0.0,0.0,0.0,0.0,0.0,0.0,0.0,0.0,0.0,0.0,0.0,0.0,0.0,0.0,0.0,0.0,0.0,0.0,0.0,0.0,0.0,0.0,0.0,0.0,0.0,0.0,0.0,0.0,0.0,0.0,0.0,0.0,0.0,0.0,0.0,0.0,0.0,0.0,0.0,0.0,0.0,0.0,0.0,0.0,0.0,0.0,0.0,0.0,0.0,0.0,0.0,0.0,0.0,0.0,0.0,0.0,0.0,0.0,0.0,0.0,0.0,0.0,0.0,0.0,0.0,0.0,0.0,0.0,0.0,0.0,0.0,0.0,0.0,0.0,0.0,0.0,0.0,0.0,0.0,0.0,0.0,0.0,0.0,0.0,0.0,0.0,0.0,-3.6565,-3.8282,-3.9609,-4.095,-4.2167,-4.3225,-4.2534,-4.1418,-4.0127,0.0,0.0,0.0,0.0,0.0,0.0,0.0,0.0,0.0,0.0,0.0,0.0,0.0,0.0,0.0,0.0,0.0,0.0,0.0,0.0,0.0,0.0,0.0,0.0,0.0,0.0,0.0,0.0,0.0,0.0,0.0,0.0,0.0,0.0,0.0,0.0,0.0,0.0,0.0,0.0,0.0,0.0,0.0,0.0,0.0,0.0,0.0,0.0,0.0,0.0,0.0,0.0,0.0,0.0,0.0,0.0,0.0,0.0,0.0,0.0,0.0,0.0,0.0,0.0,0.0,0.0,0.0,0.0,0.0,0.0,0.0,0.0,0.0,0.0,0.0,0.0,0.0,0.0,0.0,0.0,0.0,0.0,0.0,0.0,0.0,0.0,0.0,0.0,0.0,0.0,0.0,0.0,0.0,0.0,0.0,0.0,0.0,0.0,0.0,0.0,0.0,0.0,-3.4451,-3.6304,-3.8002,-3.9541,-4.0713,-4.183,-4.2923,-4.2287,-4.1293,-4.0152,0.0,0.0,0.0,0.0,0.0,0.0,0.0,0.0,0.0,0.0,0.0,0.0,0.0,0.0,0.0,0.0,0.0,0.0,0.0,0.0,0.0,0.0,0.0,0.0,0.0,0.0,0.0,0.0,0.0,0.0,0.0,0.0,0.0,0.0,0.0,0.0,0.0,0.0,0.0,0.0,0.0,0.0,0.0,0.0,0.0,0.0,0.0,0.0,0.0,0.0,0.0,0.0,0.0,0.0,0.0,0.0,0.0,0.0,0.0,0.0,0.0,0.0,0.0,0.0,0.0,0.0,0.0,0.0,0.0,0.0,0.0,0.0,0.0,0.0,0.0,0.0,0.0,0.0,0.0,0.0,0.0,0.0,0.0,0.0,0.0,0.0,0.0,0.0,0.0,0.0,0.0,0.0,0.0,0.0,0.0,0.0,0.0,0.0,0.0,0.0,0.0,0.0,-3.516,-3.6637,-3.8187,-4.0202,-4.0952,-4.1668,-4.2371,-4.1154,-4.0095,0.0,0.0,0.0,0.0,0.0,0.0,0.0,0.0,0.0,0.0,0.0,0.0,0.0,0.0,0.0,0.0,0.0,0.0,0.0,0.0,0.0,0.0,0.0,0.0,0.0,0.0,0.0,0.0,0.0,0.0,0.0,0.0,0.0,0.0,0.0,0.0,0.0,0.0,0.0,0.0,0.0,0.0,0.0,0.0,0.0,0.0,0.0,0.0,0.0,0.0,0.0,0.0,0.0,0.0,0.0,0.0,0.0,0.0,0.0,0.0,0.0,0.0,0.0,0.0,0.0,0.0,0.0,0.0,0.0,0.0,0.0,0.0,0.0,0.0,0.0,0.0,0.0,0.0,0.0,0.0,0.0,0.0,0.0,0.0,0.0,0.0,0.0,0.0,0.0,0.0,0.0,0.0,0.0,0.0,0.0,0.0,0.0,0.0,0.0,0.0,0.0,0.0,0.0,-3.453,-3.6319,-3.7961,-3.9526,-4.0262,-4.1148,-4.2267,-4.1209,-4.0095,-3.9442,0.0,0.0,0.0,0.0,0.0,0.0,0.0,0.0,0.0,0.0,0.0,0.0,0.0,0.0,0.0,0.0,0.0,0.0,0.0,0.0,0.0,0.0,0.0,0.0,0.0,0.0,0.0,0.0,0.0,0.0,0.0,0.0,0.0,0.0,0.0,0.0,0.0,0.0,0.0,0.0,0.0,0.0,0.0,0.0,0.0,0.0,0.0,0.0,0.0,0.0,0.0,0.0,0.0,0.0,0.0,0.0,0.0,0.0,0.0,0.0,0.0,0.0,0.0,0.0,0.0,0.0,0.0,0.0,0.0,0.0,0.0,0.0,0.0,0.0,0.0,0.0,0.0,0.0,0.0,0.0,0.0,0.0,0.0,0.0,0.0,0.0,0.0,0.0,0.0,0.0,0.0,0.0,0.0,0.0,0.0,0.0,0.0,0.0,0.0,0.0,0.0,0.0,-3.4669,-3.6625,-3.8411,-4.0001,-4.1035,-4.1877,-4.2654,-4.2031,-4.0787,-3.8941,0.0,0.0,0.0,0.0,0.0,0.0,0.0,0.0,0.0,0.0,0.0,0.0,0.0,0.0,0.0,0.0,0.0,0.0,0.0,0.0,0.0,0.0,0.0,0.0,0.0,0.0,0.0,0.0,0.0,0.0,0.0,0.0,0.0,0.0,0.0,0.0,0.0,0.0,0.0,0.0,0.0,0.0,0.0,0.0,0.0,0.0,0.0,0.0,0.0,0.0,0.0,0.0,0.0,0.0,0.0,0.0,0.0,0.0,0.0,0.0,0.0,0.0,0.0,0.0,0.0,0.0,0.0,0.0,0.0,0.0,0.0,0.0,0.0,0.0,0.0,0.0,0.0,0.0,0.0,0.0,0.0,0.0,0.0,0.0,0.0,0.0,0.0,0.0,0.0,0.0,0.0,0.0,0.0,0.0,0.0,0.0,0.0,0.0,0.0,0.0,0.0,0.0,-3.5329,-3.7273,-3.919,-4.1255,-4.2558,-4.328,-4.3195,-4.317,-4.1629,-3.8106,0.0,0.0,0.0,0.0,0.0,0.0,0.0,0.0,0.0,0.0,0.0,0.0,0.0,0.0,0.0,0.0,0.0,0.0,0.0,0.0,0.0,0.0,0.0,0.0,0.0,0.0,0.0,0.0,0.0,0.0,0.0,0.0,0.0,0.0,0.0,0.0,0.0,0.0,0.0,0.0,0.0,0.0,0.0,0.0,0.0,0.0,0.0,0.0,0.0,0.0,0.0,0.0,0.0,0.0,0.0,0.0,0.0,0.0,0.0,0.0,-4.2644,0.0,0.0,0.0,0.0,0.0,0.0,0.0,0.0,0.0,0.0,0.0,0.0,0.0,0.0,0.0,0.0,0.0,0.0,0.0,0.0,0.0,0.0,0.0,0.0,0.0,0.0,0.0,0.0,0.0,0.0,0.0,0.0,0.0,0.0,0.0,0.0,0.0,0.0,0.0,0.0,0.0,-3.5963,-3.7506,-3.9372,-4.1933,-4.2847,-4.3116,-4.2779,-4.2275,-4.0596,-3.7494,-3.624,0.0,0.0,0.0,0.0,0.0,0.0,0.0,0.0,0.0,0.0,0.0,0.0,0.0,0.0,0.0,0.0,0.0,0.0,0.0,0.0,0.0,0.0,0.0,0.0,0.0,0.0,0.0,0.0,0.0,0.0,0.0,0.0,0.0,0.0,0.0,0.0,0.0,0.0,0.0,0.0,0.0,0.0,0.0,0.0,0.0,0.0,0.0,0.0,0.0,0.0,0.0,0.0,0.0,0.0,0.0,0.0,0.0,0.0,0.0,0.0,-4.3345,0.0,0.0,0.0,0.0,0.0,0.0,0.0,0.0,0.0,0.0,0.0,0.0,0.0,0.0,0.0,0.0,0.0,0.0,0.0,0.0,0.0,0.0,0.0,0.0,0.0,0.0,0.0,0.0,0.0,0.0,0.0,0.0,0.0,0.0,0.0,0.0,0.0,0.0,0.0,0.0,-3.6626,-3.762,-3.8929,-4.1263,-4.1864,-4.1918,-4.1352,-4.128,-3.9931,-3.7017,-3.5959,0.0,0.0,0.0,0.0,0.0,0.0,0.0,0.0,0.0,0.0,0.0,0.0,0.0,0.0,0.0,0.0,0.0,0.0,0.0,0.0,0.0,0.0,0.0,0.0,0.0,0.0,0.0,0.0,0.0,0.0,0.0,0.0,0.0,0.0,0.0,0.0,0.0,0.0,0.0,0.0,0.0,0.0,0.0,0.0,0.0,0.0,0.0,0.0,0.0,0.0,0.0,0.0,0.0,-5.1775,-5.2858,-5.4059,-5.3416,-5.2401,-5.0818,-4.781,-4.5676,-4.4193,-4.2011,0.0,0.0,0.0,0.0,0.0,0.0,0.0,0.0,0.0,0.0,0.0,0.0,0.0,0.0,0.0,0.0,0.0,0.0,0.0,0.0,0.0,0.0,0.0,0.0,-3.8062,-3.8273,-3.6006,0.0,0.0,0.0,0.0,0.0,0.0,0.0,0.0,0.0,0.0,0.0,-3.6808,-3.7371,-3.8344,-4.0235,-4.0659,-4.0512,-3.9815,-4.0197,-3.9318,-3.6502,-3.5737,-3.4288,0.0,0.0,0.0,0.0,0.0,0.0,0.0,0.0,0.0,0.0,0.0,0.0,0.0,0.0,0.0,0.0,0.0,0.0,0.0,0.0,0.0,0.0,0.0,0.0,0.0,0.0,0.0,0.0,0.0,0.0,0.0,0.0,-4.0055,-4.2382,0.0,0.0,0.0,0.0,0.0,0.0,0.0,0.0,0.0,0.0,0.0,0.0,0.0,-4.8663,-4.9509,-5.1674,-5.3179,-5.4008,-5.5395,-5.6173,-5.6359,-5.6278,-5.478,-5.2263,-5.1766,0.0,-4.6306,-4.4062,0.0,0.0,0.0,0.0,0.0,0.0,0.0,0.0,0.0,0.0,0.0,0.0,0.0,0.0,0.0,0.0,0.0,0.0,0.0,0.0,0.0,0.0,-3.9914,-3.9886,-4.0456,-4.0793,0.0,-3.8008,-3.6231,-3.5414,-3.4877,0.0,0.0,0.0,0.0,0.0,0.0,0.0,-3.5474,-3.6489,-3.7923,-3.9795,-4.0481,-4.0321,-3.9269,-3.9307,-3.8295,-3.5824,-3.512,-3.4276,-3.289,-3.1775,0.0,0.0,0.0,0.0,0.0,0.0,0.0,0.0,0.0,0.0,0.0,0.0,0.0,0.0,0.0,0.0,0.0,0.0,0.0,0.0,0.0,0.0,0.0,0.0,0.0,0.0,0.0,0.0,0.0,-3.8389,-4.1879,-4.1557,-4.2455,-4.2422,0.0,0.0,0.0,0.0,0.0,0.0,0.0,0.0,0.0,-5.0304,-5.1522,-5.2689,-5.3856,-5.5683,-5.6765,-5.7087,-5.8152,-5.866,-5.8626,-5.7617,-5.6107,-5.4226,-5.2782,-5.0652,-4.8074,-4.5919,-4.4092,-4.2516,0.0,0.0,0.0,0.0,-3.926,-3.9664,-4.08,-4.1128,-4.1234,-4.1458,0.0,0.0,0.0,0.0,0.0,0.0,0.0,0.0,0.0,0.0,-4.1047,-4.143,-4.2031,-4.2228,-4.1301,-3.9915,-3.8282,0.0,-3.6303,-3.5704,-3.3797,0.0,0.0,0.0,0.0,-3.413,-3.5621,-3.5932,-3.6804,-3.8655,-3.8506,-3.8136,-3.7634,-3.7608,-3.7133,-3.6031,-3.5511,-3.4662,-3.3575,-3.2792,-3.1716,0.0,0.0,0.0,0.0,0.0,0.0,0.0,0.0,0.0,0.0,0.0,0.0,0.0,0.0,0.0,0.0,0.0,0.0,0.0,0.0,0.0,0.0,0.0,0.0,0.0,0.0,0.0,0.0,-4.1056,-4.4096,-4.2033,-4.479,-4.5602,0.0,0.0,0.0,0.0,0.0,0.0,-4.9526,-5.0135,-5.1539,-5.394,-5.531,-5.6528,-5.7628,-5.8947,-5.9505,-5.9302,-6.0047,-6.0199,-5.9793,-5.8581,-5.7113,-5.5324,-5.3383,-5.1418,-4.943,-4.7555,-4.5749,-4.4012,-4.2829,-4.1987,-4.1368,-4.1188,-4.125,-4.1577,-4.3076,-4.3575,-4.3507,-4.3425,-4.2674,-4.1526,-3.955,0.0,0.0,0.0,0.0,-4.0099,-4.0949,-4.153,-4.1907,-4.2104,-4.258,-4.258,-4.1374,-4.0598,-3.9505,0.0,-3.7181,-3.6597,-3.403,0.0,0.0,0.0,0.0,-3.3807,-3.5195,-3.513,-3.5506,-3.7021,-3.6463,-3.6029,-3.6138,-3.6175,-3.62,-3.6358,-3.5993,-3.5244,-3.4198,-3.3619,-3.2554,-3.0798,0.0,0.0,0.0,0.0,0.0,0.0,0.0,0.0,0.0,0.0,0.0,0.0,0.0,0.0,0.0,0.0,0.0,0.0,0.0,0.0,0.0,0.0,0.0,0.0,0.0,0.0,0.0,0.0,0.0,-4.6633,-5.0355,0.0,0.0,0.0,0.0,-4.8731,-4.9441,-5.115,-5.4093,-5.4296,-5.5649,-5.8592,-5.9421,-5.986,-5.9928,-6.0774,-6.0808,-6.0047,-6.0858,-6.0469,-5.9099,-5.9708,-5.8013,-5.4621,-5.4489,-5.2791,-5.0095,-4.8773,-4.7411,-4.6073,-4.5356,-4.4727,-4.3992,-4.3379,-4.3575,-4.4122,-4.4239,-4.4268,-4.4456,-4.5705,-4.475,-4.2875,-4.0921,-3.9866,0.0,0.0,-4.1248,-4.1627,-4.2812,-4.3145,-4.2962,-4.1877,-4.1666,-4.1345,-4.0242,-3.9477,-3.8582,0.0,-3.6577,-3.5791,-3.4451,0.0,-3.3265,-3.2848,-3.2824,-3.2948,-3.3212,-3.3624,-3.4164,-3.4812,-3.4857,-3.4984,-3.5518,-3.5536,-3.5824,-3.6345,-3.6345,-3.5868,-3.471,-3.4135,-3.3081,-3.1348,-3.0319,0.0,0.0,0.0,0.0,0.0,0.0,0.0,0.0,0.0,0.0,0.0,0.0,0.0,0.0,0.0,0.0,0.0,0.0,0.0,0.0,0.0,0.0,0.0,0.0,0.0,0.0,0.0,0.0,-4.9024,-5.2469,0.0,-5.1014,-5.1877,-5.279,-5.3298,-5.4871,-5.6731,-5.8795,-5.8913,-5.9607,-6.1129,-6.1434,-6.1569,-6.1569,-6.14,-6.0892,-6.0097,-5.9911,-5.9285,-5.8254,-5.7093,-5.5813,-5.453,-5.304,-5.1533,-5.0228,-5.0197,-4.9401,-4.8113,-4.704,-4.6403,-4.6137,-4.5496,-4.5335,-4.5651,-4.6075,-4.6251,-4.6134,-4.5826,-4.4885,-4.3715,-4.2573,-4.2376,-4.2694,-4.312,-4.3597,-4.3877,-4.3489,-4.3101,-4.258,-4.1316,-4.076,-4.0152,-3.8957,-3.8582,-3.7831,-3.5957,-3.5613,-3.5154,-3.323,-3.2735,-3.2426,-3.1941,-3.2217,-3.2592,-3.3079,-3.3583,-3.4086,-3.4641,-3.4702,-3.4748,-3.4946,-3.4969,-3.5052,-3.529,-3.5316,-3.4973,-3.4267,-3.3658,-3.2735,-3.1398,-3.0656,-2.9871,0.0,0.0,0.0,0.0,0.0,0.0,0.0,0.0,0.0,0.0,0.0,0.0,0.0,0.0,0.0,0.0,0.0,0.0,0.0,0.0,0.0,0.0,0.0,0.0,0.0,-4.7678,-5.1818,-5.1338,-5.5226,-5.6968,-5.4431,-5.5801,-5.7171,-5.7915,-5.9556,-6.1078,-6.2347,-6.2178,-6.2279,-6.2753,-6.2516,-6.2381,-6.2381,-6.1924,-6.1146,-6.0097,-5.9894,-5.9116,-5.7848,-5.6292,-5.5212,-5.4509,-5.2616,-5.1274,-5.0575,-5.1016,-5.0743,-4.9863,-4.8761,-4.8145,-4.7914,-4.7264,-4.6852,-4.6691,-4.7133,-4.7309,-4.7118,-4.6031,-4.5327,-4.4877,-4.4147,-4.4303,-4.4691,-4.4907,-4.5322,-4.5316,-4.4081,-4.3343,-4.2495,-4.052,-3.9671,-3.8985,-3.7792,-3.733,-3.6685,-3.5055,-3.5008,-3.4676,-3.2784,-3.2327,-3.2137,-3.1975,-3.2114,-3.245,-3.3043,-3.3379,-3.3789,-3.4114,-3.4126,-3.4203,-3.4395,-3.4413,-3.4464,-3.4437,-3.4449,-3.4122,-3.3332,-3.3007,-3.2286,-3.112,-3.0567,-2.9884,-2.8925,0.0,0.0,0.0,0.0,0.0,0.0,0.0,0.0,0.0,0.0,0.0,0.0,0.0,0.0,0.0,0.0,0.0,0.0,0.0,0.0,0.0,0.0,0.0,-4.4995,-5.0431,-5.4037,-5.3753,-5.8879,-6.1281,-5.8372,-6.0131,-6.1721,-6.2415,-6.3176,-6.392,-6.4597,-6.3954,-6.3548,-6.3548,-6.2804,-6.2381,-6.2381,-6.233,-6.1586,-6.0148,-6.0858,-6.0047,-5.7915,-5.7557,-5.6329,-5.4527,-5.3424,-5.222,-5.1214,-5.1214,-5.1214,-5.1061,-5.0392,-4.9854,-4.9194,-4.8566,-4.7899,-4.7309,-4.7309,-4.7309,-4.7148,-4.6515,-4.631,-4.6236,-4.552,-4.5316,-4.5491,-4.612,-4.631,-4.6046,-4.469,-4.401,-4.2739,-3.9586,-3.8467,-3.7779,-3.6647,-3.5886,-3.5355,-3.4813,-3.4677,-3.4375,-3.3242,-3.2623,-3.2462,-3.3043,-3.261,0.0,-3.3043,-3.3081,-3.3081,-3.3106,-3.3081,-3.3307,-3.3847,-3.3872,-3.3847,-3.3847,-3.3834,-3.3332,-3.2227,-3.2177,-3.1662,-3.0608,-3.0068,-2.9503,-2.8925,0.0,0.0,0.0,0.0,0.0,0.0,0.0,0.0,0.0,0.0,0.0,0.0,0.0,0.0,0.0,0.0,0.0,0.0,0.0,0.0,0.0,-4.1369,-4.4331,-4.6733,-5.1438,-5.5391,-5.7624,-6.1014,-6.3091,-6.2787,-6.3802,-6.4343,-6.4021,-6.5189,-6.5764,-6.5408,-6.4698,-6.4309,-6.4309,-6.3057,-6.2381,-6.2381,-6.1281,-6.0808,-6.096,-5.9522,-5.8784,-5.8676,-5.7167,-5.5791,-5.4502,-5.3362,-5.222,-5.1214,-5.1214,-5.0956,-5.0377,-4.974,-4.9464,-4.9114,-4.8012,-4.7486,-4.7309,-4.7309,-4.7309,-4.7294,-4.7088,-4.7058,-4.6957,-4.6852,-4.6721,-4.6751,-4.6942,-4.7058,-4.65,-4.4298,-4.3066,-4.1605,-3.8877,-3.7501,-3.6805,-3.649,-3.5886,-3.5363,-3.4755,-3.4385,-3.3926,-3.3217,-3.2932,-3.2907,-3.3068,-3.2932,0.0,-3.3068,-3.3081,-3.3232,-3.3633,-3.3319,-3.3307,-3.3847,-3.3144,-3.2679,-3.2679,-3.2303,-3.1938,-3.1625,-3.1248,-3.0733,-3.003,-2.9867,-2.9503,0.0,0.0,0.0,0.0,0.0,0.0,0.0,0.0,0.0,0.0,0.0,0.0,0.0,0.0,0.0,0.0,0.0,0.0,0.0,0.0,0.0,0.0,-4.3599,-4.6455,-4.888,-5.2939,-5.6899,-6.0041,-6.2245,-6.3802,-6.4529,-6.4715,-6.4732,-6.4613,-6.5392,-6.5696,-6.5256,-6.4546,-6.414,-6.414,-6.3007,-6.2245,-6.1941,-6.1349,-6.0825,-6.0334,-5.9295,-5.871,-5.8468,-5.6438,-5.516,-5.455,-5.2872,-5.1762,-5.1214,-5.1214,-5.0803,0.0,0.0,0.0,0.0,0.0,-4.7309,-4.7309,-4.7309,-4.7309,-4.7309,-4.7309,-4.7309,-4.7309,-4.7309,-4.7309,-4.7264,-4.6927,-4.6515,-4.5651,-4.3329,-4.1842,-4.0491,-3.8197,-3.7159,-3.666,-3.6477,-3.5717,-3.5059,-3.4725,-3.4101,0.0,-3.3179,-3.3081,-3.3081,-3.3081,-3.3081,-3.3081,-3.3081,-3.3081,-3.3206,-3.352,-3.347,-3.3458,-3.3545,-3.3156,0.0,0.0,0.0,-3.1185,-3.0746,-3.0432,0.0,0.0,0.0,-2.9967,-2.9641,0.0,0.0,0.0,-2.9892,-3.0105,0.0,0.0,0.0,0.0,0.0,0.0,0.0,0.0,0.0,0.0,0.0,0.0,0.0,0.0,0.0,0.0,-4.5574,-4.8222,-5.0855,-5.4293,-5.7688,-6.0758,-6.2447,-6.3632,-6.4292,-6.392,-6.3869,-6.4427,-6.4478,-6.4444,-6.436,0.0,0.0,0.0,0.0,-6.1924,-6.118,-6.1721,-6.1044,-5.915,-5.9608,-5.9186,-5.7983,-5.5923,-5.4848,-5.4448,-5.2502,-5.1458,-5.1214,-5.1214,-5.0792,-5.0113,-4.9976,-4.9209,-4.8136,-4.7516,-4.7309,-4.7309,-4.7309,0.0,0.0,-4.7148,-4.7118,-4.7088,-4.7088,-4.7088,-4.6927,-4.6325,-4.5415,-4.4036,-4.2162,-4.0735,-3.9386,-3.7615,-3.714,-3.6843,-3.6358,-3.5392,-3.4595,-3.4574,-3.3801,-3.3081,-3.3081,-3.3081,-3.3081,-3.3081,-3.3081,-3.3081,-3.3081,-3.3081,-3.3106,-3.3156,0.0,0.0,-3.3206,-3.3508,-3.3068,-3.1574,-3.1424,-3.0959,-3.0018,-2.9967,-2.9967,-2.9967,-3.0457,-3.0708,-3.0708,-3.1173,-3.1424,-3.1474,-3.0947,-3.0984,0.0,0.0,0.0,0.0,0.0,0.0,0.0,0.0,0.0,0.0,0.0,0.0,0.0,0.0,0.0,-4.306,-4.5574,-4.8222,-5.0855,-5.2987,-5.5092,-5.7399,-6.0621,-6.2668,-6.2804,-6.3768,-6.4208,-6.3768,-6.3734,-6.3463,-6.2854,-6.2685,-6.2347,-6.1738,-6.1586,-6.1129,-6.0334,-5.9894,-5.9742,-5.9877,0.0,0.0,-5.874,-5.7752,-5.6294,-5.4625,-5.4114,-5.288,-5.1214,-5.1214,-5.0485,-4.9398,-4.8905,-4.8188,-4.7501,-4.7339,-4.7309,-4.7309,-4.7309,-4.6927,-4.6486,-4.6486,-4.6105,-4.568,-4.568,-4.568,0.0,-4.5505,-4.4625,-4.3446,-4.2028,-4.044,-3.8871,-3.7528,-3.6493,-3.5837,-3.5692,-3.478,-3.4003,-3.4071,-3.3515,-3.3081,-3.3081,-3.3081,-3.3081,-3.3081,-3.3081,-3.3081,-3.3081,-3.3081,-3.3257,-3.3696,-3.3432,-3.337,-3.3709,-3.3006,-3.2403,-3.2077,-3.1637,-3.1298,-3.1085,-3.1085,-3.1085,-3.1085,-3.1185,-3.1248,-3.1248,-3.1336,-3.1625,-3.2039,-3.1499,-3.1537,0.0,0.0,0.0,0.0,0.0,0.0,0.0,0.0,0.0,0.0,0.0,-3.8736,0.0,0.0,-4.3389,-4.505,-4.6711,-4.8518,-5.074,-5.215,-5.3789,-5.5917,-5.885,-6.0706,-6.0706,-6.1704,-6.2212,-6.1839,-6.1806,-6.1653,-6.1264,-6.1247,-6.1078,-6.0706,-6.0706,-6.0334,-5.9573,-5.9556,-5.937,-5.8981,-5.8636,-5.8427,-5.841,-5.7516,-5.6475,-5.5333,-5.4218,-5.3095,-5.1946,-5.0773,-4.9846,-4.9179,-4.8218,-4.756,-4.7309,-4.7309,-4.7309,-4.7309,-4.7309,-4.6882,-4.6293,-4.6334,-4.5815,-4.5319,-4.5319,-4.5319,-4.5191,-4.4914,-4.3575,-4.198,-4.1022,-3.9491,-3.7928,-3.7047,-3.6341,-3.5875,-3.5567,-3.4675,-3.3906,-3.388,-3.349,-3.3081,-3.3081,-3.3081,-3.3081,-3.3081,-3.3081,-3.3081,-3.3081,-3.3081,-3.3181,-3.3458,-3.3483,-3.3483,-3.3483,-3.2704,-3.2215,-3.2215,-3.17,-3.1386,-3.1386,-3.1386,-3.1386,-3.1386,-3.1386,-3.1386,-3.1386,-3.1386,-3.1537,-3.18,-3.18,-3.2102,0.0,0.0,0.0,0.0,0.0,0.0,0.0,0.0,-3.5656,-3.9017,-4.0591,-4.1669,-4.2731,-4.3898,-4.5229,-4.686,-4.7668,-4.8633,-5.0095,-5.1348,-5.2749,-5.4605,-5.7061,-5.8592,-5.8592,-5.9252,-5.9725,-5.9877,-5.9759,-5.9742,-5.9877,-5.9894,-5.9827,-5.9674,-5.981,-5.9539,-5.8795,-5.9387,-5.9066,-5.7898,-5.8494,-5.8477,-5.7865,-5.678,-5.6231,-5.6101,-5.3684,-5.2604,-5.219,-5.0135,-4.9203,-4.8975,-4.7924,-4.7369,-4.7309,-4.7309,-4.7309,-4.7309,-4.7309,-4.6882,-4.6289,-4.6275,-4.5764,-4.513,-4.513,-4.4989,-4.4773,-4.4297,-4.2426,-4.0517,-3.9984,-3.848,-3.6963,-3.6502,-3.632,-3.6054,-3.5496,-3.4564,-3.3827,-3.3789,-3.3379,-3.3081,-3.3081,-3.3081,-3.3081,-3.3081,-3.3081,-3.3081,-3.3081,-3.3081,-3.3081,-3.3081,-3.347,-3.3558,-3.3119,-3.2641,-3.2378,-3.2378,-3.1964,-3.1712,-3.1712,-3.1712,-3.1712,-3.1712,-3.1612,-3.1549,-3.1549,-3.1436,-3.1386,-3.1399,-3.1838,-3.2416,-2.5271,-2.6427,-2.7733,-2.9227,-2.9641,-3.1279,0.0,0.0,-3.9106,-4.3568,-4.4646,-4.4796,-4.4945,-4.5589,-4.6172,-4.6396,-4.698,-4.7725,-4.8458,-4.9774,-5.0957,-5.1742,-5.4957,-5.7053,-5.7053,-5.7712,-5.8423,-5.9082,-5.8524,-5.8423,-5.9099,-5.9133,-5.8829,-5.8152,-5.8778,-5.8778,-5.8017,-5.8084,-5.8051,-5.7881,-5.7983,-5.7983,-5.7865,-5.7055,-5.6505,-5.601,-5.3196,-5.1458,-5.0406,-4.9651,-4.8966,-4.838,-4.8257,-4.7782,-4.7309,-4.7309,-4.7309,-4.7309,-4.7309,-4.6882,-4.6289,-4.6275,-4.5407,-4.4388,-4.4388,-4.3988,-4.3528,-4.3404,-4.1724,-4.0,-3.993,-3.8161,-3.649,-3.637,-3.6006,-3.5431,-3.4902,-3.4276,-3.3789,-3.3242,-3.3179,-3.3081,-3.3081,-3.3081,-3.3081,-3.3081,-3.3081,-3.3081,-3.3081,-3.3081,-3.3081,-3.3081,-3.3131,-3.3144,-3.3081,-3.3018,-3.298,-3.298,-3.2918,-3.2893,-3.2893,-3.2893,-3.2893,-3.2893,-3.2378,-3.2127,-3.2127,-3.1625,-3.1386,-3.1386,-3.1449,-3.2051,-2.6881,-2.7645,-2.816,-2.9854,-3.0495,-3.2008,-3.7016,-3.8309,-3.9558,-4.382,-4.5035,-4.5424,-4.5813,-4.6127,-4.6456,0.0,-4.713,-4.7785,-4.931,-5.0042,-5.0984,-5.2455,-5.3961,-5.5057,-5.548,-5.619,-5.6934,-5.7662,-5.7425,-5.7577,-5.8321,-5.8355,-5.822,-5.7898,-5.8203,-5.8203,-5.7881,-5.7459,-5.7476,-5.7881,-5.7487,-5.7263,-5.7263,-5.6954,-5.6113,-5.4815,-5.3056,-5.1559,-5.047,-4.9194,-4.8535,-4.8226,-4.7899,-4.7546,-4.7309,-4.7309,-4.7309,-4.7309,-4.7309,-4.6882,-4.6307,-4.6271,-4.5415,-4.4338,-4.4268,-4.3803,-4.3329,-4.3329,-4.2104,-4.0728,-4.0102,-3.8454,-3.6792,-3.6018,-3.5211,-3.4511,-3.4255,-3.3809,-3.3366,-3.3179,-3.3081,-3.3081,-3.3081,-3.3081,-3.3081,-3.3081,-3.3081,-3.3081,-3.3081,-3.3081,-3.3081,-3.3081,-3.3081,-3.3081,-3.3081,-3.3081,-3.293,-3.2591,-3.2893,-3.278,-3.2127,-3.2403,-3.2416,-3.2102,-3.1562,-3.1286,-3.1286,-3.0733,-3.0457,-3.047,-3.0783,-3.1198,-2.7285,-2.7946,-2.8285,-2.9967,-3.0896,-3.2444,-3.6495,-3.7866,-3.9488,-4.3464,-4.4691,-4.5229,-4.5918,-4.6037,-4.6262,-4.6935,-4.7267,-4.8011,-4.9758,-5.0298,-5.1165,-5.2853,-5.3146,-5.3467,-5.4211,-5.4786,-5.5412,-5.6139,-5.6376,-5.6816,-5.7543,-5.778,-5.7881,-5.7881,-5.7881,-5.7881,-5.7881,-5.7357,-5.7395,-5.7874,-5.7369,-5.7004,-5.6763,-5.6554,-5.5295,-5.3247,-5.2533,-5.1435,-4.9968,-4.8596,-4.7989,-4.7959,-4.7501,-4.7309,-4.7309,-4.7309,-4.7309,-4.7294,-4.7103,-4.6706,-4.628,-4.6075,-4.5257,-4.4266,-4.4338,-4.3803,-4.3235,-4.313,-4.2228,-4.1068,-3.9694,-3.8254,-3.6691,-3.5567,-3.4669,-3.4053,-3.39,-3.358,-3.3242,-3.3093,-3.3081,-3.3081,-3.3081,-3.3081,-3.3081,-3.3081,-3.3081,-3.3081,-3.3081,-3.3081,-3.3081,-3.3081,-3.293,-3.2905,-3.3068,-3.2792,-3.2503,-3.2227,-3.2466,-3.224,-3.1424,-3.1775,-3.18,-3.1399,-3.0884,-3.062,-3.062,-3.0068,-2.9792,-2.9804,-3.0206,-3.047,-2.5257,-2.649,-2.7708,-2.9402,-3.0608,-3.2444,-3.6495,-3.7784,-3.9405,-4.3464,-4.4332,-4.4541,-4.5214,-4.5334,-4.5544,-4.6247,-4.718,-4.7985,-4.8732,-5.0,-5.1043,-5.1839,-5.2183,-5.2655,0.0,-5.3551,-5.3873,-5.46,-5.5344,-5.6072,-5.6799,-5.7509,-5.7881,-5.7881,-5.7881,-5.7881,-5.7881,-5.7865,-5.784,-5.789,-5.7857,-5.7504,-5.6802,-5.6063,-5.4178,-5.1514,-5.1546,-5.036,-4.8343,-4.7575,-4.7324,-4.7324,-4.7309,-4.7309,-4.7309,-4.7309,-4.7309,-4.7249,-4.653,-4.6295,-4.6221,-4.5505,-4.4864,-4.4266,-4.4338,-4.3803,-4.319,-4.2609,-4.1542,-4.0271,-3.8564,-3.7243,-3.6092,-3.5005,-3.468,-3.4517,-3.404,-3.3865,-3.3677,-3.3205,-3.3081,-3.3081,-3.3081,-3.3081,-3.3081,-3.3081,-3.3081,-3.3081,-3.3081,-3.3081,-3.3081,-3.3081,-3.2579,-3.2466,-3.3031,-3.2077,-3.1662,-3.2177,-3.1725,-3.1424,-3.1386,-3.1411,-3.1411,-3.1386,-3.0884,-3.062,-3.062,-3.0068,-2.9792,-2.9792,-2.9817,-3.0105,-2.6383,-2.7532,-2.8687,-3.0005,-3.0608,-3.1816,-3.5241,-3.6577,-3.7873,-4.1062,-4.1369,-4.1399,-4.2506,-4.2701,-4.328,-4.4983,-4.6729,-4.8341,-4.993,-5.1337,-5.2401,-5.2903,-5.3904,0.0,0.0,0.0,0.0,-5.4532,-5.5294,-5.6038,-5.6765,-5.7492,-5.7881,-5.7881,-5.7881,-5.7881,-5.7881,-5.7408,-5.7429,-5.7929,-5.6942,-5.6044,-5.5295,-5.4568,-5.3737,-5.2741,-5.1387,-5.032,-4.9535,-4.7959,-4.7309,-4.7309,-4.7309,-4.7309,-4.7279,-4.6837,-4.6661,-4.6632,-4.634,-4.5998,-4.5559,-4.5341,-4.4877,-4.431,-4.4273,-4.3803,-4.3235,-4.3021,-4.2451,-4.1325,-3.9209,-3.7784,-3.6449,-3.4594,-3.3926,-3.3627,-3.3379,-3.3366,-3.3341,-3.3179,-3.3081,-3.3081,-3.3081,-3.3081,-3.3081,-3.3081,-3.3081,-3.3081,-3.3081,-3.3081,-3.3081,-3.3081,-3.2905,-3.2704,-3.2516,-3.2152,-3.1712,-3.1185,-3.1298,-3.1072,-3.0357,-3.0683,-3.0696,-3.0344,-3.0156,-3.0068,-3.0068,-2.988,-2.9792,-2.9792,-2.9028,-2.8785,-2.6909,-2.7946,-2.89,-3.0043,-3.0319,-3.1072,-3.4093,-3.5072,-3.6197,-3.9091,-3.9155,-3.9092,-4.0462,-4.0731,-4.1427,-4.3354,-4.5258,-4.7365,-4.9686,-5.0916,-5.2129,-5.3703,-5.4735,-5.5226,0.0,0.0,0.0,-5.4583,-5.553,-5.619,-5.641,-5.7357,-5.7881,-5.7881,-5.7628,-5.7509,-5.7509,-5.6782,-5.6643,-5.7072,-5.5909,-5.5055,-5.4584,-5.3822,-5.3281,-5.2825,-5.1101,-5.0149,-4.9698,-4.7974,-4.7309,-4.7309,-4.7309,-4.7309,-4.7204,-4.6511,-4.6137,-4.5903,-4.5684,-4.5341,-4.4913,-4.4698,-4.4312,-4.3942,-4.3942,-4.3618,-4.3235,-4.3021,-4.2709,-4.176,-3.903,-3.7811,-3.6585,-3.4225,-3.3354,-3.3081,-3.3081,-3.3081,-3.3081,-3.3081,-3.3081,-3.3081,-3.3081,-3.3081,-3.3081,-3.3081,-3.3081,-3.3006,-3.2792,-3.2955,-3.2918,-3.2516,-3.2654,-3.2541,-3.1964,-3.175,-3.1348,-3.0658,-3.0746,-3.0507,-2.9817,-3.0131,-3.0156,-2.9804,-2.9792,-2.9792,-2.9792,-2.9792,-2.9792,-2.9792,-2.8597,-2.8096,-2.6768,-2.7708,-2.8411,-2.9515,-2.9869,-3.0496,-3.296,-3.3623,-3.4552,-3.7608,-3.7719,-3.7654,0.0,0.0,-3.9955,-4.145,-4.3296,-4.5499,-4.833,-4.9055,-5.0659,0.0,0.0,0.0,0.0,0.0,0.0,-5.4803,0.0,-5.6478,-5.575,-5.7103,-5.7865,-5.778,-5.7154,-5.6782,-5.6748,-5.6055,-5.5656,-5.5671,-5.4921,-5.4584,-5.455,-5.3805,-5.2944,-5.1934,-5.0911,-4.9866,-4.8804,-4.7767,-4.7324,-4.7279,-4.7279,-4.7249,-4.7111,-4.6397,-4.5795,-4.5175,-4.4512,-4.4218,-4.4142,-4.3528,-4.3329,-4.3329,-4.3329,-4.3329,-4.319,-4.2609,-4.2426,-4.1636,-3.8179,-3.7256,-3.6545,-3.3776,-3.3081,-3.3081,-3.3081,-3.3081,-3.3081,-3.3081,-3.3081,-3.3081,-3.3081,-3.3081,-3.3081,-3.3081,-3.3081,-3.288,-3.2328,-3.2717,-3.2616,-3.1549,-3.1876,-3.1951,-3.1399,-3.0896,-3.0608,-3.057,-3.008,-2.9792,-2.9792,-2.9792,-2.9792,-2.9792,-2.9792,-2.9792,-2.9792,-2.9792,-2.9792,-2.9792,-2.8597,-2.8108,-2.7022,-2.7984,-2.8888,-2.9616,-3.0355,-3.1233,-3.2585,-3.3761,-3.4934,-3.6053,-3.5699,-3.5657,0.0,0.0,0.0,-4.2398,-4.5567,0.0,-5.024,-5.2555,0.0,-5.4549,0.0,-5.6917,-5.6562,-5.6697,0.0,0.0,-5.6596,-5.6478,-5.575,-5.7103,-5.7391,-5.6308,-5.6613,-5.6545,-5.6004,-5.5801,-5.5407,-5.4875,-5.4686,-5.4313,-5.3771,-5.3568,-5.3332,-5.3011,-5.1967,-5.0967,-4.9906,-4.8834,-4.7707,-4.6515,-4.6515,-4.6256,-4.5762,-4.5022,-4.4735,-4.4458,-4.3798,-4.3558,-4.3543,-4.3374,-4.3329,-4.3329,-4.3329,-4.3329,-4.3235,-4.3145,-4.2778,-4.1715,-3.8759,-3.7605,-3.6545,-3.3776,-3.3081,-3.3081,-3.3081,-3.3081,-3.3081,-3.3081,-3.3081,-3.3081,-3.3081,-3.3081,-3.3081,-3.3081,-3.3081,-3.3018,-3.288,-3.2604,-3.2315,-3.2039,-3.1763,-3.1386,-3.0859,-3.0696,-3.0444,-3.003,-2.9867,-2.9792,-2.9792,-2.9792,-2.9792,-2.9792,-2.9792,-2.9792,-2.9792,-2.9792,-2.9792,-2.9792,-2.8597,-2.7801,-2.713,-2.8172,-2.9189,-2.9535,-3.0296,-3.1053,-3.1414,-3.2449,-3.3478,-3.409,-3.3909,-3.4258,-3.6263,-3.727,-3.8802,0.0,0.0,0.0,-5.0359,-5.2469,-5.4194,0.0,-5.6647,0.0,-5.685,-5.6799,-5.6681,0.0,-5.663,-5.6478,-5.575,-5.6799,-5.6884,-5.575,-5.5801,-5.548,-5.4752,-5.4735,-5.4531,-5.4141,-5.4144,-5.3873,-5.3501,-5.3501,-5.3501,-5.3467,0.0,-5.1411,-5.05,-4.9259,-4.7885,-4.6433,-4.6373,-4.5928,-4.5244,-4.4564,-4.4283,-4.4221,-4.3504,-4.315,-4.2955,-4.324,-4.3329,-4.3329,-4.3329,-4.3329,-4.322,-4.2991,-4.2639,-4.168,-3.8544,-3.7524,-3.6545,-3.3776,-3.3081,-3.3081,-3.3081,-3.3081,-3.3081,-3.3081,-3.3081,-3.3081,-3.3081,-3.3081,-3.3081,-3.3081,-3.3081,-3.3081,-3.3081,-3.2792,-3.2315,-3.1587,-3.165,-3.1449,-3.0683,-3.062,-3.0482,-3.0168,-2.993,-2.9792,-2.9792,-2.9792,-2.9792,-2.9792,-2.9792,-2.9792,-2.9792,-2.9792,-2.9792,-2.9792,-2.8597,-2.7708,-2.7328,-2.8433,-2.9499,-2.9578,-3.0201,-3.0679,-3.0235,-3.0805,-3.1601,-3.2327,0.0,-3.3537,-3.6127,-3.7308,-3.8753,-4.123,0.0,-4.616,-4.9864,-5.1116,-5.2875,-5.6122,-5.665,-5.6772,-5.6647,-5.6616,-5.6416,-5.5767,-5.6207,-5.6241,-5.5598,-5.6258,-5.6325,-5.5598,-5.4837,-5.4143,-5.3518,-5.3501,-5.3501,-5.3501,-5.3501,-5.3501,-5.3501,-5.3501,-5.3467,-5.3281,-5.2388,-5.1396,-5.0355,-4.9174,-4.7784,-4.637,-4.6153,-4.5631,-4.498,-4.4414,-4.4148,-4.4092,-4.3434,-4.2895,-4.2566,-4.3045,-4.321,-4.321,-4.321,-4.3195,-4.3041,-4.2585,-4.2312,-4.1528,-3.8239,-3.7332,-3.6558,-3.3938,-3.3205,-3.3081,-3.3081,-3.3081,-3.3081,-3.3081,-3.3081,-3.3081,-3.3081,-3.3081,-3.3081,-3.3081,-3.3081,-3.3081,-3.3081,-3.3006,-3.239,-3.0884,-3.1486,-3.1587,-3.0595,-3.0507,-3.0507,-3.0507,-3.0055,-2.9792,-2.9792,-2.9792,-2.9792,-2.9792,-2.9792,-2.9792,-2.9792,-2.9792,-2.9792,-2.9792,-2.8597,-2.7743,-2.815,-2.8972,-2.9845,-3.0269,-3.1132,-3.154,-3.0358,-3.1619,0.0,0.0,-3.309,-3.4564,-3.5677,-3.7028,-3.9338,-4.3344,-4.5348,-4.7699,-5.1403,-5.3129,-5.4245,0.0,-5.6029,-5.6591,-5.5956,-5.5858,0.0,0.0,-5.526,-5.4921,-5.4803,-5.5497,-5.5564,-5.4803,-5.4076,-5.3636,-5.3501,-5.3501,-5.3501,-5.3501,-5.3501,-5.3501,-5.3501,-5.3501,-5.3163,-5.2489,-5.2287,0.0,-4.8711,-4.8481,-4.6933,-4.4728,-4.4698,-4.4248,-4.3614,-4.3494,-4.3464,-4.3404,-4.2761,-4.2806,-4.309,-4.2671,-4.2536,-4.2536,-4.2536,-4.2569,-4.2509,-4.2449,-4.1987,-4.1066,-3.9062,-3.7835,-3.6737,-3.4865,-3.3776,-3.3081,-3.3081,-3.3081,-3.3081,-3.3081,-3.3081,-3.3081,-3.3081,-3.3081,-3.3081,-3.3081,-3.3081,-3.3081,-3.3081,-3.2654,-3.2077,-3.1336,-3.1035,-3.0633,-2.9993,-2.993,-2.993,-2.993,-2.9842,-2.9792,-2.9792,-2.9792,-2.9792,-2.9792,-2.9792,-2.9792,-2.9792,-2.9792,-2.9792,-2.9792,-2.8597,-2.7929,-2.8177,-2.9118,-3.015,-3.0369,-3.1119,-3.1422,-3.0067,0.0,0.0,0.0,-3.2912,-3.4516,-3.5989,-3.7169,0.0,-4.2281,-4.4062,-4.6464,-5.0574,-5.2114,-5.3583,-5.5482,-5.572,-5.5818,-5.6304,-5.5594,-5.5299,-5.5663,-5.5004,-5.458,-5.4635,-5.4566,-5.4397,-5.4042,-5.3687,-5.3501,-5.3501,-5.3501,-5.3501,-5.3501,-5.3501,-5.3501,-5.3501,-5.3045,-5.2674,-5.2303,-5.1877,-5.075,-4.9189,-4.8564,-4.7098,-4.519,-4.4558,-4.3912,-4.3329,-4.3329,-4.3329,-4.324,-4.2581,-4.2342,-4.2207,-4.1549,-4.2028,-4.2746,-4.2058,-4.2134,-4.2254,-4.1549,-4.113,-4.0512,-3.872,-3.7479,-3.6372,-3.5057,-3.3926,-3.3081,-3.3081,-3.3081,-3.3081,-3.3081,-3.3081,-3.3081,-3.3081,-3.3081,-3.3081,-3.3081,-3.3081,-3.3081,-3.3081,-3.283,-3.2441,-3.1876,-3.1336,-3.0909,-3.0645,-3.0118,-2.9917,-3.0206,-2.9942,-2.9792,-2.9792,-2.9792,-2.993,-3.0218,-2.9942,-2.993,-3.0218,-3.0218,-2.9878,-2.9272,-2.8754,-2.8035,-2.8441,-2.9505,-3.0584,-3.0733,-3.108,-3.1093,-2.9962,-3.0752,0.0,-3.1528,-3.2845,-3.453,-3.6215,-3.7117,-3.8419,0.0,-4.2379,-4.4865,-4.9846,-5.1179,-5.2866,0.0,-5.5835,0.0,-5.6564,-5.5707,0.0,-5.5649,-5.5042,-5.4522,-5.4381,-5.3805,-5.3501,-5.3501,-5.3501,-5.3501,-5.3501,-5.3501,-5.3501,-5.3501,-5.3501,-5.3501,-5.3484,-5.2691,-5.2186,-5.1999,-5.1298,-5.0458,-4.948,-4.8328,-4.7055,-4.5779,-4.4558,-4.3758,-4.3329,-4.3329,-4.324,-4.303,-4.2372,-4.1908,-4.1459,-4.0651,-4.1444,-4.2506,-4.1489,-4.1534,-4.1743,-4.0711,-4.0263,-3.9832,-3.8471,-3.7168,-3.5924,-3.4686,-3.3677,-3.3081,-3.3081,-3.3081,-3.3081,-3.3081,-3.3081,-3.3081,-3.3081,-3.3081,-3.3081,-3.3081,-3.3081,-3.3081,-3.3081,-3.3081,-3.2905,-3.2441,-3.1901,-3.1474,-3.1248,-3.0557,-3.0218,-3.0432,-3.0244,-3.003,-2.9804,-3.0018,-3.0281,-3.0608,-3.0294,-3.0344,-3.0783,-3.053,-2.9927,-2.8964,-2.8537,-2.7729,-2.9889,-3.0733,-3.1567,-3.2201,-3.1867,-3.1249,-3.0561,0.0,-3.2163,-3.1616,-3.3579,-3.5487,-3.5661,-3.6354,-3.8031,-4.1474,0.0,-4.4503,-5.0978,-5.2582,-5.3802,-5.561,0.0,0.0,-5.5957,-5.6349,-5.6438,-5.5762,-5.5042,-5.4299,-5.3653,-5.3551,-5.3501,-5.3501,-5.3501,-5.3501,-5.3501,-5.3501,-5.3501,-5.3501,-5.3501,-5.3501,-5.3484,-5.2691,-5.1961,-5.1253,-5.0498,-4.9283,0.0,-4.6792,-4.5795,-4.4804,-4.3773,-4.3359,-4.3329,-4.3329,-4.2955,-4.2357,-4.1698,-4.1818,-4.2073,-4.0816,-4.0516,-4.0651,-4.0531,-4.0531,-4.0561,-4.0442,-3.9978,-3.9427,-3.9292,-3.7757,-3.5668,-3.3679,-3.3192,-3.3081,-3.3081,-3.3081,-3.3081,-3.3081,-3.3081,-3.3081,-3.3081,-3.3081,-3.3081,-3.3081,-3.3081,-3.3081,-3.3081,-3.3081,-3.3056,-3.3006,-3.2478,-3.1738,-3.0771,-3.1035,-3.0846,-2.993,-3.0733,-3.0809,-2.9829,-3.0733,-3.1047,-3.062,-3.1035,-3.1273,-3.1323,-3.0204,-2.9594,-2.9498,-2.7349,-2.6483,-3.1509,-3.2555,-3.3506,-3.3779,-3.2918,-3.1838,-3.1131,0.0,-3.2278,-3.2018,-3.429,-3.618,-3.5707,-3.687,-3.8412,-3.9829,0.0,0.0,-4.7276,-4.8141,-4.9809,-5.3739,-5.4401,0.0,0.0,0.0,-5.6791,-5.6438,-5.5281,-5.4301,-5.3547,-5.3479,-5.3281,-5.279,-5.3247,-5.3264,-5.279,-5.3264,-5.3264,-5.2758,-5.2758,-5.2522,-5.2118,-5.1346,-5.0823,-5.0509,-4.9763,-4.9052,0.0,-4.7422,-4.6475,-4.5581,-4.4603,-4.3805,-4.3329,-4.3329,-4.3165,-4.2791,-4.1743,-4.1818,-4.2073,-4.0367,-4.0083,-4.0397,-4.0397,-4.0397,-4.0322,-3.9918,-3.9619,-3.9424,-3.9424,-3.78,-3.5654,-3.3628,-3.3081,-3.3081,-3.3081,-3.3081,-3.3081,-3.3081,-3.3081,-3.3081,-3.3081,-3.3081,-3.3081,-3.3081,-3.3081,-3.3081,-3.3081,-3.3081,-3.3081,-3.3081,-3.2554,-3.2039,-3.1612,-3.1461,-3.121,-3.0783,-3.1148,-3.106,-3.0319,-3.0997,-3.1298,-3.1085,-3.1286,-3.1208,-3.0834,-3.0312,-2.9329,-2.7832,-2.6966,-2.6414,-3.2729,-3.3991,-3.4998,-3.4989,-3.3681,-3.229,0.0,0.0,-3.2341,-3.256,-3.4827,-3.6695,-3.6297,-3.7585,-3.8877,0.0,0.0,-4.2037,-4.5221,-4.6123,-4.7931,-5.2027,0.0,-5.3873,0.0,-5.6879,-5.6681,-5.6227,-5.4973,-5.394,-5.3194,-5.2925,-5.257,-5.1995,-5.252,-5.257,-5.1963,-5.2539,-5.2522,-5.195,-5.1999,-5.1695,-5.1159,-5.0424,-5.0082,-5.0045,-4.93,-4.8843,0.0,-4.7383,-4.6354,-4.5509,-4.4476,-4.364,-4.3075,-4.3254,-4.321,-4.2895,-4.1773,-4.1683,-4.1818,-4.0232,-4.0023,-4.0397,-4.0397,-4.0262,-4.0008,-3.9544,-3.9177,-3.8855,-3.8531,-3.7098,-3.5265,-3.3556,-3.3081,-3.3081,-3.3081,-3.3081,-3.3081,-3.3081,-3.3081,-3.3081,-3.3081,-3.3081,-3.3081,-3.3081,-3.3081,-3.3081,-3.3081,-3.3081,-3.3081,-3.3081,-3.2717,-3.2403,-3.2227,-3.2014,-3.175,-3.1411,-3.1549,-3.1399,-3.0871,-3.1348,-3.1637,-3.1637,-3.18,-3.1645,-3.1221,-3.0489,-2.9239,-2.7434,-2.6817,-2.6269,-3.3406,-3.4659,-3.5771,-3.571,-3.4018,-3.2557,0.0,-3.2814,-3.2493,-3.3237,-3.5199,-3.6968,-3.7482,-3.8174,-3.9291,-4.1155,-4.1505,0.0,-4.6561,-4.8526,-4.9866,0.0,0.0,-5.4399,-5.4436,-5.5886,-5.6163,-5.4639,-5.3814,0.0,-5.2337,-5.1629,-5.1234,-5.1234,-5.1234,-5.122,-5.1208,-5.1212,-5.1212,-5.1195,-5.1223,-5.1179,-5.1162,-5.0413,-5.0096,-5.0045,-4.93,-4.8575,0.0,-4.5975,-4.4805,-4.4022,-4.2834,-4.2449,-4.2447,-4.309,-4.2925,-4.2267,-4.1609,-4.1384,-4.128,-4.0606,-4.0397,-4.0397,-4.0397,-3.9948,-3.9424,-3.9424,-3.862,-3.7587,-3.6526,-3.5521,-3.4428,-3.3398,-3.3081,-3.3081,-3.3081,-3.3081,-3.3081,-3.3081,-3.3081,-3.3081,-3.3081,-3.3081,-3.3081,-3.3081,-3.3081,-3.3081,-3.3081,-3.3081,-3.3081,-3.3081,-3.3068,-3.283,-3.2265,-3.2729,-3.2579,-3.1461,-3.1901,-3.1951,-3.1399,-3.1913,-3.2202,-3.2202,-3.2767,-3.3068,-3.3068,-3.0586,-2.9396,-2.9304,-2.6829,-2.5732,-3.3958,-3.4937,-3.566,-3.5649,-3.458,-3.3274,-3.2144,-3.2349,-3.2861,-3.3141,-3.5811,-3.8122,-3.8128,-3.9926,-4.1443,-4.1484,-4.2268,0.0,0.0,0.0,0.0,-5.0582,-5.4399,-5.6638,0.0,0.0,-5.6365,-5.5341,-5.4038,-5.3028,-5.2373,-5.1095,-5.0403,-5.0422,-5.0947,-5.095,-5.0463,-5.0938,-5.0943,-5.0442,-5.0456,-5.0209,-4.9712,-4.9463,-4.9334,-4.93,-4.8557,-4.8099,0.0,-4.6743,-4.5401,-4.4066,-4.3701,-4.2802,-4.1713,-4.1923,-4.1863,-4.1594,-4.0935,-4.101,-4.119,-4.0083,-4.0038,-4.0307,-3.9873,-3.9589,-3.9424,-3.9424,-3.9177,-3.8457,-3.6682,-3.5974,-3.5265,-3.3556,-3.3081,-3.3081,-3.3081,-3.3081,-3.3081,-3.3081,-3.3081,-3.3081,-3.3081,-3.3081,-3.3081,-3.3081,-3.3081,-3.3081,-3.3081,-3.3081,-3.3081,-3.3081,-3.3081,-3.3006,-3.2817,-3.2968,-3.293,-3.2566,-3.2704,-3.2541,-3.1976,-3.2503,-3.2616,-3.2227,-3.278,-3.2251,-3.0598,-2.9772,-2.8495,-2.6839,-2.611,-2.5742,0.0,-3.4998,-3.5816,-3.5511,-3.4887,0.0,-3.2841,-3.3167,-3.3806,-3.4141,-3.6764,-3.9048,-3.9088,-4.1079,-4.2607,-4.2305,-4.2938,-4.3699,0.0,0.0,0.0,-5.0967,0.0,0.0,0.0,-5.5537,-5.5556,-5.4748,-5.3281,-5.2125,-5.1457,-4.9953,-4.9028,-4.8894,-4.9576,-4.9852,-4.97,-4.9839,-4.9863,-4.9706,-4.94,-4.9198,-4.9001,-4.872,-4.8574,-4.854,-4.8081,-4.7595,0.0,-4.5875,-4.4601,-4.3297,-4.2862,-4.2037,-4.104,-4.1294,-4.1384,-4.128,-4.0621,-4.0666,-4.0831,-3.9768,-3.9514,-3.9574,-3.9155,-3.9215,-3.9424,-3.9424,-3.9104,-3.8383,-3.6682,-3.5894,-3.5197,-3.3471,-3.3081,-3.3081,-3.3081,-3.3081,-3.3081,-3.3081,-3.3081,-3.3081,-3.3081,-3.3081,-3.3081,-3.3081,-3.3081,-3.3081,-3.3081,-3.3081,-3.3081,-3.3081,-3.3081,-3.3081,-3.3081,-3.3081,-3.3081,-3.3081,-3.2867,-3.2692,-3.2541,-3.2478,-3.2466,-3.2541,-3.2478,-3.1638,-2.986,-2.8945,-2.7399,-2.5488,-2.5664,-2.5742,0.0,-3.4846,-3.6115,-3.5446,0.0,0.0,-3.4854,-3.496,0.0,-3.6007,-3.7957,-3.9747,-4.0347,-4.1722,-4.2902,-4.341,-4.3497,-4.403,0.0,-4.7352,0.0,0.0,-5.2858,0.0,-5.2087,-5.3463,-5.4051,-5.3188,-5.1773,-5.0652,-4.9965,-4.8575,-4.7468,-4.6844,-4.7428,-4.8122,-4.8849,-4.8175,-4.8192,-4.8821,-4.813,-4.8175,-4.8798,-4.8141,-4.7844,0.0,-4.7786,0.0,0.0,-4.3877,-4.2733,-4.1933,-4.0827,-4.0394,-4.0337,-4.095,-4.1175,-4.1085,-4.0472,-4.0262,-4.0157,-3.9484,-3.8871,-3.8392,-3.8392,-3.8796,-3.9275,-3.9275,-3.8561,-3.7534,-3.6401,-3.5426,-3.4446,-3.3335,-3.3056,-3.3081,-3.3081,-3.3081,-3.3081,-3.3081,-3.3081,-3.3081,-3.3081,-3.3081,-3.3081,-3.3081,-3.3081,-3.3081,-3.3081,-3.3081,-3.3081,-3.3081,-3.3081,-3.3081,-3.3081,-3.3081,-3.3081,-3.3081,-3.2566,-3.2516,-3.3056,-3.1943,-3.1855,-3.2907,-3.1676,-3.077,-3.0316,-2.7938,-2.6166,-2.5078,-2.5527,-2.5742,-3.3928,0.0,-3.6013,-3.5874,-3.6506,-3.6753,0.0,-3.6094,-3.7252,-3.7466,0.0,-4.0456,-4.1608,-4.2662,-4.3375,-4.3479,-4.3497,-4.3846,-4.4837,-4.8012,0.0,-5.2711,-5.4161,-5.4234,-5.2197,-5.3463,-5.3812,-5.238,-5.1943,-5.0949,-4.9185,-4.8723,-4.7979,-4.6844,-4.6406,-4.6558,-4.731,-4.7177,-4.7144,-4.7323,-4.7127,-4.713,-4.7312,-4.7164,-4.7063,-4.7016,-4.6459,0.0,-4.5592,-4.4632,-4.335,-4.1885,-4.1148,-4.0029,-3.8886,-3.9035,-3.9095,-3.9065,-3.8916,-3.8856,-3.8751,-3.8093,-3.8108,-3.8392,-3.8392,-3.8153,-3.7883,-3.7883,-3.7659,-3.7107,-3.5283,-3.4958,-3.4699,-3.281,-3.2754,-3.3081,-3.3081,-3.3081,-3.3081,-3.3081,-3.3081,-3.3081,-3.3081,-3.3081,-3.3081,-3.3081,-3.3081,-3.3081,-3.3081,-3.3081,-3.3081,-3.3081,-3.3081,-3.3081,-3.3081,-3.3081,-3.3081,-3.3081,-3.2955,-3.293,-3.3068,-3.1602,-3.0918,-3.1184,-2.8756,-2.7448,-2.7303,-2.6074,-2.5342,-2.5078,-2.5527,-2.5742,-3.5483,-3.5766,-3.6042,-3.6309,-3.7587,-3.8525,-3.7437,0.0,0.0,0.0,0.0,-4.1446,-4.2179,-4.3259,-4.392,-4.3552,-4.4433,-4.57,0.0,0.0,-5.0986,-5.2968,-5.3647,-5.3573,0.0,-5.3335,-5.3335,-5.2087,-5.1665,-5.063,-4.8833,-4.7755,-4.6733,-4.5737,-4.4705,-4.4983,-4.6769,-4.6136,-4.6111,-4.6777,-4.6094,-4.5949,-4.6293,-4.5937,-4.5589,-4.5228,0.0,0.0,-4.413,-4.3681,-4.2522,-4.099,-4.0182,-3.9087,-3.7943,-3.7943,-3.7943,-3.7943,-3.7943,-3.7943,-3.7883,-3.7524,-3.7659,-3.7943,-3.7943,-3.7689,-3.7539,-3.8153,-3.8332,-3.7863,-3.5765,-3.548,-3.5192,-3.3084,-3.2855,-3.3081,-3.3081,-3.3081,-3.3081,-3.3081,-3.3081,-3.3081,-3.3081,-3.3081,-3.3081,-3.3081,-3.3081,-3.3081,-3.3081,-3.3081,-3.3081,-3.3081,-3.283,-3.2679,-3.2679,-3.2453,-3.2416,-3.2667,-3.2679,-3.2566,-3.2315,-3.1169,-3.024,-2.9463,-2.77,-2.6367,-2.563,-2.5077,-2.4775,-2.4785,-2.5439,-2.5742,-3.72,-3.69,-3.6698,-3.7154,-3.8798,-4.023,-4.0102,0.0,0.0,0.0,0.0,0.0,0.0,-4.3608,0.0,-4.3754,0.0,0.0,-5.0637,-5.0398,-5.071,-5.2784,-5.2527,0.0,-5.2619,-5.2876,-5.2637,-5.1683,-5.0875,-4.977,-4.8312,-4.6257,-4.4818,-4.4227,-4.2983,-4.3535,-4.6101,-4.4885,-4.4907,-4.6114,-4.4817,-4.457,-4.5145,-4.4509,-4.3886,-4.3286,0.0,0.0,-4.2308,-4.2216,-4.1367,-3.9991,-3.9047,-3.8146,-3.7444,-3.7323,-3.727,-3.727,-3.727,-3.721,-3.712,-3.712,-3.718,-3.727,-3.727,-3.7345,-3.7644,-3.8796,-3.905,-3.8485,-3.634,-3.5866,-3.5396,-3.3372,-3.2955,-3.3081,-3.3081,-3.3081,-3.3081,-3.3081,-3.3081,-3.3081,-3.3081,-3.3081,-3.3081,-3.3081,-3.3081,-3.3081,-3.3081,-3.3081,-3.3081,-3.3081,-3.2641,-3.2303,-3.2227,-3.1863,-3.1775,-3.2064,-3.2089,-3.1755,-3.1028,-3.0419,-2.9326,-2.7602,-2.7026,-2.6033,-2.4542,-2.4496,-2.4482,-2.4443,-2.5322,-2.5742,-3.7136,-3.833,-3.9228,-3.9379,-4.0694,-4.1754,-4.1075,0.0,0.0,0.0,0.0,0.0,0.0,-4.3516,-4.3864,0.0,0.0,-4.8985,0.0,0.0,-5.1756,-5.2142,0.0,-5.227,-5.0325,-5.1371,-5.1555,-5.0068,-4.9169,-4.8053,-4.6627,-4.5111,-4.3986,-4.3395,-4.2658,-4.2495,-4.2969,-4.2752,-4.277,-4.3014,-4.2787,-4.2724,-4.2831,-4.2687,-4.2585,-4.2466,0.0,-4.253,-4.2323,-4.2281,-4.1722,-4.0729,-3.9349,-3.8339,-3.7474,-3.6863,-3.6626,-3.6626,-3.6626,-3.6267,-3.5804,-3.5804,-3.6178,-3.6626,-3.6626,-3.6985,-3.7449,-3.7659,-3.7345,-3.6473,-3.4506,-3.4319,-3.4109,-3.2115,-3.2378,-3.3081,-3.3081,-3.3081,-3.3081,-3.3081,-3.3081,-3.3081,-3.3081,-3.3081,-3.3081,-3.3081,-3.3081,-3.3081,-3.3081,-3.3081,-3.3081,-3.3081,-3.3006,-3.2754,-3.2252,-3.2591,-3.2441,-3.1574,-3.1512,-3.084,-2.9352,-2.8337,-2.7049,-2.5378,-2.4661,-2.3998,-2.3387,-2.4457,-2.4775,-2.4443,-2.5322,-2.5742,-3.7103,-3.8677,-4.0164,-4.0458,-4.1578,-4.26,-4.2558,0.0,0.0,0.0,0.0,0.0,0.0,0.0,-4.6159,-4.8306,0.0,-4.9169,-5.1646,-5.0839,-5.0343,0.0,0.0,-5.0986,-5.0306,-5.0912,-5.0674,-4.9022,-4.8526,-4.7641,-4.6106,-4.4407,-4.3387,-4.3109,-4.1812,-4.1093,-4.1093,-4.1093,-4.1527,-4.2311,-4.1884,-4.1707,-4.169,-4.1699,-4.1477,-4.112,0.0,-4.1476,-4.1119,-4.1542,-4.075,-3.9201,-3.8589,-3.7526,-3.6398,-3.6054,-3.5953,-3.5953,-3.5953,-3.5759,-3.5504,-3.5504,-3.5953,-3.6492,-3.6492,-3.6911,-3.7404,-3.7404,-3.7464,-3.7064,-3.5022,-3.4941,-3.4852,-3.2765,-3.2453,-3.2692,-3.3006,-3.283,-3.2704,-3.3018,-3.3081,-3.3081,-3.3081,-3.3081,-3.3081,-3.3081,-3.3081,-3.3081,-3.3081,-3.3081,-3.2955,-3.2641,-3.234,-3.2051,-3.1788,-3.1486,-3.1323,-3.1386,-3.1386,-3.0891,-2.9849,-2.9,-2.7793,-2.619,-2.5384,-2.4536,-2.3496,-2.4551,-2.4971,-2.4785,-2.5439,-2.5742,-3.6933,-3.8468,-4.0034,-4.0637,0.0,-4.2977,-4.3872,0.0,0.0,0.0,0.0,0.0,0.0,-4.603,0.0,-5.0692,-5.0031,-4.9958,-5.2234,-5.06,-4.9719,-5.1187,-5.049,-5.005,-5.0472,-5.0325,-4.9609,-4.8141,-4.7682,-4.691,-4.5682,-4.3896,-4.2871,-4.2739,-4.1128,-4.0222,-4.007,-4.007,-4.0662,-4.1749,-4.1222,-4.0967,-4.0967,-4.0967,-4.0629,-4.0104,-4.0696,-4.0612,-4.0121,-4.0525,-3.9615,-3.8035,-3.769,-3.6707,-3.5504,-3.5504,-3.5504,-3.5504,-3.5504,-3.5504,-3.5504,-3.5504,-3.5848,-3.6252,-3.6252,-3.6582,-3.6971,-3.6971,-3.7434,-3.7523,-3.5625,-3.5355,-3.507,-3.3122,-3.234,-3.2139,-3.2579,-3.234,-3.219,-3.2767,-3.288,-3.2918,-3.3056,-3.3081,-3.3031,-3.2893,-3.2993,-3.298,-3.2717,-3.2918,-3.2855,-3.2277,-3.1951,-3.1725,-3.1599,-3.0721,-3.047,-3.1173,-3.1085,-3.0834,-3.0432,-2.9474,-2.8387,-2.7139,-2.6165,-2.5098,-2.3789,-2.4648,-2.5068,-2.5078,-2.5527,-2.5742,-3.6622,-3.7772,-3.8894,-3.9606,-4.1082,0.0,-4.4426,-4.4196,0.0,-4.5611,0.0,0.0,0.0,-4.603,-4.7443,-4.8416,-5.0343,-5.2307,-5.3995,0.0,-5.205,-5.2931,-5.1665,-5.0435,-4.9738,-4.8948,-4.8122,-4.726,-4.5792,-4.4912,-4.4801,-4.3484,-4.2463,-4.1882,-4.1233,-4.0612,-4.007,-4.007,-4.0172,-4.0256,-4.0206,-4.0189,-4.0189,-4.0189,-4.0172,-4.007,-4.0138,-4.0121,-4.007,-3.9365,-3.8957,-3.869,-3.7247,-3.6228,-3.5504,-3.5504,-3.5504,-3.5504,-3.5504,-3.5504,-3.5504,-3.5504,-3.5534,-3.5579,-3.5579,-3.5609,-3.5654,-3.5654,-3.6118,-3.631,-3.4854,-3.401,-3.324,-3.1847,-3.1486,-3.1461,-3.1499,-3.1486,-3.1612,-3.2164,-3.2277,-3.2441,-3.298,-3.3081,-3.2893,-3.2353,-3.2729,-3.2704,-3.165,-3.2428,-3.2855,-3.2277,-3.2654,-3.2729,-3.2202,-3.1612,-3.1097,-3.0696,-3.0193,-2.9892,-2.9854,-2.8175,-2.7021,-2.6539,-2.5211,-2.43,-2.3789,-2.4648,-2.5068,-2.5078,-2.5527,-2.5742,-3.6388,-3.7922,-3.9398,-3.9553,0.0,0.0,0.0,-4.4746,-4.4849,-4.5781,-4.6749,0.0,0.0,0.0,-4.8912,-4.9719,-5.0637,-5.1646,-5.2747,-5.1518,-5.0417,-5.0196,-4.9187,-4.8196,-4.737,-4.7002,-4.6489,-4.5663,-4.504,-4.4327,-4.3501,-4.2642,-4.1878,-4.1245,-4.0269,-3.9615,-3.9413,-3.8975,-3.8721,-3.873,-3.9213,-3.9395,-3.9376,-3.8916,-3.8747,-3.8751,-3.9208,-3.9411,-3.9445,-3.9597,-3.9102,-3.8076,-3.6523,-3.5733,-3.5504,-3.5504,-3.5504,-3.5504,-3.5504,-3.5504,-3.5504,-3.5504,-3.5504,-3.5504,-3.5504,-3.5504,-3.5504,-3.5504,-3.523,-3.4766,-3.3977,-3.3872,-3.3601,-3.1796,-3.1148,-3.0997,-3.1323,-3.1135,-3.1072,-3.1599,-3.17,-3.1763,-3.1989,-3.2026,-3.1951,-3.1738,-3.1888,-3.1876,-3.1449,-3.1763,-3.1825,-3.1286,-3.17,-3.1813,-3.126,-3.1323,-3.1022,-3.0156,-3.0532,-3.0645,-3.0319,-2.9272,-2.8103,-2.7026,-2.5946,-2.5048,-2.418,-2.4775,-2.5215,-2.5488,-2.5664,-2.5742,-3.614,-3.7776,-3.945,0.0,0.0,0.0,-4.4907,-4.514,-4.5219,-4.654,-4.7414,0.0,-4.8251,0.0,0.0,0.0,-5.0453,-5.0986,-5.1536,-5.0215,-4.8967,-4.8379,-4.7369,-4.6507,-4.5938,-4.5682,-4.5279,-4.4747,-4.4472,-4.3832,-4.2768,-4.23,-4.1608,-4.0592,-3.9709,-3.9042,-3.8667,-3.8132,-3.7885,-3.7916,-3.7937,-3.8168,-3.8659,-3.8133,-3.7916,-3.7939,-3.843,-3.8768,-3.9022,-3.9244,-3.8602,-3.7338,-3.6243,-3.5733,-3.5504,-3.5504,-3.5504,-3.5504,-3.5504,-3.5504,-3.5504,-3.5504,-3.5504,-3.5504,-3.5504,-3.5504,-3.5504,-3.5504,-3.4773,-3.3839,-3.332,-3.3312,-3.2993,-3.1474,-3.0746,-3.0457,-3.0809,-3.0608,-3.052,-3.1035,-3.1148,-3.1198,-3.1361,-3.1386,-3.1336,-3.1173,-3.1286,-3.126,-3.0934,-3.1185,-3.1248,-3.0896,-3.1173,-3.1185,-3.0658,-3.0947,-3.0758,-2.9854,-3.0127,-3.0375,-3.0369,-2.9661,-2.8582,-2.7071,-2.6258,-2.5368,-2.4219,-2.4521,-2.4961,-2.5527,-2.5527,-2.5605,-3.5825,-3.7062,-3.8797,0.0,0.0,0.0,-4.5811,0.0,-4.5077,-4.8141,0.0,-4.7314,-4.8121,-4.7607,0.0,-4.8159,-4.9682,-5.0765,-5.0765,-4.9334,-4.8288,-4.8269,-4.6836,-4.5865,-4.5865,-4.5169,-4.4675,-4.4675,-4.3958,-4.3243,-4.2732,-4.2669,-4.1817,-3.9834,-3.9783,-3.9168,-3.7916,-3.7899,-3.7899,-3.7882,-3.631,-3.6393,-3.7874,-3.7851,-3.7872,-3.7872,-3.7889,-3.8311,-3.8922,-3.8131,-3.7303,-3.6584,-3.6584,-3.615,-3.5489,-3.5504,-3.5504,-3.5504,-3.5504,-3.5504,-3.5504,-3.5504,-3.5504,-3.5504,-3.5504,-3.5504,-3.5504,-3.5504,-3.4758,-3.3739,-3.282,-3.1888,-3.1114,-3.0694,-3.0193,-2.9792,-2.9792,-2.9792,-2.9955,-3.0507,-3.0608,-3.0771,-3.1286,-3.1373,-3.1198,-3.0683,-3.1047,-3.0997,-2.993,-3.0721,-3.1373,-3.1386,-3.1386,-3.1173,-3.0658,-3.062,-3.0382,-2.9829,-2.8767,-2.8609,-2.9714,-2.9117,-2.8058,-2.6483,-2.5776,-2.4907,-2.3789,-2.3789,-2.4228,-2.5068,-2.5068,-2.5312,-3.5673,-3.7233,0.0,-3.9129,0.0,0.0,0.0,0.0,0.0,0.0,-4.6827,-4.6006,-4.6793,-4.6693,0.0,-4.6803,-4.7138,-4.7551,-4.8098,-4.6793,-4.5769,-4.5773,-4.4875,-4.4196,-4.4196,-4.3995,-4.3684,-4.332,-4.3408,-4.2823,-4.1316,-4.1261,-4.0578,-3.9009,-3.8108,-3.7512,-3.7137,-3.6576,-3.6265,-3.6248,-3.5307,-3.5348,-3.6243,-3.5199,-3.503,-3.5537,-3.6062,-3.6738,-3.7418,-3.7153,-3.6881,-3.6609,-3.6056,-3.5691,-3.5477,-3.5503,-3.5504,-3.5504,-3.5504,-3.5504,-3.5504,-3.5504,-3.5504,-3.5504,-3.5504,-3.5504,-3.5504,-3.5504,-3.4327,-3.2961,-3.2664,-3.1402,-3.019,-3.007,-2.9917,-2.9792,-2.9792,-2.9792,-2.9842,-3.0005,-3.0043,-3.008,-3.0244,-3.0269,-3.0218,-3.0055,-3.0168,-3.0156,-2.9829,-3.0068,-3.0419,-3.0809,-3.0846,-3.0783,-3.0633,-3.062,-3.0382,-2.9829,-2.9456,-2.9106,-2.8597,-2.7685,-2.6606,-2.5294,-2.5094,-2.4579,-2.3789,-2.3789,-2.4228,-2.5068,-2.5068,-2.5312,-3.5947,-3.7511,0.0,-4.0087,-4.2117,-4.3995,-4.4468,0.0,0.0,0.0,-4.62,-4.5414,-4.5914,-4.5408,0.0,-4.5345,-4.5292,-4.5461,-4.6212,-4.4983,-4.4088,-4.4364,-4.3466,-4.2732,-4.2441,-4.2642,-4.2459,-4.1517,-4.2021,-4.1633,-3.9928,-3.9882,-3.9267,-3.7942,-3.7182,-3.6522,-3.5882,-3.5409,-3.5023,-3.4701,-3.3999,-3.3855,-3.4269,-3.3677,-3.3643,-3.4117,-3.5165,-3.6062,-3.684,-3.7084,-3.6986,-3.6645,-3.5879,-3.5552,-3.5445,-3.5175,-3.5265,-3.5504,-3.5504,-3.5504,-3.5504,-3.5504,-3.5504,-3.5504,-3.5504,-3.5504,-3.5504,-3.5504,-3.4124,-3.2593,-3.2593,-3.1206,-2.9792,-2.9792,-2.9792,-2.9792,-2.9792,-2.9792,-2.9792,-2.9792,-2.9792,-2.9792,-2.9792,-2.9792,-2.9792,-2.9792,-2.9792,-2.9792,-2.9792,-2.9792,-2.9917,-3.0256,-3.0281,-3.0281,-3.0281,-3.0281,-3.0143,-2.9817,-2.9365,-2.8858,-2.8096,-2.7452,-2.6367,-2.4872,-2.4787,-2.4344,-2.3525,-2.3525,-2.3975,-2.4805,-2.4805,-2.5146,-3.6419,-3.7686,0.0,-4.1644,-4.3403,0.0,-4.4587,-4.6062,-4.719,-4.6342,0.0,-4.5057,-4.5089,-4.3889,-4.3155,-4.388,-4.398,-4.4163,-4.4729,-4.3689,-4.3105,-4.365,-4.2596,-4.1506,-4.0763,-4.1288,-4.1088,-3.9644,-4.013,-3.9922,-3.8564,-3.8416,-3.7846,-3.6573,-3.6519,-3.5797,-3.4414,-3.4336,-3.4007,-3.3403,-3.2568,-3.2246,-3.2347,-3.2916,-3.3237,-3.3389,-3.4878,-3.5876,-3.6535,-3.7297,-3.7149,-3.6419,-3.5819,-3.5552,-3.5334,-3.465,-3.4816,-3.5415,-3.5415,-3.5444,-3.5504,-3.5504,-3.5504,-3.5504,-3.5504,-3.5504,-3.5504,-3.5504,-3.4124,-3.2593,-3.2593,-3.1206,-2.9792,-2.9792,-2.9792,-2.9792,-2.9792,-2.9792,-2.9792,-2.9792,-2.9792,-2.9792,-2.9792,-2.9792,-2.9792,-2.9792,-2.9792,-2.9792,-2.9792,-2.9792,-2.9792,-2.9792,-2.9792,-2.9792,-2.9792,-2.9792,-2.9792,-2.9792,-2.8858,-2.8176,-2.7924,-2.7844,-2.6849,-2.4872,-2.4702,-2.4125,-2.3135,-2.3135,-2.3555,-2.4365,-2.4365,-2.4834,-3.5563,-3.6588,0.0,0.0,-4.3014,-4.4587,-4.4587,-4.449,-4.3948,-4.2632,-4.2686,-4.2961,-4.2946,-4.2586,-4.2346,-4.2496,-4.2406,-4.2372,-4.2481,-4.2245,-4.2098,-4.2225,-4.1968,-4.1522,-4.0763,-4.0831,-4.0359,-3.9007,-3.8951,-3.8339,-3.6956,-3.6396,-3.5682,-3.48,-3.4337,-3.3956,-3.3629,-3.3042,-3.2978,0.0,-3.2053,-3.1732,-3.2313,-3.185,-3.1985,-3.2611,-3.41,-3.4506,-3.4184,-3.4928,-3.5127,-3.4968,-3.4897,-3.4797,-3.4731,-3.3955,-3.4128,-3.4696,-3.4696,-3.5055,-3.5504,-3.5504,-3.5504,-3.5504,-3.5504,-3.5504,-3.5504,-3.5504,-3.4124,-3.2593,-3.2593,-3.1206,-2.9792,-2.9792,-2.9792,-2.9792,-2.9792,-2.9792,-2.9792,-2.9792,-2.9792,-2.9792,-2.9792,-2.9792,-2.9792,-2.9792,-2.9792,-2.9792,-2.9792,-2.9792,-2.9792,-2.9792,-2.9792,-2.9792,-2.9792,-2.9792,-2.9792,-2.9792,-2.9534,-2.8621,-2.6883,-2.5953,-2.5284,-2.4787,-2.3877,-2.3299,-2.3135,-2.3135,-2.3408,-2.3926,-2.3926,-2.4385,-3.5208,0.0,0.0,-4.0384,0.0,-4.3927,-4.3572,-4.2909,-4.2044,-4.0898,-4.1249,-4.1687,-4.1322,-4.1187,-4.1153,-4.1153,-4.1053,-4.1096,-4.1332,-4.1149,-4.1077,-4.1338,-4.0832,-4.0189,-3.943,-3.935,-3.8734,-3.7124,-3.7279,-3.6833,-3.5377,-3.4962,-3.4454,-3.3835,-3.3208,-3.2876,-3.2849,-3.1788,-3.1421,-3.1816,-3.1038,-3.0869,-3.1241,-3.1207,-3.1596,-3.2324,-3.3102,-3.3423,-3.3457,-3.4201,-3.4489,-3.4459,-3.4217,-3.4334,-3.4473,-3.3434,-3.344,-3.4008,-3.4008,-3.4247,-3.4547,-3.4547,-3.4756,-3.5011,-3.5011,-3.525,-3.5504,-3.5504,-3.4124,-3.2593,-3.2593,-3.1206,-2.9792,-2.9792,-2.9792,-2.9792,-2.9792,-2.9792,-2.9792,-2.9792,-2.9792,-2.9792,-2.9792,-2.9792,-2.9792,-2.9792,-2.9792,-2.9792,-2.9792,-2.9792,-2.9792,-2.9792,-2.9792,-2.9792,-2.9792,-2.9792,-2.9792,-2.9792,-2.9792,-2.9287,-2.8131,-2.6953,-2.5619,-2.4049,-2.3387,-2.3135,-2.3135,-2.3135,-2.3359,-2.3789,-2.3789,-2.4141,-3.4756,0.0,-3.6909,-4.0343,-4.2022,0.0,-4.2405,-4.1627,-4.0832,-4.0206,-4.0593,-4.0828,-4.0223,-4.007,-4.007,-4.007,-4.007,-4.0206,-4.0561,-4.0189,-4.002,-4.0358,-3.9362,-3.8305,-3.7585,-3.7407,-3.6627,-3.5004,-3.5345,-3.5062,-3.3847,-3.3537,-3.3223,-3.2835,-3.2115,-3.173,-3.173,-3.0387,-2.9786,-2.9922,-2.9922,-2.9922,-2.9939,-3.0666,-3.1326,-3.1918,-3.2036,-3.2459,-3.3085,-3.3947,-3.4235,-3.4115,-3.3713,-3.387,-3.4075,-3.2768,-3.2766,-3.332,-3.332,-3.3395,-3.3499,-3.3499,-3.3858,-3.4307,-3.4307,-3.4786,-3.5325,-3.5325,-3.4037,-3.2593,-3.2593,-3.1206,-2.9792,-2.9792,-2.9792,-2.9792,-2.9792,-2.9792,-2.9792,-2.9792,-2.9792,-2.9792,-2.9792,-2.9792,-2.9792,-2.9792,-2.9792,-2.9792,-2.9792,-2.9792,-2.9792,-2.9792,-2.9792,-2.9792,-2.9792,-2.9792,-2.9792,-2.9792,-2.9624,-2.9456,-2.9209,-2.8108,-2.6108,-2.3135,-2.3299,-2.3299,-2.3135,-2.3135,-2.332,-2.3682,-2.3682,-2.3906,0.0,0.0,-3.8189,0.0,-4.0849,-4.0862,0.0,0.0,-4.0206,0.0,-4.0172,-4.0223,-4.0104,-4.007,-4.007,-4.007,-4.007,-3.9885,-3.9345,-3.9194,-3.8959,-3.8388,-3.7569,-3.677,-3.5975,-3.5335,-3.4594,-3.3734,-3.3128,-3.2758,-3.2542,-3.1342,-3.0602,-3.0551,-2.9847,-2.9417,-2.9417,-2.8552,-2.8467,-2.9127,-2.9127,-2.9127,-2.9161,-2.9905,-3.0311,-3.0429,-3.1072,-3.1393,-3.1596,-3.2983,-3.3169,-3.2681,-3.334,-3.3278,-3.2708,-3.1916,-3.2078,-3.2647,-3.2647,-3.3021,-3.3499,-3.3499,-3.3559,-3.3619,-3.3619,-3.4083,-3.4607,-3.4607,-3.3677,-3.2593,-3.2593,-3.1206,-2.9792,-2.9792,-2.9792,-2.9792,-2.9792,-2.9792,-2.9792,-2.9792,-2.9792,-2.9792,-2.9792,-2.9792,-2.9792,-2.9792,-2.9792,-2.9792,-2.9792,-2.9792,-2.9792,-2.9792,-2.9792,-2.9792,-2.9792,-2.9792,-2.9792,-2.9792,-2.8858,-2.7947,-2.6976,-2.588,-2.4542,-2.3135,-2.4049,-2.4125,-2.3135,-2.3135,-2.3164,-2.3223,-2.3223,-2.3457,-3.3211,-3.5435,-3.748,0.0,-3.9365,-4.0178,-4.035,0.0,-4.007,-4.007,-4.007,-4.007,-4.007,-4.007,-3.9969,-3.9564,-3.9463,-3.9228,-3.8472,-3.8381,-3.8116,-3.7385,-3.6622,-3.584,-3.5044,-3.4328,-3.3684,-3.3203,-3.2889,-3.2325,-3.1445,-3.0793,-3.0122,-2.9505,-2.874,-2.8535,-2.9011,-2.7791,-2.7571,-2.8332,-2.8772,-2.8755,-2.8349,-2.9127,-2.9482,-2.9533,-3.07,-3.097,-3.07,-3.2171,-3.2577,-3.236,-3.2772,-3.278,-3.2403,-3.1764,-3.1719,-3.1958,-3.1958,-3.2153,-3.2392,-3.2392,-3.2647,-3.2946,-3.2946,-3.3664,-3.4472,-3.4472,-3.3966,-3.3241,-3.2749,-3.1609,-3.0419,-2.9934,-2.9792,-2.9792,-2.9792,-2.9792,-2.9792,-2.9792,-2.9792,-2.9792,-2.9792,-2.9792,-2.9792,-2.9792,-2.9792,-2.9792,-2.9792,-2.9792,-2.9792,-2.9792,-2.9792,-2.9792,-2.9792,-2.9197,-2.8858,-2.8858,-2.7775,-2.6964,-2.6483,-2.6058,-2.521,-2.4039,-2.3877,-2.3637,-2.3135,-2.3135,-2.3135,-2.3135,-2.3135,-2.3242,0.0,0.0,-3.6091,-3.6538,-3.8115,-3.9483,0.0,0.0,-4.007,0.0,-4.007,-4.007,-4.007,-4.007,-3.9851,-3.9143,-3.8991,-3.8685,-3.775,-3.7623,-3.7285,-3.6344,-3.5518,-3.4729,-3.4024,-3.3287,-3.2774,-3.2581,-3.2525,-3.2064,-3.0874,-3.0449,-2.9884,-2.9045,-2.8044,-2.7824,-2.8399,-2.7266,-2.6979,-2.7554,-2.8129,-2.8197,-2.7806,-2.8416,-2.8789,-2.9042,-3.0142,-3.0446,-3.0226,-3.1681,-3.2313,-3.2309,-3.2441,-3.2497,-3.2406,-3.1588,-3.1339,-3.1452,-3.133,-3.139,-3.1482,-3.1482,-3.1869,-3.2273,-3.2273,-3.3066,-3.4008,-3.4188,-3.3849,-3.3265,-3.2778,-3.1756,-3.0696,-3.0011,-2.9792,-2.9792,-2.9792,-2.9792,-2.9792,-2.9792,-2.9792,-2.9792,-2.9792,-2.9792,-2.9792,-2.9792,-2.9792,-2.9792,-2.9792,-2.9792,-2.9792,-2.9792,-2.9792,-2.9792,-2.9792,-2.9028,-2.8518,-2.8518,-2.7209,-2.6483,-2.6483,-2.5975,-2.5221,-2.4372,-2.3551,-2.3135,-2.3135,-2.3135,-2.3135,-2.3135,-2.3135,-2.3135,0.0,-3.3126,0.0,-3.626,-3.737,0.0,0.0,0.0,-4.007,-4.007,-4.007,-4.007,-4.007,-4.007,-3.9851,-3.9143,-3.902,-3.8522,-3.7047,-3.6859,-3.6282,-3.4807,-3.3972,-3.3208,-3.2491,-3.1771,-3.1314,-3.1297,-3.1297,-3.128,-3.1196,-2.9858,-2.9062,-2.9011,-2.7537,-2.6776,-2.681,-2.6725,-2.6708,-2.6759,-2.6793,-2.7165,-2.7789,-2.7823,-2.8281,-2.9011,-2.9059,-2.9482,-3.0226,-3.1681,-3.2313,-3.2317,-3.237,-3.2463,-3.2344,-3.1021,-3.0967,-3.1377,-3.0791,-3.0986,-3.1482,-3.1482,-3.1497,-3.1526,-3.1526,-3.2063,-3.2751,-3.3365,-3.2645,-3.1875,-3.2455,-3.1267,-2.9869,-2.9792,-2.9792,-2.9792,-2.9792,-2.9792,-2.9792,-2.9792,-2.9792,-2.9792,-2.9792,-2.9792,-2.9792,-2.9792,-2.9792,-2.9792,-2.9792,-2.9792,-2.9792,-2.9792,-2.9792,-2.9792,-2.9792,-2.9714,-2.9702,-2.9702,-2.7718,-2.6483,-2.6483,-2.4392,-2.3222,-2.3222,-2.3135,-2.3135,-2.3135,-2.3135,-2.3135,-2.3135,-2.3135,-2.3135,0.0,0.0,0.0,-3.5016,-3.5859,-3.6672,-3.7646,-3.8262,-3.8639,-3.8605,-3.8623,-3.8623,-3.8623,-3.943,-3.9682,-3.8472,-3.8299,-3.7751,-3.6231,-3.6034,-3.5656,-3.4628,-3.426,-3.364,-3.2439,-3.2071,-3.1698,-3.1224,-3.119,-3.0784,-2.982,-2.9279,-2.8571,-2.7554,-2.6979,-2.6691,-2.6691,-2.6691,-2.6691,-2.6708,-2.7689,-2.8044,-2.7806,-2.8332,-2.8721,-2.9011,-2.9011,-2.9414,-3.0226,-3.1681,-3.2002,-3.1692,-3.2696,-3.2315,-3.1198,-3.1665,-3.1158,-3.0357,-3.0956,-3.1046,-3.0941,-3.139,-3.1482,-3.1556,-3.2033,-3.2332,-3.2736,-3.3829,-3.3098,-3.2108,-3.2485,-3.1428,-3.0132,-2.9845,-2.9792,-2.9792,-2.9792,-2.9792,-2.9792,-2.9792,-2.9792,-2.9792,-2.9792,-2.9792,-2.9792,-2.9792,-2.9792,-2.9792,-2.9792,-2.9792,-2.9792,-2.9792,-2.9792,-2.9792,-2.9792,-2.9106,-2.845,-2.7718,-2.6213,-2.5052,-2.4392,-2.356,-2.3135,-2.3135,-2.3135,-2.3135,-2.3135,-2.3135,-2.3135,-2.3135,-2.3135,-2.3135,-3.2751,0.0,0.0,0.0,0.0,-3.5515,-3.6398,0.0,-3.7541,-3.7728,-3.7798,-3.7715,-3.7513,-3.8307,-3.8652,-3.7684,-3.7533,-3.7103,-3.5802,-3.5622,-3.5329,-3.4594,-3.4482,-3.4028,-3.2805,-3.2434,-3.2105,-3.1613,-3.1331,0.0,-2.9414,-2.911,-2.8352,-2.6957,-2.6791,-2.6741,-2.6906,-2.6758,-2.6691,-2.6708,-2.7723,-2.8078,-2.7789,-2.8095,-2.8636,-2.9347,-2.9093,-2.955,-3.0565,-3.1782,-3.229,-3.2367,-3.3178,-3.2632,-3.1533,-3.2053,-3.1359,-3.0328,-3.0971,-3.1046,-3.0926,-3.139,-3.1482,-3.1556,-3.2048,-3.2183,-3.2452,-3.3784,-3.3221,-3.2233,-3.25,-3.1414,-3.0119,-2.9845,-2.9792,-2.9792,-2.9792,-2.9792,-2.9792,-2.9792,-2.9792,-2.9792,-2.9792,-2.9792,-2.9792,-2.9792,-2.9792,-2.9792,-2.9792,-2.9792,-2.9792,-2.9792,-2.9792,-2.9792,-2.9792,-2.9106,-2.8359,-2.7637,-2.6532,-2.5368,-2.4307,-2.3887,-2.3464,-2.3135,-2.3135,-2.3135,-2.3135,-2.3135,-2.3135,-2.3135,-2.3135,-2.3135,0.0,0.0,0.0,0.0,0.0,0.0,-3.6213,0.0,-3.6902,-3.7582,-3.7726,-3.7535,-3.6827,-3.6732,-3.6693,-3.6623,-3.669,-3.6446,-3.5656,-3.5543,-3.5313,-3.4594,-3.4499,-3.4253,-3.3494,-3.2807,-3.2366,-3.2298,-3.1647,-3.0903,-3.0142,-2.9364,-2.8441,-2.7324,-2.6906,-2.6873,-2.7272,-2.6906,-2.6691,-2.6691,-2.6708,-2.7114,-2.7755,-2.708,-2.7994,-3.0074,-2.933,-2.9854,-3.1275,-3.2019,-3.3152,-3.437,-3.3728,-3.3495,-3.3358,-3.203,-3.1482,-3.139,-3.0746,-3.0956,-3.1452,-3.1467,-3.1482,-3.1482,-3.1497,-3.1497,-3.1839,-3.3155,-3.2834,-3.2154,-3.2402,-3.1119,-2.9792,-2.9792,-2.9792,-2.9792,-2.9792,-2.9792,-2.9792,-2.9792,-2.9792,-2.9792,-2.9792,-2.9792,-2.9792,-2.9792,-2.9792,-2.9792,-2.9792,-2.9792,-2.9792,-2.9792,-2.9792,-2.9792,-2.9792,-2.9792,-2.9792,-2.9792,-2.8688,-2.7602,-2.6483,-2.5378,-2.4296,-2.3135,-2.3135,-2.3135,-2.3135,-2.3135,-2.3135,-2.3135,-2.3135,-2.3135,-3.3455,0.0,0.0,0.0,0.0,0.0,0.0,0.0,-3.5339,-3.598,-3.6153,-3.5937,-3.525,-3.5154,-3.4991,-3.4476,-3.4889,-3.5004,-3.427,-3.4578,-3.4807,-3.4611,-3.4987,-3.5004,-3.427,-3.4017,-3.3474,0.0,-3.2123,-3.1427,-3.0176,-2.8856,-2.7724,-2.6908,-2.6758,-2.6758,-2.6873,-2.6758,-2.6691,-2.6708,-2.7249,-2.7621,-2.7806,-2.818,-2.8991,-3.0091,-2.9888,-3.0632,-3.2036,-3.278,-3.3017,-3.3034,-3.4455,-3.3806,-3.2142,-3.2766,-3.1768,-3.0223,-3.0986,-3.1046,-3.0866,-3.1317,-3.1482,-3.1556,-3.2093,-3.2243,-3.2512,-3.3844,-3.2759,-3.0977,-3.0157,-2.9897,-2.9792,-2.9792,-2.9792,-2.9792,-2.9792,-2.9792,-2.9792,-2.9792,-2.9792,-2.9792,-2.9792,-2.9792,-2.9792,-2.9792,-2.9792,-2.9792,-2.9792,-2.9792,-2.9792,-2.9792,-2.9792,-2.9792,-2.9792,-2.9792,-2.9456,-2.8597,-2.8255,-2.7267,-2.5378,-2.4957,-2.4296,-2.3135,-2.3135,-2.3135,-2.3135,-2.3135,-2.3135,-2.3135,-2.3135,-2.3135,-3.4083,-3.3903,-3.3844,-3.3559,0.0,0.0,-3.3829,-3.4065,-3.4271,0.0,-3.507,-3.4887,-3.4242,-3.3833,-3.3456,-3.2755,-3.3307,-3.3724,-3.3593,-3.3919,-3.4203,-3.4168,-3.4774,-3.5004,-3.4594,-3.4499,-3.4011,-3.2836,-3.2445,-3.1642,-3.0176,-2.8958,-2.8013,-2.7434,-2.7267,-2.7097,-2.6971,-2.6774,-2.6691,-2.6708,-2.7148,-2.7351,-2.7385,-2.8146,-2.8924,-2.9651,-2.9973,-3.0768,-3.1884,-3.2628,-3.3034,-3.3339,-3.4641,-3.4021,-3.2462,-3.3278,-3.222,-3.0507,-3.127,-3.127,-3.1001,-3.1347,-3.1482,-3.1541,-3.1988,-3.2302,-3.2736,-3.3769,-3.2869,-3.128,-3.016,-2.9809,-2.9792,-2.9792,-2.9792,-2.9792,-2.9792,-2.9792,-2.9792,-2.9792,-2.9792,-2.9792,-2.9792,-2.9792,-2.9792,-2.9792,-2.9792,-2.9792,-2.9792,-2.9792,-2.9792,-2.9792,-2.9792,-2.9792,-2.9792,-2.9365,-2.8767,-2.8176,-2.7683,-2.6614,-2.4872,-2.4787,-2.4296,-2.3135,-2.3135,-2.3135,-2.3135,-2.3135,-2.3135,-2.3135,-2.3135,-2.3135,-3.4756,-3.4532,-3.4337,-3.3754,-3.311,0.0,-3.3365,-3.3511,-3.365,0.0,-3.4416,-3.4203,-3.3475,-3.299,-3.2412,-3.1717,-3.2161,-3.2828,-3.3426,-3.3606,-3.3638,-3.3578,-3.4184,-3.4585,-3.4583,-3.4578,-3.4202,-3.3448,-3.2655,-3.155,-3.0176,-2.9465,-2.8917,-2.8472,-2.81,-2.7743,-2.7362,-2.6993,-2.6776,-2.6691,-2.6776,-2.6826,-2.6843,-2.7689,-2.845,-2.9144,-2.9905,-3.0598,-3.1258,-3.1985,-3.3102,-3.4387,-3.4368,-3.406,-3.3582,-3.3547,-3.2664,-3.1482,-3.1482,-3.1482,-3.1482,-3.1482,-3.1482,-3.1482,-3.1482,-3.1988,-3.2602,-3.3134,-3.2915,-3.2239,-3.1315,-3.0419,-2.9792,-2.9792,-2.9792,-2.9792,-2.9792,-2.9792,-2.9792,-2.9792,-2.9792,-2.9792,-2.9792,-2.9792,-2.9792,-2.9792,-2.9792,-2.9792,-2.9792,-2.9792,-2.9792,-2.9792,-2.9792,-2.9792,-2.9624,-2.8676,-2.8016,-2.7936,-2.7046,-2.5975,-2.4872,-2.4787,-2.4296,-2.3135,-2.3135,-2.3135,-2.3135,-2.3135,-2.3135,-2.3135,-2.3184,-2.3184,-3.534,-3.4906,-3.4442,-3.4322,-3.3784,0.0,-3.3469,-3.3529,-3.3526,0.0,-3.3695,-3.3461,-3.2796,-3.3044,-3.3069,-3.2412,-3.2874,-3.3172,-3.2755,-3.3637,-3.4136,-3.359,-3.414,-3.4595,-3.4609,-3.4594,-3.4236,-3.3448,-3.2178,-3.1026,-3.0159,-2.9973,-2.957,-2.8915,-2.8827,-2.8418,-2.7691,-2.7622,-2.73,-2.6708,-2.73,-2.7604,-2.7638,-2.9025,-2.9753,-2.9939,-3.0666,-3.1072,-3.1258,-3.1985,-3.2814,-3.3634,-3.3689,-3.3664,-3.3531,-3.2986,-3.2272,-3.1482,-3.1482,-3.1482,-3.1482,-3.1482,-3.1482,-3.1482,-3.1482,-3.1988,-3.2435,-3.2033,-3.1902,-3.1507,-3.0379,-2.9934,-2.9792,-2.9792,-2.9792,-2.9792,-2.9792,-2.9792,-2.9792,-2.9792,-2.9792,-2.9792,-2.9792,-2.9792,-2.9792,-2.9792,-2.9792,-2.9792,-2.9792,-2.9792,-2.9792,-2.9792,-2.9792,-2.9443,-2.8505,-2.8255,-2.7763,-2.6883,-2.6637,-2.5975,-2.4872,-2.4787,-2.4296,-2.3135,-2.3135,-2.3135,-2.3135,-2.3135,-2.3135,-2.3144,-2.3496,-2.3477,-3.5504,-3.525,-3.4906,-3.4562,-3.4233,0.0,0.0,-3.326,-3.3499,-3.3514,-3.3242,-3.3005,-3.2983,-3.3008,-3.2881,-3.2568,-3.3077,-3.3514,-3.3514,-3.3817,-3.3726,-3.3092,-3.359,-3.3948,-3.3607,-3.4197,-3.4257,-3.3468,-3.2038,-3.1038,-3.0666,-3.0649,-3.0311,-2.9567,-2.955,-2.9178,-2.8416,-2.8399,-2.8213,-2.7841,-2.8213,-2.8399,-2.8433,-2.9583,-3.0108,-3.0142,-3.0886,-3.119,-3.1224,-3.1596,-3.2171,-3.2908,-3.3338,-3.3519,-3.3547,-3.2841,-3.212,-3.1482,-3.1482,-3.1482,-3.1482,-3.1482,-3.1482,-3.1482,-3.1482,-3.1988,-3.2389,-3.1772,-3.1626,-3.1287,-3.0139,-2.9792,-2.9792,-2.9792,-2.9792,-2.9792,-2.9792,-2.9792,-2.9792,-2.9792,-2.9792,-2.9792,-2.9792,-2.9792,-2.9792,-2.9792,-2.9792,-2.9792,-2.9792,-2.9792,-2.9792,-2.9792,-2.9792,-2.9534,-2.9028,-2.7947,-2.7046,-2.6554,-2.5389,-2.4553,-2.3963,-2.3963,-2.3714,-2.3135,-2.3135,-2.3135,-2.3135,-2.3135,-2.3135,-2.3154,-2.3584,-2.3672,-3.5504,-3.5504,-3.537,-3.4816,-3.4666,-3.4367,0.0,0.0,0.0,-3.3367,0.0,0.0,-3.3041,0.0,0.0,0.0,0.0,0.0,0.0,-3.3962,0.0,-3.2956,-3.3155,-3.3172,-3.2828,-3.3655,-3.3912,-3.3259,-3.1964,-3.1207,-3.119,-3.119,-3.092,-3.0345,-3.0311,-2.9956,-2.9211,-2.9194,-2.9127,-2.9011,-2.9127,-2.9194,-2.9228,-2.9973,-3.0311,-3.0362,-3.0937,-3.1275,-3.141,-3.141,-3.1793,-3.2387,-3.2908,-3.3226,-3.3304,-3.2633,-3.2007,-3.1482,-3.1482,-3.1482,-3.1482,-3.1482,-3.1482,-3.1482,-3.1482,-3.1781,-3.1985,-3.1383,-3.1144,-3.0764,-2.9871,-2.9628,-2.9654,-2.9767,-2.9792,-2.9792,-2.9792,-2.9792,-2.9792,-2.9792,-2.9792,-2.9792,-2.9792,-2.9792,-2.9792,-2.9792,-2.9792,-2.9792,-2.9792,-2.9792,-2.9702,-2.9534,-2.9456,-2.9287,-2.887,-2.7221,-2.6058,-2.5891,-2.4145,-2.3135,-2.3135,-2.3135,-2.3184,-2.3262,-2.3184,-2.3184,-2.3262,-2.3184,-2.3135,-2.3154,-2.3672,-2.3867,-3.5504,0.0,0.0,0.0,-3.5385,-3.519,-3.4427,0.0,-3.4023,-3.2841,0.0,-3.2347,-3.1822,0.0,0.0,0.0,0.0,0.0,-3.368,-3.4053,-3.4395,-3.4286,-3.3306,-3.2844,-3.3337,-3.298,-3.2673,-3.2508,-3.175,-3.1257,-3.1185,-3.119,-3.1157,-3.1072,-3.1072,-3.0717,-2.9989,-2.9989,-2.9651,-2.8991,-2.9651,-2.9989,-3.0006,-3.0734,-3.1072,-3.1072,-3.1157,-3.1562,-3.2195,-3.2195,-3.227,-3.2442,-3.1837,-3.2046,-3.2549,-3.1891,-3.1582,-3.1482,-3.1482,-3.1482,-3.1482,-3.1482,-3.1482,-3.1482,-3.1482,-3.1073,-3.0452,-3.0109,-2.943,-2.8878,-2.8961,-2.9026,-2.9151,-2.9666,-2.9792,-2.9792,-2.9792,-2.9792,-2.9792,-2.9792,-2.9792,-2.9792,-2.9792,-2.9792,-2.9792,-2.9792,-2.9792,-2.9792,-2.9792,-2.9792,-2.9443,-2.8426,-2.8267,-2.7522,-2.5535,-2.5126,-2.4542,-2.3551,-2.3222,-2.3135,-2.3135,-2.3135,-2.332,-2.3711,-2.333,-2.333,-2.3711,-2.333,-2.3135,-2.3154,-2.3975,-2.4141,0.0,0.0,0.0,0.0,0.0,0.0,-3.4637,0.0,-3.4322,-3.3769,0.0,0.0,0.0,0.0,0.0,0.0,-3.2959,0.0,0.0,0.0,-3.2914,0.0,0.0,0.0,-3.2415,-3.2064,-3.1703,-3.131,-3.129,-3.111,-3.0692,-3.1015,-3.119,-3.119,-3.119,-3.1055,-3.0734,-3.0734,-3.0581,-3.0277,-3.0581,-3.0734,-3.0751,-3.1055,-3.119,-3.119,-3.119,-3.1376,-3.1647,-3.129,-3.1148,-3.1145,-3.0545,-3.0741,-3.1381,-3.1046,-3.0941,-3.1001,-3.1405,-3.1482,-3.1482,-3.1482,-3.1482,-3.1409,-3.097,-3.0584,-3.014,-2.925,-2.901,-2.9,-2.8935,-2.9176,-2.949,-2.9729,-2.9792,-2.9792,-2.9792,-2.9792,-2.9792,-2.9792,-2.9792,-2.9792,-2.9792,-2.9792,-2.9792,-2.9792,-2.9792,-2.9792,-2.9792,-2.9792,-2.9624,-2.9118,-2.8505,-2.7752,-2.6767,-2.5535,-2.4628,-2.4125,-2.3464,-2.3135,-2.3135,-2.3135,-2.3223,-2.3408,-2.3232,-2.3232,-2.3408,-2.3232,-2.3135,-2.3164,-2.4014,-2.4316,-3.5067,0.0,0.0,0.0,0.0,0.0,0.0,0.0,0.0,0.0,-3.3724,0.0,0.0,0.0,0.0,0.0,0.0,-3.2824,0.0,-3.2243,0.0,0.0,0.0,0.0,0.0,-3.1504,-3.1166,-3.0561,-3.0875,-3.0851,-3.0342,-3.0699,-3.1015,-3.119,-3.119,-3.119,-3.119,-3.119,-3.119,-3.119,-3.119,-3.119,-3.119,-3.119,-3.119,-3.119,-3.119,-3.1213,-3.1204,-3.0559,-3.0238,-3.0041,-2.9453,-2.945,-2.9853,-3.0337,-3.0507,-3.0567,-3.1076,-3.1255,-3.1285,-3.1422,-3.1351,-3.1087,-3.0464,-2.995,-2.9401,-2.8532,-2.8559,-2.8808,-2.8697,-2.9126,-2.9591,-2.9754,-2.9792,-2.9792,-2.9792,-2.9792,-2.9792,-2.9792,-2.9792,-2.9792,-2.9792,-2.9792,-2.9792,-2.9792,-2.9792,-2.9792,-2.9792,-2.9534,-2.9209,-2.8961,-2.7855,-2.7105,-2.6767,-2.5284,-2.4296,-2.4296,-2.3551,-2.3135,-2.3135,-2.3135,-2.3193,-2.332,-2.3203,-2.3193,-2.332,-2.3193,-2.3135,-2.3164,-2.4014,-2.4414,0.0,0.0,0.0,-3.5279,0.0,0.0,0.0,0.0,-3.528,0.0,0.0,0.0,0.0,0.0,0.0,-3.2591,0.0,0.0,0.0,0.0,-3.2725,-3.3426,0.0,0.0,0.0,-3.1496,-3.1228,-3.0531,-3.0499,-3.0448,-3.029,-3.0293,-3.0617,-3.119,-3.119,-3.119,-3.119,-3.119,-3.119,-3.119,-3.119,-3.119,-3.119,-3.119,-3.119,-3.119,-3.119,-3.1264,-3.1351,-3.0573,-3.0016,-2.9557,-2.8838,-2.8186,-2.791,-2.9789,-3.0507,-3.0507,-3.0522,-3.0537,-3.0657,-3.1315,-3.097,-3.0329,-3.0329,-2.9129,-2.7802,-2.7762,-2.7533,-2.7503,-2.7984,-2.8549,-2.9101,-2.9666,-2.9792,-2.9792,-2.9792,-2.9792,-2.9792,-2.9792,-2.9792,-2.9792,-2.9792,-2.9792,-2.9792,-2.9792,-2.9792,-2.9792,-2.9792,-2.8858,-2.7775,-2.6719,-2.5546,-2.4457,-2.3387,-2.3222,-2.3135,-2.3135,-2.3135,-2.3135,-2.3135,-2.3135,-2.334,-2.376,-2.335,-2.335,-2.3769,-2.335,-2.3135,-2.3164,-2.4014,-2.4414,0.0,0.0,-3.331,-3.4259,0.0,0.0,0.0,0.0,0.0,0.0,0.0,0.0,0.0,0.0,0.0,0.0,0.0,0.0,0.0,-3.0644,-3.025,-3.0498,-3.1304,-3.1569,0.0,0.0,-3.0391,-2.9337,-2.9607,-2.9597,-2.9121,-2.9865,-3.0377,-3.0617,-3.1015,-3.119,-3.119,-3.119,-3.119,-3.119,-3.119,-3.119,-3.119,-3.119,-3.119,-3.119,-3.0797,-3.0609,-3.0596,-2.9547,-2.9014,-2.8821,-2.8183,-2.776,-2.7709,-2.8831,-2.9235,-2.9355,-3.0208,-3.0507,-3.0499,-3.0676,-3.0524,-3.0072,-2.8939,-2.8182,-2.7604,-2.704,-2.7119,-2.7318,-2.7507,-2.8235,-2.8976,-2.9176,-2.9515,-2.9792,-2.9792,-2.9792,-2.9792,-2.9792,-2.9792,-2.9792,-2.9792,-2.9792,-2.9792,-2.9792,-2.9792,-2.9534,-2.8767,-2.8347,-2.7683,-2.6637,-2.5462,-2.4617,-2.4296,-2.3551,-2.3135,-2.3135,-2.3135,-2.3135,-2.3135,-2.3135,-2.3213,-2.3359,-2.3213,-2.3213,-2.3359,-2.3213,-2.3135,-2.3154,-2.373,-2.415,-3.2105,-3.2105,0.0,-3.3241,-3.3518,0.0,-3.4758,0.0,-3.4986,0.0,0.0,0.0,0.0,0.0,0.0,0.0,0.0,0.0,0.0,-2.9572,-2.9016,-2.9016,-2.9941,-3.0495,-3.0112,-3.0306,-2.9941,-2.8711,-2.9154,-2.9234,0.0,-2.9225,-2.9761,-2.9978,-3.0576,-3.0878,-3.0878,-3.1095,-3.119,-3.119,-3.119,-3.119,-3.119,-3.0975,-3.0878,-3.0838,-3.0251,-2.9848,-2.9585,-2.8826,-2.8367,-2.814,-2.776,-2.7625,-2.77,-2.8353,-2.8607,-2.8786,-3.0058,-3.0175,-2.9778,-3.0174,-2.9889,-2.9192,-2.8051,-2.7484,-2.7201,-2.6898,-2.7005,-2.7369,-2.777,-2.8398,-2.8976,-2.9189,-2.9528,-2.9792,-2.9792,-2.9792,-2.9792,-2.9792,-2.9792,-2.9792,-2.9792,-2.9792,-2.9792,-2.9792,-2.9792,-2.9365,-2.8267,-2.7763,-2.7116,-2.6047,-2.4882,-2.4211,-2.4211,-2.3551,-2.3135,-2.3135,-2.3135,-2.3135,-2.3135,-2.3135,-2.3281,-2.3584,-2.3291,-2.3291,-2.3594,-2.3291,-2.3135,-2.3144,-2.3428,-2.3789]},{"header":{"parameterUnit":"m.s-1","parameterCategory":1,"la1":30.6,"la2":29.2853,"lo1":-89.7004,"lo2":-87.6739,"dy":0.0162,"dx":0.0183,"nx":112,"ny":82,"refTime":"2023-07-20T12:00:00:Z","depth":0,"parameterNumber":3,"parameterNumberName":"V-component_of_WINDS"},"data":[0.0,0.0,0.0,0.0,0.0,0.0,0.0,0.0,0.0,0.0,0.0,0.0,0.0,0.0,0.0,0.0,0.0,0.0,0.0,0.0,0.0,0.0,0.0,0.0,0.0,0.0,0.0,0.0,0.0,0.0,0.0,0.0,0.0,0.0,0.0,0.0,0.0,0.0,0.0,0.0,0.0,0.0,0.0,0.0,0.0,0.0,0.0,0.0,0.0,0.0,0.0,0.0,0.0,0.0,0.0,0.0,0.0,0.0,0.0,0.0,0.0,0.0,0.0,0.0,0.0,0.0,0.0,0.0,0.0,0.0,0.0,0.0,0.0,0.0,0.0,0.0,0.0,0.0,0.0,0.0,0.0,0.0,0.0,0.0,0.0,0.0,0.0,0.0,0.0,0.0,-2.7951,-3.0519,-3.0614,-3.0956,-3.2143,-3.2266,-3.3433,-3.6187,0.0,0.0,0.0,0.0,0.0,0.0,0.0,0.0,0.0,0.0,0.0,0.0,0.0,0.0,0.0,0.0,0.0,0.0,0.0,0.0,0.0,0.0,0.0,0.0,0.0,0.0,0.0,0.0,0.0,0.0,0.0,0.0,0.0,0.0,0.0,0.0,0.0,0.0,0.0,0.0,0.0,0.0,0.0,0.0,0.0,0.0,0.0,0.0,0.0,0.0,0.0,0.0,0.0,0.0,0.0,0.0,0.0,0.0,0.0,0.0,0.0,0.0,0.0,0.0,0.0,0.0,0.0,0.0,0.0,0.0,0.0,0.0,0.0,0.0,0.0,0.0,0.0,0.0,0.0,0.0,0.0,0.0,0.0,0.0,0.0,0.0,0.0,0.0,0.0,0.0,0.0,0.0,0.0,0.0,0.0,0.0,0.0,0.0,0.0,0.0,0.0,0.0,0.0,0.0,-3.0867,-3.4944,-3.1406,-3.1336,-3.7809,-3.8368,-3.7786,-3.647,0.0,0.0,0.0,0.0,0.0,0.0,0.0,0.0,0.0,0.0,0.0,0.0,0.0,0.0,0.0,0.0,0.0,0.0,0.0,0.0,0.0,0.0,0.0,0.0,0.0,0.0,0.0,0.0,0.0,0.0,0.0,0.0,0.0,0.0,0.0,0.0,0.0,0.0,0.0,0.0,0.0,0.0,0.0,0.0,0.0,0.0,0.0,0.0,0.0,0.0,0.0,0.0,0.0,0.0,0.0,0.0,0.0,0.0,0.0,0.0,0.0,0.0,0.0,0.0,0.0,0.0,0.0,0.0,0.0,0.0,0.0,0.0,0.0,0.0,0.0,0.0,0.0,0.0,0.0,0.0,0.0,0.0,0.0,0.0,0.0,0.0,0.0,0.0,0.0,0.0,0.0,0.0,0.0,0.0,0.0,0.0,0.0,0.0,0.0,0.0,0.0,0.0,0.0,-3.0855,-3.2816,-3.608,-3.4173,-3.4101,-3.7665,-3.9007,-3.8749,-3.6506,-3.0185,0.0,0.0,0.0,0.0,0.0,0.0,0.0,0.0,0.0,0.0,0.0,0.0,0.0,0.0,0.0,0.0,0.0,0.0,0.0,0.0,0.0,0.0,0.0,0.0,0.0,0.0,0.0,0.0,0.0,0.0,0.0,0.0,0.0,0.0,0.0,0.0,0.0,0.0,0.0,0.0,0.0,0.0,0.0,0.0,0.0,0.0,0.0,0.0,0.0,0.0,0.0,0.0,0.0,0.0,0.0,0.0,0.0,0.0,0.0,0.0,0.0,0.0,0.0,0.0,0.0,0.0,0.0,0.0,0.0,0.0,0.0,0.0,0.0,0.0,0.0,0.0,0.0,0.0,0.0,0.0,0.0,0.0,0.0,0.0,0.0,0.0,0.0,0.0,0.0,0.0,0.0,0.0,0.0,0.0,0.0,0.0,0.0,0.0,0.0,0.0,0.0,0.0,-3.1379,-3.3935,-3.6174,-3.6451,-3.6428,-3.6415,-3.8421,-3.9013,-3.7294,-3.0967,0.0,0.0,0.0,0.0,0.0,0.0,0.0,0.0,0.0,0.0,0.0,0.0,0.0,0.0,0.0,0.0,0.0,0.0,0.0,0.0,0.0,0.0,0.0,0.0,0.0,0.0,0.0,0.0,0.0,0.0,0.0,0.0,0.0,0.0,0.0,0.0,0.0,0.0,0.0,0.0,0.0,0.0,0.0,0.0,0.0,0.0,0.0,0.0,0.0,0.0,0.0,0.0,0.0,0.0,0.0,0.0,0.0,0.0,0.0,0.0,0.0,0.0,0.0,0.0,0.0,0.0,0.0,0.0,0.0,0.0,0.0,0.0,0.0,0.0,0.0,0.0,0.0,0.0,0.0,0.0,0.0,0.0,0.0,0.0,0.0,0.0,0.0,0.0,0.0,0.0,0.0,0.0,0.0,0.0,0.0,0.0,0.0,0.0,0.0,0.0,0.0,0.0,-3.0424,-3.3977,-3.6165,-3.6418,-3.64,-3.6351,-3.8477,-3.9631,-3.9526,-3.3217,0.0,0.0,0.0,0.0,0.0,0.0,0.0,0.0,0.0,0.0,0.0,0.0,0.0,0.0,0.0,0.0,0.0,0.0,0.0,0.0,0.0,0.0,0.0,0.0,0.0,0.0,0.0,0.0,0.0,0.0,0.0,0.0,0.0,0.0,0.0,0.0,0.0,0.0,0.0,0.0,0.0,0.0,0.0,0.0,0.0,0.0,0.0,0.0,0.0,0.0,0.0,0.0,0.0,0.0,0.0,0.0,0.0,0.0,0.0,0.0,0.0,0.0,0.0,0.0,0.0,0.0,0.0,0.0,0.0,0.0,0.0,0.0,0.0,0.0,0.0,0.0,0.0,0.0,0.0,0.0,0.0,0.0,0.0,0.0,0.0,0.0,0.0,0.0,0.0,0.0,0.0,0.0,0.0,0.0,0.0,0.0,0.0,0.0,0.0,0.0,0.0,0.0,-3.1229,-3.3425,-3.428,-3.4361,-3.4915,-3.627,-3.7137,-3.6483,-3.3671,0.0,0.0,0.0,0.0,0.0,0.0,0.0,0.0,0.0,0.0,0.0,0.0,0.0,0.0,0.0,0.0,0.0,0.0,0.0,0.0,0.0,0.0,0.0,0.0,0.0,0.0,0.0,0.0,0.0,0.0,0.0,0.0,0.0,0.0,0.0,0.0,0.0,0.0,0.0,0.0,0.0,0.0,0.0,0.0,0.0,0.0,0.0,0.0,0.0,0.0,0.0,0.0,0.0,0.0,0.0,0.0,0.0,0.0,0.0,0.0,0.0,0.0,0.0,0.0,0.0,0.0,0.0,0.0,0.0,0.0,0.0,0.0,0.0,0.0,0.0,0.0,0.0,0.0,0.0,0.0,0.0,0.0,0.0,0.0,0.0,0.0,0.0,0.0,0.0,0.0,0.0,0.0,0.0,0.0,0.0,0.0,0.0,0.0,0.0,0.0,0.0,0.0,-2.9554,-3.1144,-3.2313,-3.3032,-3.3116,-3.3722,-3.5226,-3.5957,-3.4803,-3.1089,0.0,0.0,0.0,0.0,0.0,0.0,0.0,0.0,0.0,0.0,0.0,0.0,0.0,0.0,0.0,0.0,0.0,0.0,0.0,0.0,0.0,0.0,0.0,0.0,0.0,0.0,0.0,0.0,0.0,0.0,0.0,0.0,0.0,0.0,0.0,0.0,0.0,0.0,0.0,0.0,0.0,0.0,0.0,0.0,0.0,0.0,0.0,0.0,0.0,0.0,0.0,0.0,0.0,0.0,0.0,0.0,0.0,0.0,0.0,0.0,0.0,0.0,0.0,0.0,0.0,0.0,0.0,0.0,0.0,0.0,0.0,0.0,0.0,0.0,0.0,0.0,0.0,0.0,0.0,0.0,0.0,0.0,0.0,0.0,0.0,0.0,0.0,0.0,0.0,0.0,0.0,0.0,0.0,0.0,0.0,0.0,0.0,0.0,0.0,0.0,0.0,0.0,-2.9503,-2.9801,-3.0648,-3.2846,-3.3162,-3.3144,-3.3104,-3.5149,-3.5473,0.0,0.0,0.0,0.0,0.0,0.0,0.0,0.0,0.0,0.0,0.0,0.0,0.0,0.0,0.0,0.0,0.0,0.0,0.0,0.0,0.0,0.0,0.0,0.0,0.0,0.0,0.0,0.0,0.0,0.0,0.0,0.0,0.0,0.0,0.0,0.0,0.0,0.0,0.0,0.0,0.0,0.0,0.0,0.0,0.0,0.0,0.0,0.0,0.0,0.0,0.0,0.0,0.0,0.0,0.0,0.0,0.0,0.0,0.0,0.0,0.0,0.0,0.0,0.0,0.0,0.0,0.0,0.0,0.0,0.0,0.0,0.0,0.0,0.0,0.0,0.0,0.0,0.0,0.0,0.0,0.0,0.0,0.0,0.0,0.0,0.0,0.0,0.0,0.0,0.0,0.0,0.0,0.0,0.0,0.0,0.0,0.0,0.0,0.0,0.0,0.0,0.0,0.0,-2.9491,-3.1156,-3.2422,-3.302,-3.4539,-3.5455,-3.5466,-3.5981,-3.5473,-3.3242,0.0,0.0,0.0,0.0,0.0,0.0,0.0,0.0,0.0,0.0,0.0,0.0,0.0,0.0,0.0,0.0,0.0,0.0,0.0,0.0,0.0,0.0,0.0,0.0,0.0,0.0,0.0,0.0,0.0,0.0,0.0,0.0,0.0,0.0,0.0,0.0,0.0,0.0,0.0,0.0,0.0,0.0,0.0,0.0,0.0,0.0,0.0,0.0,0.0,0.0,0.0,0.0,0.0,0.0,0.0,0.0,0.0,0.0,0.0,0.0,0.0,0.0,0.0,0.0,0.0,0.0,0.0,0.0,0.0,0.0,0.0,0.0,0.0,0.0,0.0,0.0,0.0,0.0,0.0,0.0,0.0,0.0,0.0,0.0,0.0,0.0,0.0,0.0,0.0,0.0,0.0,0.0,0.0,0.0,0.0,0.0,0.0,0.0,0.0,0.0,0.0,0.0,-2.9479,-3.1698,-3.3097,-3.3121,-3.5047,-3.6404,-3.643,-3.6376,-3.5455,-3.3259,0.0,0.0,0.0,0.0,0.0,0.0,0.0,0.0,0.0,0.0,0.0,0.0,0.0,0.0,0.0,0.0,0.0,0.0,0.0,0.0,0.0,0.0,0.0,0.0,0.0,0.0,0.0,0.0,0.0,0.0,0.0,0.0,0.0,0.0,0.0,0.0,0.0,0.0,0.0,0.0,0.0,0.0,0.0,0.0,0.0,0.0,0.0,0.0,0.0,0.0,0.0,0.0,0.0,0.0,0.0,0.0,0.0,0.0,0.0,0.0,0.0,0.0,0.0,0.0,0.0,0.0,0.0,0.0,0.0,0.0,0.0,0.0,0.0,0.0,0.0,0.0,0.0,0.0,0.0,0.0,0.0,0.0,0.0,0.0,0.0,0.0,0.0,0.0,0.0,0.0,0.0,0.0,0.0,0.0,0.0,0.0,0.0,0.0,0.0,0.0,0.0,0.0,-2.9514,-3.1693,-3.3177,-3.3408,-3.5239,-3.6477,-3.6729,-3.6546,-3.5555,-3.3566,0.0,0.0,0.0,0.0,0.0,0.0,0.0,0.0,0.0,0.0,0.0,0.0,0.0,0.0,0.0,0.0,0.0,0.0,0.0,0.0,0.0,0.0,0.0,0.0,0.0,0.0,0.0,0.0,0.0,0.0,0.0,0.0,0.0,0.0,0.0,0.0,0.0,0.0,0.0,0.0,0.0,0.0,0.0,0.0,0.0,0.0,0.0,0.0,0.0,0.0,0.0,0.0,0.0,0.0,0.0,0.0,0.0,0.0,0.0,0.0,-2.4497,0.0,0.0,0.0,0.0,0.0,0.0,0.0,0.0,0.0,0.0,0.0,0.0,0.0,0.0,0.0,0.0,0.0,0.0,0.0,0.0,0.0,0.0,0.0,0.0,0.0,0.0,0.0,0.0,0.0,0.0,0.0,0.0,0.0,0.0,0.0,0.0,0.0,0.0,0.0,0.0,0.0,-2.9514,-3.1751,-3.3776,-3.5499,-3.6112,-3.7151,-3.8858,-3.7402,-3.6233,-3.5736,-3.4844,0.0,0.0,0.0,0.0,0.0,0.0,0.0,0.0,0.0,0.0,0.0,0.0,0.0,0.0,0.0,0.0,0.0,0.0,0.0,0.0,0.0,0.0,0.0,0.0,0.0,0.0,0.0,0.0,0.0,0.0,0.0,0.0,0.0,0.0,0.0,0.0,0.0,0.0,0.0,0.0,0.0,0.0,0.0,0.0,0.0,0.0,0.0,0.0,0.0,0.0,0.0,0.0,0.0,0.0,0.0,0.0,0.0,0.0,0.0,0.0,-2.4648,0.0,0.0,0.0,0.0,0.0,0.0,0.0,0.0,0.0,0.0,0.0,0.0,0.0,0.0,0.0,0.0,0.0,0.0,0.0,0.0,0.0,0.0,0.0,0.0,0.0,0.0,0.0,0.0,0.0,0.0,0.0,0.0,0.0,0.0,0.0,0.0,0.0,0.0,0.0,0.0,-2.9659,-3.1707,-3.399,-3.6187,-3.7365,-3.8411,-3.9586,-3.969,-3.9757,-3.9696,-3.8225,0.0,0.0,0.0,0.0,0.0,0.0,0.0,0.0,0.0,0.0,0.0,0.0,0.0,0.0,0.0,0.0,0.0,0.0,0.0,0.0,0.0,0.0,0.0,0.0,0.0,0.0,0.0,0.0,0.0,0.0,0.0,0.0,0.0,0.0,0.0,0.0,0.0,0.0,0.0,0.0,0.0,0.0,0.0,0.0,0.0,0.0,0.0,0.0,0.0,0.0,0.0,0.0,0.0,-2.9893,-3.0518,-3.1211,-3.084,-3.0254,-2.9636,-2.7464,-2.6238,-2.5643,-2.5493,0.0,0.0,0.0,0.0,0.0,0.0,0.0,0.0,0.0,0.0,0.0,0.0,0.0,0.0,0.0,0.0,0.0,0.0,0.0,0.0,0.0,0.0,0.0,0.0,-3.3674,-3.2688,-2.9028,0.0,0.0,0.0,0.0,0.0,0.0,0.0,0.0,0.0,0.0,0.0,-2.9807,-3.2059,-3.4677,-3.7356,-3.9264,-4.0335,-4.034,-4.2174,-4.3285,-4.331,-4.1292,-3.8927,0.0,0.0,0.0,0.0,0.0,0.0,0.0,0.0,0.0,0.0,0.0,0.0,0.0,0.0,0.0,0.0,0.0,0.0,0.0,0.0,0.0,0.0,0.0,0.0,0.0,0.0,0.0,0.0,0.0,0.0,0.0,0.0,-2.4908,-2.4716,0.0,0.0,0.0,0.0,0.0,0.0,0.0,0.0,0.0,0.0,0.0,0.0,0.0,-2.8096,-2.8584,-2.9834,-3.0703,-3.1182,-3.1982,-3.2432,-3.2539,-3.2328,-3.2107,-3.1714,-3.0645,0.0,-2.6198,-3.216,0.0,0.0,0.0,0.0,0.0,0.0,0.0,0.0,0.0,0.0,0.0,0.0,0.0,0.0,0.0,0.0,0.0,0.0,0.0,0.0,0.0,0.0,-3.3196,-3.5444,-3.595,-3.5775,0.0,-3.2034,-3.0536,-3.4349,-3.1959,0.0,0.0,0.0,0.0,0.0,0.0,0.0,-2.9767,-3.3436,-3.7593,-4.1936,-4.2658,-4.2863,-4.2854,-4.3084,-4.3284,-4.3265,-4.2985,-4.158,-3.9023,-3.6714,0.0,0.0,0.0,0.0,0.0,0.0,0.0,0.0,0.0,0.0,0.0,0.0,0.0,0.0,0.0,0.0,0.0,0.0,0.0,0.0,0.0,0.0,0.0,0.0,0.0,0.0,0.0,0.0,0.0,-2.4692,-2.4915,-2.4114,-2.4512,-2.4492,0.0,0.0,0.0,0.0,0.0,0.0,0.0,0.0,0.0,-2.9043,-2.9746,-3.042,-3.1094,-3.2148,-3.2773,-3.2959,-3.3574,-3.3867,-3.3848,-3.3601,-3.3546,-3.3556,-3.2662,-3.3526,-3.5573,-3.7517,-3.6998,-3.4737,0.0,0.0,0.0,0.0,-3.1651,-3.1834,-3.3039,-3.4817,-3.6161,-3.4942,0.0,0.0,0.0,0.0,0.0,0.0,0.0,0.0,0.0,0.0,-3.5213,-3.6174,-3.6376,-3.6386,-3.638,-3.4851,-3.372,0.0,-3.1978,-2.9827,-2.977,0.0,0.0,0.0,0.0,-3.354,-3.5004,-3.8197,-4.1055,-4.312,-4.3332,-4.3294,-4.3293,-4.3263,-4.3286,-4.3322,-4.327,-4.2804,-4.1648,-3.908,-3.6971,0.0,0.0,0.0,0.0,0.0,0.0,0.0,0.0,0.0,0.0,0.0,0.0,0.0,0.0,0.0,0.0,0.0,0.0,0.0,0.0,0.0,0.0,0.0,0.0,0.0,0.0,0.0,0.0,-2.5406,-2.5459,-2.4268,-2.5859,-2.6328,0.0,0.0,0.0,0.0,0.0,0.0,-2.8594,-2.8945,-2.9756,-3.1143,-3.1934,-3.2637,-3.3271,-3.4033,-3.4355,-3.4238,-3.4668,-3.4756,-3.4521,-3.4507,-3.4828,-3.5586,-3.5838,-3.8571,-4.2779,-4.0616,-3.8729,-3.7094,-3.5463,-3.4458,-3.395,-3.3953,-3.4307,-3.5042,-3.6628,-3.7216,-3.6995,-3.5322,-3.6286,-3.739,-3.4079,0.0,0.0,0.0,0.0,-3.3947,-3.3906,-3.5158,-3.6429,-3.644,-3.6366,-3.6366,-3.6444,-3.7365,-3.7163,0.0,-3.2607,-3.2236,-3.2293,0.0,0.0,0.0,0.0,-3.6413,-3.9088,-4.1682,-4.3072,-4.2401,-4.2317,-4.2559,-4.3259,-4.3304,-4.3334,-4.3329,-4.3277,-4.3136,-4.2801,-4.0603,-3.8284,-3.606,0.0,0.0,0.0,0.0,0.0,0.0,0.0,0.0,0.0,0.0,0.0,0.0,0.0,0.0,0.0,0.0,0.0,0.0,0.0,0.0,0.0,0.0,0.0,0.0,0.0,0.0,0.0,0.0,0.0,-2.6924,-2.9072,0.0,0.0,0.0,0.0,-2.8135,-2.8545,-2.9531,-3.123,-3.1348,-3.2129,-3.3828,-3.4307,-3.456,-3.46,-3.5088,-3.5107,-3.4668,-3.5137,-3.4912,-3.4121,-3.4473,-3.59,-3.8246,-4.1247,-4.2749,-4.2785,-4.0564,-3.9606,-3.9524,-3.9428,-3.8032,-3.6264,-3.6238,-3.7546,-3.9381,-3.9485,-3.9511,-3.9505,-3.9382,-3.6725,-3.3347,-3.3138,-3.3009,0.0,0.0,-3.6174,-3.6186,-3.6243,-3.6364,-3.637,-3.6404,-3.6379,-3.6419,-3.6393,-3.9823,-4.1013,0.0,-3.6259,-3.8888,-3.894,0.0,-3.5208,-3.5225,-3.5354,-3.6432,-3.9058,-4.1708,-4.2377,-3.9871,-3.9572,-4.0601,-4.3087,-4.3301,-4.3265,-4.3314,-4.3314,-4.2746,-4.155,-4.0144,-3.8733,-3.736,-3.6133,0.0,0.0,0.0,0.0,0.0,0.0,0.0,0.0,0.0,0.0,0.0,0.0,0.0,0.0,0.0,0.0,0.0,0.0,0.0,0.0,0.0,0.0,0.0,0.0,0.0,0.0,0.0,0.0,-2.8447,-3.0293,0.0,-2.9453,-2.9951,-3.0478,-3.0771,-3.168,-3.2754,-3.3945,-3.4014,-3.4414,-3.5293,-3.5469,-3.5547,-3.5547,-3.5449,-3.5156,-3.4697,-3.459,-3.4228,-3.3633,-3.3799,-3.437,-3.5412,-4.0699,-4.305,-4.2899,-4.212,-4.1821,-4.1824,-4.1801,-4.0516,-3.8542,-3.8515,-3.9064,-3.9684,-3.9701,-3.9677,-3.9752,-3.9661,-3.7663,-3.5242,-3.5251,-3.5244,-3.5351,-3.6182,-3.74,-3.8479,-3.8476,-3.7467,-3.6366,-3.6393,-3.868,-4.0859,-4.0873,-4.2105,-4.2573,-4.011,-3.9552,-3.9386,-3.9427,-3.8668,-3.7467,-3.5787,-3.6899,-3.8329,-3.9247,-4.0201,-4.0442,-3.9501,-3.9396,-3.9797,-4.0736,-4.1307,-4.1773,-4.2058,-4.2087,-4.1865,-4.1385,-4.0113,-3.8668,-3.7088,-3.6053,-3.5285,0.0,0.0,0.0,0.0,0.0,0.0,0.0,0.0,0.0,0.0,0.0,0.0,0.0,0.0,0.0,0.0,0.0,0.0,0.0,0.0,0.0,0.0,0.0,0.0,0.0,-3.1259,-3.2066,-2.979,-3.1885,-3.2891,-3.1426,-3.2217,-3.3008,-3.3437,-3.4385,-3.5264,-3.5996,-3.5898,-3.5957,-3.623,-3.6094,-3.6016,-3.6016,-3.5752,-3.5303,-3.4697,-3.458,-3.4131,-3.3398,-3.3656,-3.3668,-3.3731,-4.0192,-4.3024,-4.3004,-4.2997,-4.2957,-4.2965,-4.2951,-4.1667,-3.9673,-3.9659,-3.9663,-3.9702,-3.9725,-3.9697,-3.9712,-3.9663,-3.8713,-3.749,-3.7539,-3.7505,-3.75,-3.7515,-3.8538,-3.9741,-3.969,-3.9891,-3.98,-3.8959,-4.1081,-4.3297,-4.3284,-4.3323,-4.3334,-4.3289,-4.1171,-3.9367,-3.9418,-3.939,-3.8813,-3.7109,-3.8272,-3.9365,-3.9379,-3.9429,-3.9387,-3.9417,-3.9431,-3.952,-3.9742,-4.0293,-4.0711,-4.104,-4.1055,-4.0845,-4.0435,-3.9511,-3.8307,-3.676,-3.5948,-3.5145,-3.4472,0.0,0.0,0.0,0.0,0.0,0.0,0.0,0.0,0.0,0.0,0.0,0.0,0.0,0.0,0.0,0.0,0.0,0.0,0.0,0.0,0.0,0.0,0.0,-3.1799,-3.3222,-3.3602,-3.1348,-3.3994,-3.5381,-3.3701,-3.4717,-3.5635,-3.6035,-3.6475,-3.6904,-3.7295,-3.6924,-3.6689,-3.6689,-3.626,-3.6016,-3.6016,-3.5986,-3.5557,-3.4726,-3.5137,-3.4668,-3.3437,-3.4243,-3.435,-3.4072,-4.0258,-4.3047,-4.2974,-4.2974,-4.2974,-4.3035,-4.3039,-4.1647,-3.9836,-3.968,-3.9661,-3.9697,-3.9697,-3.9697,-3.9737,-3.9728,-3.9728,-3.9664,-3.9745,-3.9741,-3.9719,-3.9739,-3.9728,-3.9675,-3.9712,-4.3437,-4.6641,-4.3964,-4.3288,-4.3269,-4.3289,-4.3341,-4.3272,-4.3183,-4.1144,-3.937,-3.9442,-3.9399,-3.938,-3.9379,-3.9384,0.0,-3.9379,-3.9424,-3.9424,-3.9454,-3.9424,-3.9694,-4.0337,-4.0367,-4.0337,-4.0337,-4.0322,-3.9723,-3.8407,-3.8347,-3.7734,-3.6477,-3.5833,-3.516,-3.4472,0.0,0.0,0.0,0.0,0.0,0.0,0.0,0.0,0.0,0.0,0.0,0.0,0.0,0.0,0.0,0.0,0.0,0.0,0.0,0.0,0.0,-3.4713,-3.622,-3.5376,-3.6185,-3.6663,-3.6008,-3.63,-3.6426,-3.625,-3.6836,-3.7148,-3.6963,-3.7637,-3.7969,-3.7764,-3.7353,-3.7129,-3.7129,-3.6406,-3.6016,-3.6016,-3.5381,-3.5107,-3.5195,-3.4365,-3.3768,-3.3367,-3.3674,-3.6231,-4.0513,-4.2256,-4.3047,-4.2974,-4.2974,-4.2947,-4.3026,-4.3048,-4.2621,-4.1948,-4.0287,-3.9669,-3.9697,-3.9697,-3.9697,-3.9685,-3.9687,-3.9662,-3.9752,-3.9663,-3.9728,-3.9753,-3.9739,-3.9662,-3.9715,-3.9711,-4.3443,-4.6614,-4.3943,-4.333,-4.3284,-4.3295,-4.3341,-4.2709,-4.0873,-3.9905,-3.9373,-3.9412,-3.9421,-3.9391,-3.9409,-3.9421,0.0,-3.9409,-3.9424,-3.9604,-4.0083,-3.9709,-3.9694,-4.0337,-3.9499,-3.8945,-3.8945,-3.8497,-3.8063,-3.7689,-3.724,-3.6626,-3.5789,-3.5594,-3.516,0.0,0.0,0.0,0.0,0.0,0.0,0.0,0.0,0.0,0.0,0.0,0.0,0.0,0.0,0.0,0.0,0.0,0.0,0.0,0.0,0.0,0.0,-3.6584,-3.8465,-3.923,-3.8816,-3.8379,-3.8435,-3.7401,-3.6836,-3.7256,-3.7363,-3.7373,-3.7305,-3.7754,-3.793,-3.7676,-3.7266,-3.7031,-3.7031,-3.6377,-3.5937,-3.5762,-3.542,-3.5117,-3.4834,-3.4407,-3.3896,-3.3417,-3.3411,-3.548,-3.909,-4.1868,-4.305,-4.2974,-4.2974,-4.3008,0.0,0.0,0.0,0.0,0.0,-3.9697,-3.9697,-3.9697,-3.9697,-3.9697,-3.9697,-3.9697,-3.9697,-3.9697,-3.9697,-3.9659,-3.9726,-3.9728,-3.9684,-3.9704,-4.3519,-4.658,-4.3941,-4.3316,-4.3304,-4.328,-4.3328,-4.253,-3.9946,-3.9402,0.0,-3.9367,-3.9424,-3.9424,-3.9424,-3.9424,-3.9424,-3.9424,-3.9424,-3.9574,-3.9948,-3.9888,-3.9873,-3.9978,-3.9514,0.0,0.0,0.0,-3.7165,-3.6641,-3.6267,0.0,0.0,0.0,-3.5714,-3.5325,0.0,0.0,0.0,-3.5624,-3.5878,0.0,0.0,0.0,0.0,0.0,0.0,0.0,0.0,0.0,0.0,0.0,0.0,0.0,0.0,0.0,0.0,-3.8241,-4.0463,-4.2672,-4.0727,-3.9095,-3.9269,-3.7708,-3.6738,-3.7119,-3.6904,-3.6875,-3.7197,-3.7226,-3.7207,-3.7158,0.0,0.0,0.0,0.0,-3.5752,-3.5322,-3.5635,-3.5244,-3.415,-3.4762,-3.4516,-3.3476,-3.3436,-3.3776,-3.4854,-4.0469,-4.2987,-4.2974,-4.2974,-4.2808,-4.2612,-4.2683,-4.1474,-3.968,-3.9694,-3.9697,-3.9697,-3.9697,0.0,0.0,-3.9737,-3.9712,-3.9687,-3.9687,-3.9687,-3.9726,-3.974,-3.9479,-3.9477,-4.0011,-4.3492,-4.6319,-4.4236,-4.3486,-4.3328,-4.3329,-4.3317,-4.2531,-3.9948,-3.9402,-3.9424,-3.9424,-3.9424,-3.9424,-3.9424,-3.9424,-3.9424,-3.9424,-3.9424,-3.9454,-3.9514,0.0,0.0,-3.9574,-3.9933,-3.9409,-3.7629,-3.7449,-3.6896,-3.5774,-3.5714,-3.5714,-3.5714,-3.6297,-3.6596,-3.6596,-3.715,-3.7449,-3.7509,-3.6881,-3.6926,0.0,0.0,0.0,0.0,0.0,0.0,0.0,0.0,0.0,0.0,0.0,0.0,0.0,0.0,0.0,-3.6132,-3.8241,-4.0463,-4.2672,-3.9929,-3.8219,-3.9449,-3.7513,-3.6182,-3.626,-3.6816,-3.707,-3.6816,-3.6797,-3.6641,-3.6289,-3.6191,-3.5996,-3.5644,-3.5557,-3.5293,-3.4834,-3.458,-3.4492,-3.457,0.0,0.0,-3.4428,-3.368,-3.6209,-4.1163,-4.2469,-4.3012,-4.2974,-4.2974,-4.1988,-4.036,-4.0314,-4.0077,-3.9681,-3.9722,-3.9697,-3.9697,-3.9697,-3.9726,-3.9702,-3.9702,-3.9726,-3.9709,-3.9709,-3.9709,0.0,-3.9732,-3.8452,-3.7934,-4.1663,-4.3367,-4.452,-4.6137,-4.4864,-4.328,-4.3298,-4.3335,-4.2557,-3.9892,-3.9415,-3.9424,-3.9424,-3.9424,-3.9424,-3.9424,-3.9424,-3.9424,-3.9424,-3.9424,-3.9634,-4.0157,-3.9843,-3.9768,-4.0172,-3.9334,-3.8616,-3.8227,-3.7704,-3.73,-3.7045,-3.7045,-3.7045,-3.7045,-3.7165,-3.724,-3.724,-3.7345,-3.7689,-3.8182,-3.7539,-3.7584,0.0,0.0,0.0,0.0,0.0,0.0,0.0,0.0,0.0,0.0,0.0,-3.2503,0.0,0.0,-3.6408,-3.7801,-3.9195,-4.0352,-4.0906,-3.8766,-3.7663,-3.9153,-3.6773,-3.5049,-3.5049,-3.5625,-3.5918,-3.5703,-3.5684,-3.5596,-3.5371,-3.5361,-3.5264,-3.5049,-3.5049,-3.4834,-3.4394,-3.4385,-3.4277,-3.4053,-3.4024,-3.4074,-3.4064,-3.3542,-3.5118,-3.8386,-4.1603,-4.2995,-4.3011,-4.2982,-4.2384,-4.1266,-4.0102,-3.9731,-3.9697,-3.9697,-3.9697,-3.9697,-3.9697,-3.9689,-3.9538,-3.8365,-3.8104,-3.8027,-3.8027,-3.8027,-3.8088,-3.8023,-3.7216,-3.7469,-4.2111,-4.3286,-4.3632,-4.4941,-4.4282,-4.2944,-4.1644,-4.1324,-4.0949,-3.9669,-3.9385,-3.9424,-3.9424,-3.9424,-3.9424,-3.9424,-3.9424,-3.9424,-3.9424,-3.9424,-3.9544,-3.9873,-3.9903,-3.9903,-3.9903,-3.8975,-3.8392,-3.8392,-3.7778,-3.7404,-3.7404,-3.7404,-3.7404,-3.7404,-3.7404,-3.7404,-3.7404,-3.7404,-3.7584,-3.7898,-3.7898,-3.8257,0.0,0.0,0.0,0.0,0.0,0.0,0.0,0.0,-3.3985,-3.3471,-3.406,-3.4964,-3.5855,-3.6835,-3.7952,-3.932,-3.9998,-4.009,-3.9491,-3.765,-3.6935,-3.8235,-3.5656,-3.3828,-3.3828,-3.4209,-3.4482,-3.457,-3.4502,-3.4492,-3.457,-3.458,-3.4541,-3.4453,-3.4531,-3.4375,-3.3945,-3.4287,-3.4101,-3.3428,-3.4113,-3.4103,-3.3408,-3.3446,-3.3454,-3.3709,-4.027,-4.2979,-4.3022,-4.3008,-4.2772,-4.22,-4.0392,-3.9747,-3.9697,-3.9697,-3.9697,-3.9697,-3.9697,-3.9689,-3.9361,-3.714,-3.6402,-3.6382,-3.6382,-3.6432,-3.6419,-3.6354,-3.6396,-3.7453,-4.2134,-4.3303,-4.3278,-4.331,-4.3284,-4.2589,-3.9945,-3.9413,-3.9432,-3.9387,-3.9429,-3.9424,-3.9424,-3.9424,-3.9424,-3.9424,-3.9424,-3.9424,-3.9424,-3.9424,-3.9424,-3.9424,-3.9888,-3.9993,-3.9469,-3.8901,-3.8586,-3.8586,-3.8093,-3.7793,-3.7793,-3.7793,-3.7793,-3.7793,-3.7674,-3.7599,-3.7599,-3.7464,-3.7404,-3.7419,-3.7943,-3.8631,-3.1207,-3.1495,-3.3051,-3.4831,-3.5325,-3.5825,0.0,0.0,-3.7273,-3.7375,-3.7462,-3.7588,-3.7713,-3.8253,-3.8743,-3.8931,-3.9421,-3.9869,-4.0302,-3.7508,-3.568,-3.6398,-3.4341,-3.2939,-3.2939,-3.332,-3.373,-3.4111,-3.3789,-3.373,-3.4121,-3.4141,-3.3965,-3.3574,-3.3935,-3.3935,-3.3496,-3.3535,-3.3516,-3.3418,-3.3476,-3.3476,-3.3408,-3.344,-3.345,-3.3821,-4.0268,-4.2987,-4.3051,-4.2971,-4.1821,-4.0059,-3.978,-3.974,-3.9697,-3.9697,-3.9697,-3.9697,-3.9697,-3.9689,-3.9361,-3.714,-3.6443,-3.6428,-3.6428,-3.6422,-3.6363,-3.642,-3.6431,-3.7464,-4.2077,-4.3324,-4.3295,-4.3344,-4.3292,-4.2602,-3.9974,-3.9431,-3.9387,-3.9442,-3.9367,-3.9424,-3.9424,-3.9424,-3.9424,-3.9424,-3.9424,-3.9424,-3.9424,-3.9424,-3.9424,-3.9424,-3.9484,-3.9499,-3.9424,-3.9349,-3.9305,-3.9305,-3.923,-3.92,-3.92,-3.92,-3.92,-3.92,-3.8586,-3.8287,-3.8287,-3.7689,-3.7404,-3.7404,-3.7479,-3.8197,-3.3196,-3.2946,-3.3559,-3.5579,-3.6342,-3.6821,-3.7504,-3.7646,-3.7704,-3.7591,-3.7789,-3.8115,-3.8442,-3.8705,-3.8981,0.0,-3.9546,-3.9216,-3.7667,-3.6191,-3.4714,-3.3257,-3.2263,-3.1787,-3.2031,-3.2441,-3.2871,-3.3291,-3.3154,-3.3242,-3.3672,-3.3691,-3.3613,-3.3428,-3.3603,-3.3603,-3.3418,-3.3174,-3.3184,-3.3418,-3.3358,-3.3395,-3.3395,-3.3381,-3.3384,-3.3755,-4.0162,-4.2313,-4.1053,-4.1096,-4.0545,-3.9755,-3.9661,-3.9719,-3.9697,-3.9697,-3.9697,-3.9697,-3.9697,-3.9689,-3.955,-3.8655,-3.8277,-3.8036,-3.6818,-3.643,-3.6358,-3.6358,-3.644,-3.7484,-4.2075,-4.3274,-4.3269,-4.3307,-4.3289,-4.3,-4.1926,-4.0471,-3.9414,-3.9367,-3.9424,-3.9424,-3.9424,-3.9424,-3.9424,-3.9424,-3.9424,-3.9424,-3.9424,-3.9424,-3.9424,-3.9424,-3.9424,-3.9424,-3.9424,-3.9424,-3.9245,-3.8841,-3.92,-3.9065,-3.8287,-3.8616,-3.8631,-3.8257,-3.7614,-3.7285,-3.7285,-3.6626,-3.6297,-3.6312,-3.6686,-3.718,-3.3396,-3.3305,-3.3709,-3.5714,-3.6821,-3.7323,-3.6976,-3.7373,-3.7636,-3.7286,-3.75,-3.7952,-3.853,-3.863,-3.8818,-3.9383,-3.9137,-3.819,-3.6151,-3.5055,-3.3705,-3.1757,-3.0994,-3.0869,-3.1299,-3.1631,-3.1992,-3.2412,-3.2549,-3.2803,-3.3223,-3.3359,-3.3418,-3.3418,-3.3418,-3.3418,-3.3418,-3.3115,-3.297,-3.3078,-3.3289,-3.3411,-3.3436,-3.2981,-3.2734,-3.295,-3.7645,-3.9646,-3.9746,-3.9705,-3.9735,-3.971,-3.9681,-3.9697,-3.9697,-3.9697,-3.9697,-3.9685,-3.9699,-3.9715,-3.9702,-3.9701,-3.9689,-3.9336,-3.7039,-3.643,-3.6439,-3.6351,-3.6386,-3.714,-4.0569,-4.2299,-4.315,-4.2387,-4.2244,-4.2241,-4.2239,-4.0736,-3.9442,-3.9439,-3.9424,-3.9424,-3.9424,-3.9424,-3.9424,-3.9424,-3.9424,-3.9424,-3.9424,-3.9424,-3.9424,-3.9424,-3.9245,-3.9215,-3.9409,-3.908,-3.8736,-3.8407,-3.8691,-3.8422,-3.7449,-3.7868,-3.7898,-3.7419,-3.6806,-3.6492,-3.6492,-3.5833,-3.5504,-3.5519,-3.5998,-3.6312,-3.0639,-3.1569,-3.3021,-3.504,-3.6477,-3.7323,-3.6976,-3.7456,-3.7722,-3.7286,-3.7199,-3.7374,-3.7939,-3.804,-3.8216,-3.8806,-3.7697,-3.6987,-3.7394,-3.4525,-3.2675,-3.3025,-3.1355,-3.04,0.0,-3.0918,-3.1103,-3.1523,-3.1953,-3.2373,-3.2793,-3.3203,-3.3418,-3.3418,-3.3418,-3.3418,-3.3418,-3.3408,-3.3058,-3.2254,-3.3068,-3.3368,-3.3292,-3.1719,-3.0965,-3.0953,-3.1125,-3.445,-3.9674,-3.9744,-3.971,-3.971,-3.9697,-3.9697,-3.9697,-3.9697,-3.9697,-3.9647,-3.9741,-3.9715,-3.9651,-3.9732,-3.9692,-3.9336,-3.7039,-3.643,-3.6402,-3.6392,-3.6431,-3.642,-3.6596,-3.9939,-4.2634,-4.0091,-3.9545,-3.9532,-3.9506,-3.9476,-3.9431,-3.9397,-3.9424,-3.9424,-3.9424,-3.9424,-3.9424,-3.9424,-3.9424,-3.9424,-3.9424,-3.9424,-3.9424,-3.9424,-3.8826,-3.8691,-3.9364,-3.8227,-3.7734,-3.8347,-3.7808,-3.7449,-3.7404,-3.7434,-3.7434,-3.7404,-3.6806,-3.6492,-3.6492,-3.5833,-3.5504,-3.5504,-3.5534,-3.5878,-3.1582,-3.2811,-3.4188,-3.5759,-3.6477,-3.66,-3.6018,-3.6259,-3.6414,-3.5226,-3.4713,-3.4738,-3.5667,-3.583,-3.5837,-3.5941,-3.6345,-3.6098,-3.4316,-3.3658,-3.2903,-3.1787,-3.1594,0.0,0.0,0.0,0.0,-3.1484,-3.1924,-3.2353,-3.2773,-3.3193,-3.3418,-3.3418,-3.3418,-3.3418,-3.3418,-3.3144,-3.299,-3.2942,-3.3208,-3.2848,-3.1764,-3.1188,-3.0869,-3.1067,-3.4988,-3.7919,-3.9756,-3.971,-3.9697,-3.9697,-3.9697,-3.9697,-3.9672,-3.9651,-3.9677,-3.9652,-3.9753,-3.8768,-3.7556,-3.7543,-3.749,-3.7346,-3.6659,-3.643,-3.6439,-3.642,-3.5306,-3.4217,-3.4234,-3.7456,-4.0481,-3.962,-3.9373,-3.9372,-3.9429,-3.9414,-3.9384,-3.9367,-3.9424,-3.9424,-3.9424,-3.9424,-3.9424,-3.9424,-3.9424,-3.9424,-3.9424,-3.9424,-3.9424,-3.9424,-3.9215,-3.8975,-3.8751,-3.8317,-3.7793,-3.7165,-3.73,-3.703,-3.6178,-3.6567,-3.6582,-3.6163,-3.5938,-3.5833,-3.5833,-3.5609,-3.5504,-3.5504,-3.6006,-3.635,-3.2212,-3.3305,-3.4442,-3.5804,-3.6133,-3.5902,-3.4845,-3.492,-3.4803,-3.3534,-3.2855,-3.2657,-3.3206,-3.3279,-3.3101,-3.2818,-3.3337,-3.3319,-3.2113,-3.1816,-3.1633,-3.1162,-3.1601,-3.1885,0.0,0.0,0.0,-3.1514,-3.206,-3.2441,-3.2568,-3.3115,-3.3418,-3.3418,-3.3271,-3.3203,-3.3203,-3.2783,-3.2868,-3.345,-3.2769,-3.1946,-3.0882,-3.0918,-3.0917,-3.1116,-3.4957,-3.779,-3.9709,-3.9723,-3.9697,-3.9697,-3.9697,-3.9697,-3.9609,-3.8855,-3.8542,-3.8517,-3.8504,-3.7543,-3.637,-3.6357,-3.6366,-3.6385,-3.6385,-3.6438,-3.6439,-3.642,-3.5363,-3.4119,-3.3335,-3.6196,-3.9404,-3.9372,-3.9399,-3.9424,-3.9424,-3.9424,-3.9424,-3.9424,-3.9424,-3.9424,-3.9424,-3.9424,-3.9424,-3.9424,-3.9424,-3.9334,-3.908,-3.9275,-3.923,-3.8751,-3.8916,-3.8781,-3.8093,-3.7838,-3.736,-3.6537,-3.6641,-3.6357,-3.5534,-3.5908,-3.5938,-3.5519,-3.5504,-3.5504,-3.5504,-3.5504,-3.5504,-3.5504,-3.6275,-3.6615,-3.2329,-3.3021,-3.3858,-3.5175,-3.5439,-3.5082,-3.3687,-3.3331,-3.3076,-3.2263,-3.165,-3.1178,0.0,0.0,-3.0383,-2.984,-2.9067,-2.9126,-3.079,-2.9621,-2.9248,0.0,0.0,0.0,0.0,0.0,0.0,-3.1641,0.0,-3.2607,-3.2187,-3.2969,-3.3408,-3.3359,-3.2998,-3.2783,-3.2764,-3.2363,-3.2621,-3.3286,-3.1709,-3.0882,-3.0863,-3.0908,-3.0876,-3.0897,-3.0893,-3.4272,-3.9697,-3.9728,-3.971,-3.9672,-3.9672,-3.9647,-3.9356,-3.7237,-3.6427,-3.6419,-3.6368,-3.645,-3.6388,-3.6363,-3.6358,-3.6358,-3.6358,-3.6358,-3.6402,-3.6392,-3.6396,-3.5876,-3.3778,-3.6293,-3.9361,-3.9372,-3.9424,-3.9424,-3.9424,-3.9424,-3.9424,-3.9424,-3.9424,-3.9424,-3.9424,-3.9424,-3.9424,-3.9424,-3.9424,-3.9185,-3.8527,-3.899,-3.8871,-3.7599,-3.7988,-3.8078,-3.7419,-3.6821,-3.6477,-3.6432,-3.5848,-3.5504,-3.5504,-3.5504,-3.5504,-3.5504,-3.5504,-3.5504,-3.5504,-3.5504,-3.5504,-3.5504,-3.6275,-3.6631,-3.2347,-3.335,-3.4427,-3.5295,-3.492,-3.4085,-3.3014,-3.2603,-3.2011,-3.0656,-2.9955,-2.9394,0.0,0.0,0.0,-2.8196,-2.931,0.0,-3.0038,-3.0649,0.0,-3.1494,0.0,-3.2861,-3.2656,-3.2734,0.0,0.0,-3.2676,-3.2607,-3.2187,-3.2969,-3.3135,-3.251,-3.2685,-3.2646,-3.2334,-3.2217,-3.2312,-3.2485,-3.1414,-3.0885,-3.0889,-3.0928,-3.0946,-3.0915,-3.0917,-3.4216,-3.9697,-3.9722,-3.9678,-3.9728,-3.9728,-3.9159,-3.8229,-3.6948,-3.6713,-3.7139,-3.6589,-3.6388,-3.6376,-3.6395,-3.6358,-3.6358,-3.6358,-3.6358,-3.6439,-3.6364,-3.6375,-3.6263,-3.5672,-3.7442,-3.9361,-3.9372,-3.9424,-3.9424,-3.9424,-3.9424,-3.9424,-3.9424,-3.9424,-3.9424,-3.9424,-3.9424,-3.9424,-3.9424,-3.9424,-3.9349,-3.9185,-3.8856,-3.8512,-3.8182,-3.7853,-3.7404,-3.6776,-3.6582,-3.6282,-3.5789,-3.5594,-3.5504,-3.5504,-3.5504,-3.5504,-3.5504,-3.5504,-3.5504,-3.5504,-3.5504,-3.5504,-3.5504,-3.6275,-3.723,-3.2332,-3.2986,-3.3579,-3.3977,-3.3353,-3.2298,-3.087,-3.0525,-3.0012,-2.8102,-2.7953,-2.7742,-2.6347,-2.6955,-2.7296,0.0,0.0,0.0,-2.9221,-3.0293,-3.1289,0.0,-3.2705,0.0,-3.2822,-3.2793,-3.2725,0.0,-3.2695,-3.2607,-3.2187,-3.2793,-3.2842,-3.2187,-3.2217,-3.2031,-3.1611,-3.1601,-3.1642,-3.1574,-3.1103,-3.0947,-3.0889,-3.0889,-3.0889,-3.0869,0.0,-3.2752,-3.6022,-3.8658,-3.9124,-3.8276,-3.8227,-3.8029,-3.7629,-3.6736,-3.683,-3.727,-3.6666,-3.6207,-3.6044,-3.6282,-3.6358,-3.6358,-3.6358,-3.6358,-3.6427,-3.6395,-3.6417,-3.6392,-3.6418,-3.7853,-3.9361,-3.9372,-3.9424,-3.9424,-3.9424,-3.9424,-3.9424,-3.9424,-3.9424,-3.9424,-3.9424,-3.9424,-3.9424,-3.9424,-3.9424,-3.9424,-3.9424,-3.908,-3.8512,-3.7644,-3.7719,-3.7479,-3.6567,-3.6492,-3.6327,-3.5953,-3.5669,-3.5504,-3.5504,-3.5504,-3.5504,-3.5504,-3.5504,-3.5504,-3.5504,-3.5504,-3.5504,-3.5504,-3.6275,-3.7445,-3.2139,-3.2138,-3.1911,-3.1997,-3.1411,-3.028,-2.8318,-2.8104,-2.7713,-2.537,0.0,-2.6202,-2.3799,-2.4811,-2.5529,-2.4286,0.0,-2.665,-2.8789,-2.9512,-3.0527,-3.2402,-3.2542,-3.2448,-3.2705,-3.2523,-3.2244,-3.2197,-3.2451,-3.2471,-3.21,-3.248,-3.2519,-3.21,-3.166,-3.126,-3.0898,-3.0889,-3.0889,-3.0889,-3.0889,-3.0889,-3.0889,-3.0889,-3.0869,-3.0917,-3.0859,-3.0882,-3.1313,-3.6221,-3.7501,-3.6392,-3.6384,-3.6787,-3.7244,-3.6612,-3.6718,-3.6998,-3.6445,-3.5994,-3.5717,-3.6119,-3.6257,-3.6257,-3.6257,-3.6245,-3.6276,-3.621,-3.6138,-3.5941,-3.5972,-3.7659,-3.9376,-3.9387,-3.9397,-3.9424,-3.9424,-3.9424,-3.9424,-3.9424,-3.9424,-3.9424,-3.9424,-3.9424,-3.9424,-3.9424,-3.9424,-3.9424,-3.9424,-3.9334,-3.8601,-3.6806,-3.7524,-3.7644,-3.6462,-3.6357,-3.6357,-3.6357,-3.5818,-3.5504,-3.5504,-3.5504,-3.5504,-3.5504,-3.5504,-3.5504,-3.5504,-3.5504,-3.5504,-3.5504,-3.6275,-3.7492,-3.1264,-3.0934,-3.0504,-3.1072,-3.046,-2.9411,-2.8186,-2.7125,0.0,0.0,-2.4597,-2.4427,-2.3059,-2.3703,-2.4581,-2.5277,-2.6182,-2.7539,-2.9678,-3.0674,-3.1318,0.0,-3.0898,-3.0726,-3.2144,-3.0804,0.0,0.0,-3.1904,-3.1709,-3.1641,-3.2041,-3.208,-3.1641,-3.1221,-3.0967,-3.0889,-3.0889,-3.0889,-3.0889,-3.0889,-3.0889,-3.0889,-3.0889,-3.0848,-3.0918,-3.0953,0.0,-3.0883,-3.0442,-3.271,-3.6382,-3.6357,-3.6475,-3.6596,-3.6496,-3.6471,-3.642,-3.5881,-3.5918,-3.6157,-3.5805,-3.5692,-3.5692,-3.5692,-3.5562,-3.5512,-3.5462,-3.4612,-3.3702,-3.3658,-3.6537,-3.9396,-3.9408,-3.9372,-3.9424,-3.9424,-3.9424,-3.9424,-3.9424,-3.9424,-3.9424,-3.9424,-3.9424,-3.9424,-3.9424,-3.9424,-3.9424,-3.9424,-3.8916,-3.8227,-3.7345,-3.6985,-3.6507,-3.5744,-3.5669,-3.5669,-3.5669,-3.5564,-3.5504,-3.5504,-3.5504,-3.5504,-3.5504,-3.5504,-3.5504,-3.5504,-3.5504,-3.5504,-3.5504,-3.6275,-3.7744,-2.9563,-2.9245,-2.8862,-2.9199,-2.802,-2.6483,-2.5454,0.0,0.0,0.0,-2.2938,-2.3501,-2.2162,-2.3113,0.0,-2.4657,-2.5439,-2.6826,-2.9199,-3.0088,-3.047,-3.0596,-3.0569,-3.0307,-2.931,-2.894,-2.8787,-2.8976,-2.9555,-3.041,-3.1385,-3.1504,-3.1406,-3.1201,-3.0996,-3.0889,-3.0889,-3.0889,-3.0889,-3.0889,-3.0889,-3.0889,-3.0889,-3.0935,-3.0873,-3.0809,-2.9951,-2.9597,-2.9702,-3.1689,-3.4062,-3.6431,-3.6405,-3.636,-3.6358,-3.6358,-3.6358,-3.6282,-3.573,-3.5529,-3.5416,-3.4864,-3.5265,-3.5868,-3.529,-3.5199,-3.5299,-3.4864,-3.4207,-3.3545,-3.3216,-3.5412,-3.7995,-3.9106,-3.9373,-3.9424,-3.9424,-3.9424,-3.9424,-3.9424,-3.9424,-3.9424,-3.9424,-3.9424,-3.9424,-3.9424,-3.9424,-3.9424,-3.9424,-3.9125,-3.8661,-3.7988,-3.7345,-3.6836,-3.6522,-3.5893,-3.5654,-3.5998,-3.5684,-3.5504,-3.5504,-3.5504,-3.5669,-3.6013,-3.5684,-3.5669,-3.6013,-3.6013,-3.6245,-3.6636,-3.697,-3.8586,-2.8071,-2.7755,-2.7417,-2.7191,-2.5735,-2.3966,-2.268,-2.2036,0.0,-2.0086,-2.1432,-2.2531,-2.1332,-2.2413,-2.3543,0.0,-2.3977,-2.5254,-2.763,-2.8369,-2.8704,0.0,-2.9532,0.0,-2.6677,-2.702,0.0,-2.6098,-2.7443,-2.9296,-3.1239,-3.1064,-3.0889,-3.0889,-3.0889,-3.0889,-3.0889,-3.0889,-3.0889,-3.0889,-3.0889,-3.0889,-3.0879,-3.0883,-3.074,-3.0325,-2.8876,-2.8258,-2.8711,-3.4155,-3.6434,-3.6415,-3.6405,-3.6393,-3.6358,-3.6358,-3.6282,-3.6107,-3.5554,-3.5165,-3.4788,-3.411,-3.4776,-3.5667,-3.4813,-3.4851,-3.5027,-3.4312,-3.4085,-3.387,-3.3296,-3.4659,-3.6716,-3.8862,-3.9431,-3.9424,-3.9424,-3.9424,-3.9424,-3.9424,-3.9424,-3.9424,-3.9424,-3.9424,-3.9424,-3.9424,-3.9424,-3.9424,-3.9424,-3.9424,-3.9215,-3.8661,-3.8018,-3.7509,-3.724,-3.6417,-3.6013,-3.6267,-3.6043,-3.5789,-3.5519,-3.5774,-3.6088,-3.6477,-3.6103,-3.6163,-3.6686,-3.6872,-3.7288,-3.7918,-3.8216,-3.9786,-2.7629,-2.7191,-2.6371,-2.5499,-2.4785,-2.3762,-2.1799,0.0,-2.0688,-1.9948,-2.0376,-2.0799,-2.0693,-2.1095,-2.1627,-2.2052,0.0,-2.292,-2.4864,-2.5362,-2.5662,-2.6227,0.0,0.0,-2.5945,-2.4794,-2.454,-2.5855,-2.7443,-2.9176,-3.082,-3.0918,-3.0889,-3.0889,-3.0889,-3.0889,-3.0889,-3.0889,-3.0889,-3.0889,-3.0889,-3.0889,-3.0879,-3.0883,-3.0,-2.8557,-2.8425,-2.831,0.0,-3.4152,-3.6427,-3.6443,-3.6405,-3.6383,-3.6358,-3.6358,-3.6044,-3.5542,-3.4989,-3.509,-3.5303,-3.4248,-3.3997,-3.411,-3.401,-3.401,-3.4035,-3.3935,-3.3545,-3.323,-3.3116,-3.4598,-3.6774,-3.8914,-3.9382,-3.9424,-3.9424,-3.9424,-3.9424,-3.9424,-3.9424,-3.9424,-3.9424,-3.9424,-3.9424,-3.9424,-3.9424,-3.9424,-3.9424,-3.9424,-3.9394,-3.9334,-3.8706,-3.7823,-3.6671,-3.6985,-3.6761,-3.5669,-3.6626,-3.6716,-3.5549,-3.6626,-3.7,-3.6492,-3.6985,-3.727,-3.733,-3.8142,-3.8567,-3.8616,-4.0167,-4.1371,-2.5859,-2.6245,-2.6178,-2.4881,-2.3372,-2.1882,-2.0801,0.0,-1.9394,-1.9143,-2.0098,-2.0889,-2.0615,-2.0543,-2.0531,-2.0734,0.0,0.0,-2.2423,-2.2833,-2.3094,-2.3646,-2.4079,0.0,0.0,0.0,-2.3814,-2.454,-2.5778,-2.7221,-2.8923,-3.0257,-3.0762,-3.0478,-3.0742,-3.0752,-3.0478,-3.0752,-3.0907,-3.0922,-3.0922,-3.0938,-3.0853,-3.0852,-2.9937,-2.8287,-2.8298,-2.832,0.0,-3.065,-3.3457,-3.6257,-3.5163,-3.5473,-3.6358,-3.6358,-3.6219,-3.5906,-3.5027,-3.509,-3.5303,-3.3872,-3.3633,-3.3897,-3.3897,-3.3897,-3.3834,-3.3495,-3.3244,-3.3081,-3.3081,-3.4637,-3.676,-3.8855,-3.9424,-3.9424,-3.9424,-3.9424,-3.9424,-3.9424,-3.9424,-3.9424,-3.9424,-3.9424,-3.9424,-3.9424,-3.9424,-3.9424,-3.9424,-3.9424,-3.9424,-3.9424,-3.8796,-3.8182,-3.7674,-3.7494,-3.7195,-3.6686,-3.712,-3.7015,-3.6133,-3.6941,-3.73,-3.7045,-3.7285,-3.7858,-3.8763,-3.9148,-3.9817,-4.0877,-4.1524,-4.2477,-2.4329,-2.5152,-2.5662,-2.416,-2.2293,-2.067,0.0,0.0,-1.8672,-1.8799,-2.0107,-2.0973,-2.0327,-2.009,-1.9809,0.0,0.0,-1.8716,-2.0016,-2.0295,-2.0593,-2.102,0.0,-2.2591,0.0,-2.1976,-2.2901,-2.329,-2.4476,-2.5873,-2.7544,-2.9488,-3.0351,-3.0019,-3.0322,-3.0351,-3.0152,-3.064,-3.0938,-3.0907,-3.0325,-3.0148,-3.0135,-3.0148,-2.9501,-2.8314,-2.832,-2.8058,0.0,-2.8612,-3.1414,-3.492,-3.4437,-3.5025,-3.6144,-3.6295,-3.6257,-3.5994,-3.5052,-3.4977,-3.509,-3.3759,-3.3583,-3.3897,-3.3897,-3.3784,-3.3571,-3.3181,-3.3313,-3.3628,-3.394,-3.5359,-3.7161,-3.8943,-3.9424,-3.9424,-3.9424,-3.9424,-3.9424,-3.9424,-3.9424,-3.9424,-3.9424,-3.9424,-3.9424,-3.9424,-3.9424,-3.9424,-3.9424,-3.9424,-3.9424,-3.9424,-3.899,-3.8616,-3.8407,-3.8153,-3.7838,-3.7434,-3.7599,-3.7419,-3.6791,-3.736,-3.7704,-3.7704,-3.7898,-3.856,-3.9603,-4.0095,-4.0992,-4.2245,-4.2708,-4.3504,-2.3391,-2.4156,-2.447,-2.308,-2.1776,-2.0542,0.0,-1.8945,-1.876,-1.9189,-2.0322,-2.0809,-1.9616,-1.9766,-1.9376,-1.7363,-1.698,0.0,-1.7177,-1.7662,-1.815,0.0,0.0,-1.98,-1.9813,-2.0341,-2.1278,-2.2632,-2.4101,0.0,-2.7245,-2.8766,-2.958,-2.958,-2.958,-2.9721,-3.0013,-3.062,-3.0923,-3.0913,-2.9128,-2.8369,-2.8359,-2.8377,-2.8343,-2.8314,-2.832,-2.7343,0.0,-2.9289,-3.1083,-3.1984,-3.4531,-3.5462,-3.5617,-3.6157,-3.6019,-3.5466,-3.4914,-3.4726,-3.4638,-3.4073,-3.3897,-3.3897,-3.3897,-3.352,-3.3081,-3.3081,-3.3869,-3.4897,-3.5894,-3.6944,-3.8069,-3.9104,-3.9424,-3.9424,-3.9424,-3.9424,-3.9424,-3.9424,-3.9424,-3.9424,-3.9424,-3.9424,-3.9424,-3.9424,-3.9424,-3.9424,-3.9424,-3.9424,-3.9424,-3.9424,-3.9409,-3.9125,-3.8452,-3.9005,-3.8826,-3.7494,-3.8018,-3.8078,-3.7419,-3.8033,-3.8377,-3.8377,-3.905,-3.9409,-3.9409,-4.1147,-4.1981,-4.2045,-4.3781,-4.457,-2.2264,-2.3015,-2.3158,-2.1632,-2.0066,-1.873,-1.8465,-1.8024,-1.7657,-1.7714,-1.9141,-1.9951,-1.8596,-1.8406,-1.8128,-1.7183,-1.6544,0.0,0.0,0.0,0.0,-1.841,-1.98,-2.0615,0.0,0.0,-2.0794,-2.0967,-2.2245,-2.361,-2.5121,-2.6457,-2.7795,-2.9111,-2.9414,-2.9564,-2.9429,-2.9855,-3.0308,-3.0911,-2.9131,-2.8263,-2.8269,-2.8271,-2.834,-2.832,-2.8318,-2.7352,0.0,-2.6851,-2.9063,-3.1723,-3.219,-3.344,-3.5002,-3.5177,-3.5127,-3.4901,-3.4349,-3.4412,-3.4562,-3.3633,-3.3596,-3.3822,-3.3458,-3.3219,-3.3081,-3.3081,-3.3313,-3.4024,-3.5734,-3.6448,-3.7161,-3.8943,-3.9424,-3.9424,-3.9424,-3.9424,-3.9424,-3.9424,-3.9424,-3.9424,-3.9424,-3.9424,-3.9424,-3.9424,-3.9424,-3.9424,-3.9424,-3.9424,-3.9424,-3.9424,-3.9424,-3.9334,-3.911,-3.929,-3.9245,-3.8811,-3.8975,-3.8781,-3.8108,-3.8736,-3.8871,-3.8407,-3.9065,-4.0005,-4.1162,-4.1739,-4.2645,-4.3798,-4.4327,-4.4587,0.0,-2.1237,-2.1202,-2.0091,-1.855,0.0,-1.7279,-1.6991,-1.6763,-1.6836,-1.823,-1.8939,-1.7608,-1.7543,-1.7431,-1.6664,-1.6161,-1.5905,0.0,0.0,0.0,-1.8551,0.0,0.0,0.0,-2.0214,-2.0221,-1.9927,-2.0988,-2.226,-2.3858,-2.5042,-2.6482,-2.8087,-2.8623,-2.8927,-2.8839,-2.9065,-2.9372,-2.9866,-2.881,-2.8262,-2.8291,-2.827,-2.8327,-2.8308,-2.762,-2.6655,0.0,-2.7022,-2.8826,-3.0884,-3.1716,-3.2991,-3.4437,-3.465,-3.4726,-3.4638,-3.4085,-3.4123,-3.4261,-3.337,-3.3156,-3.3206,-3.2855,-3.2905,-3.3081,-3.3081,-3.3398,-3.4108,-3.5734,-3.6526,-3.7252,-3.9017,-3.9424,-3.9424,-3.9424,-3.9424,-3.9424,-3.9424,-3.9424,-3.9424,-3.9424,-3.9424,-3.9424,-3.9424,-3.9424,-3.9424,-3.9424,-3.9424,-3.9424,-3.9424,-3.9424,-3.9424,-3.9424,-3.9424,-3.9424,-3.9424,-3.917,-3.896,-3.8781,-3.8706,-3.8691,-3.8781,-3.8706,-3.9421,-4.1099,-4.1724,-4.2802,-4.4147,-4.4451,-4.4587,0.0,-1.9117,-1.89,-1.8452,0.0,0.0,-1.616,-1.6117,0.0,-1.6504,-1.7499,-1.7905,-1.6712,-1.7069,-1.7225,-1.6015,-1.5832,-1.6025,0.0,-1.7235,0.0,0.0,-1.9239,0.0,-1.8958,-1.9459,-1.9673,-1.9359,-2.0394,-2.1631,-2.3034,-2.4218,-2.5506,-2.691,-2.7383,-2.7783,-2.8203,-2.8236,-2.8246,-2.8329,-2.8351,-2.8236,-2.8174,-2.8216,-2.8182,0.0,-2.6352,0.0,0.0,-2.9041,-2.9922,-2.9635,-3.2475,-3.3595,-3.3847,-3.4361,-3.455,-3.4474,-3.396,-3.3784,-3.3696,-3.3131,-3.2616,-3.2215,-3.2215,-3.2554,-3.2955,-3.2955,-3.3669,-3.4696,-3.5771,-3.6845,-3.7922,-3.903,-3.9394,-3.9424,-3.9424,-3.9424,-3.9424,-3.9424,-3.9424,-3.9424,-3.9424,-3.9424,-3.9424,-3.9424,-3.9424,-3.9424,-3.9424,-3.9424,-3.9424,-3.9424,-3.9424,-3.9424,-3.9424,-3.9424,-3.9424,-3.9424,-3.8811,-3.8751,-3.9394,-3.8237,-3.8132,-3.9391,-3.8256,-3.8339,-3.9687,-4.1419,-4.2699,-4.3436,-4.4215,-4.4587,-1.823,0.0,-1.7274,-1.7111,-1.6445,-1.5885,0.0,-1.5882,-1.5812,-1.5807,0.0,-1.6757,-1.5868,-1.5951,-1.6109,-1.5825,-1.5832,-1.5959,-1.6319,-1.7475,0.0,-1.9185,-1.9713,-1.974,-1.8998,-1.9459,-1.9586,-1.9065,-1.9292,-2.0456,-2.2675,-2.3109,-2.4446,-2.691,-2.6927,-2.7016,-2.7314,-2.7928,-2.8327,-2.8294,-2.8317,-2.7623,-2.6361,-2.7643,-2.7584,-2.633,-2.5885,0.0,-2.5794,-2.6553,-2.7883,-2.9465,-2.9759,-3.0993,-3.2629,-3.2754,-3.2805,-3.278,-3.2654,-3.2604,-3.2516,-3.1964,-3.1976,-3.2215,-3.2215,-3.2014,-3.1788,-3.1788,-3.2022,-3.2542,-3.4372,-3.5419,-3.6406,-3.8246,-3.9035,-3.9424,-3.9424,-3.9424,-3.9424,-3.9424,-3.9424,-3.9424,-3.9424,-3.9424,-3.9424,-3.9424,-3.9424,-3.9424,-3.9424,-3.9424,-3.9424,-3.9424,-3.9424,-3.9424,-3.9424,-3.9424,-3.9424,-3.9424,-3.9275,-3.9245,-3.9409,-3.9199,-3.922,-3.9557,-3.9945,-4.0312,-4.0669,-4.2342,-4.3238,-4.3436,-4.4215,-4.4587,-1.7691,-1.7156,-1.6616,-1.6071,-1.5569,-1.5175,-1.5316,0.0,0.0,0.0,0.0,-1.591,-1.5456,-1.5745,-1.5985,-1.5852,-1.6172,-1.6633,0.0,0.0,-1.8557,-1.9279,-1.9526,-1.9499,0.0,-1.9412,-1.9412,-1.8958,-1.8804,-1.9562,-2.136,-2.1763,-2.292,-2.5092,-2.581,-2.6497,-2.7002,-2.7041,-2.7161,-2.7143,-2.7151,-2.6663,-2.5661,-2.5858,-2.54,-2.4557,0.0,0.0,-2.4967,-2.5859,-2.722,-2.8701,-2.9061,-3.0264,-3.1838,-3.1838,-3.1838,-3.1838,-3.1838,-3.1838,-3.1788,-3.1486,-3.1599,-3.1838,-3.1838,-3.1625,-3.1499,-3.2014,-3.2164,-3.2625,-3.4689,-3.548,-3.6284,-3.8396,-3.9155,-3.9424,-3.9424,-3.9424,-3.9424,-3.9424,-3.9424,-3.9424,-3.9424,-3.9424,-3.9424,-3.9424,-3.9424,-3.9424,-3.9424,-3.9424,-3.9424,-3.9424,-3.9125,-3.8945,-3.8945,-3.8676,-3.8631,-3.8931,-3.8945,-3.8811,-3.8512,-3.8319,-3.8188,-3.8224,-3.9377,-4.0025,-4.0038,-4.1942,-4.2912,-4.2929,-4.4062,-4.4587,-1.7644,-1.7502,-1.6918,-1.539,-1.4796,-1.4643,-1.4596,0.0,0.0,0.0,0.0,0.0,0.0,-1.5872,0.0,-1.5925,0.0,0.0,-1.843,-1.8343,-1.8457,-1.9212,-1.9118,0.0,-1.9152,-1.9245,-1.9158,-1.8811,-1.8517,-1.8856,-1.9888,-2.0474,-2.1497,-2.2901,-2.4691,-2.6029,-2.6751,-2.6045,-2.5537,-2.5299,-2.5615,-2.5732,-2.5672,-2.3916,-2.309,-2.3137,0.0,0.0,-2.4181,-2.587,-2.6992,-2.7743,-2.8893,-3.0072,-3.1004,-3.1179,-3.1273,-3.1273,-3.1273,-3.1223,-3.1148,-3.1148,-3.1198,-3.1273,-3.1273,-3.1336,-3.1587,-3.2554,-3.2767,-3.3161,-3.5246,-3.5866,-3.6494,-3.856,-3.9275,-3.9424,-3.9424,-3.9424,-3.9424,-3.9424,-3.9424,-3.9424,-3.9424,-3.9424,-3.9424,-3.9424,-3.9424,-3.9424,-3.9424,-3.9424,-3.9424,-3.9424,-3.8901,-3.8497,-3.8407,-3.7973,-3.7868,-3.8212,-3.8242,-3.8012,-3.7474,-3.7065,-3.6868,-3.6964,-3.8419,-3.9146,-3.9086,-4.1379,-4.2405,-4.2337,-4.3859,-4.4587,-1.9435,-1.9635,-1.9239,-1.5512,-1.4912,-1.5197,-1.495,0.0,0.0,0.0,0.0,0.0,0.0,-1.5838,-1.5965,0.0,0.0,-1.7829,0.0,0.0,-1.8838,-1.8978,0.0,-1.9025,-1.8317,-1.8698,-1.8764,-1.8223,-1.7896,-1.8206,-1.9314,-1.9732,-2.0745,-2.247,-2.4629,-2.5787,-2.5946,-2.5815,-2.4943,-2.3476,-2.4952,-2.5671,-2.5608,-2.3906,-2.3122,-2.3177,0.0,-2.4185,-2.4312,-2.4657,-2.5442,-2.6576,-2.7297,-2.824,-2.941,-3.0388,-3.0733,-3.0733,-3.0733,-3.0432,-3.0043,-3.0043,-3.0357,-3.0733,-3.0733,-3.1035,-3.1424,-3.1599,-3.1336,-3.1427,-3.3322,-3.4319,-3.5321,-3.7272,-3.8586,-3.9424,-3.9424,-3.9424,-3.9424,-3.9424,-3.9424,-3.9424,-3.9424,-3.9424,-3.9424,-3.9424,-3.9424,-3.9424,-3.9424,-3.9424,-3.9424,-3.9424,-3.9334,-3.9035,-3.8437,-3.8841,-3.8661,-3.7629,-3.7554,-3.7578,-3.7569,-3.8121,-3.8451,-3.8525,-4.0047,-4.0538,-3.9901,-4.2148,-4.2912,-4.2337,-4.3859,-4.4587,-1.86,-1.8448,-1.7882,-1.5429,-1.6378,-1.7755,-1.6979,0.0,0.0,0.0,0.0,0.0,0.0,0.0,-1.68,-1.7582,0.0,-1.7896,-1.8798,-1.8504,-1.8323,0.0,0.0,-1.8557,-1.831,-1.8531,-1.8444,-1.7842,-1.7662,-1.7694,-1.8046,-1.885,-1.9431,-1.976,-2.2702,-2.4327,-2.4327,-2.4327,-2.3855,-2.3093,-2.3939,-2.4323,-2.4313,-2.3472,-2.3109,-2.3147,0.0,-2.3826,-2.374,-2.3984,-2.4972,-2.6441,-2.6646,-2.7894,-2.9475,-2.9986,-3.0168,-3.0168,-3.0168,-3.0005,-2.9792,-2.9792,-3.0168,-3.062,-3.062,-3.0972,-3.1386,-3.1386,-3.1436,-3.1937,-3.3968,-3.4941,-3.5933,-3.8026,-3.8676,-3.896,-3.9334,-3.9125,-3.8975,-3.9349,-3.9424,-3.9424,-3.9424,-3.9424,-3.9424,-3.9424,-3.9424,-3.9424,-3.9424,-3.9424,-3.9275,-3.8901,-3.8542,-3.8197,-3.7883,-3.7524,-3.733,-3.7404,-3.7404,-3.7308,-3.7025,-3.8136,-3.8785,-3.8829,-4.0426,-4.1037,-4.0696,-4.2523,-4.325,-4.2929,-4.4062,-4.4587,-1.8414,-1.7836,-1.7303,-1.6522,0.0,-1.891,-1.851,0.0,0.0,0.0,0.0,0.0,0.0,-1.6754,0.0,-1.845,-1.821,-1.8183,-1.9011,-1.8417,-1.8096,-1.8631,-1.8377,-1.8217,-1.837,-1.8317,-1.8056,-1.7522,-1.7355,-1.719,-1.6853,-1.7735,-1.7867,-1.7159,-2.1069,-2.3106,-2.3135,-2.3135,-2.3123,-2.3142,-2.3085,-2.306,-2.306,-2.306,-2.3104,-2.3154,-2.3496,-2.3447,-2.3164,-2.3752,-2.4875,-2.6141,-2.6637,-2.8039,-2.9792,-2.9792,-2.9792,-2.9792,-2.9792,-2.9792,-2.9792,-2.9792,-3.008,-3.0419,-3.0419,-3.0696,-3.1022,-3.1022,-3.1411,-3.2332,-3.4553,-3.5355,-3.6157,-3.844,-3.8542,-3.8302,-3.8826,-3.8542,-3.8362,-3.905,-3.9185,-3.923,-3.9394,-3.9424,-3.9364,-3.92,-3.932,-3.9305,-3.899,-3.923,-3.9155,-3.8467,-3.8078,-3.7808,-3.7659,-3.6611,-3.6312,-3.715,-3.7045,-3.6746,-3.6267,-3.7895,-3.8716,-3.8579,-4.0484,-4.136,-4.1204,-4.2692,-4.342,-4.3436,-4.4215,-4.4587,-2.0825,-2.0402,-2.0032,-2.0399,-1.8076,0.0,-1.8402,-1.8646,0.0,-1.9009,0.0,0.0,0.0,-1.6754,-1.7268,-1.7622,-1.8323,-1.9038,-1.9653,0.0,-1.8945,-1.9265,-1.8804,-1.8357,-1.8103,-1.7816,-1.7515,-1.7201,-1.678,-1.6458,-1.6417,-1.615,-1.5982,-1.5972,-2.0558,-2.3094,-2.3135,-2.3135,-2.3076,-2.3125,-2.3096,-2.3086,-2.3086,-2.3086,-2.3076,-2.3135,-2.3174,-2.3164,-2.3135,-2.4241,-2.4819,-2.5126,-2.7186,-2.8688,-2.9792,-2.9792,-2.9792,-2.9792,-2.9792,-2.9792,-2.9792,-2.9792,-2.9817,-2.9854,-2.9854,-2.988,-2.9917,-2.9917,-3.0306,-3.1286,-3.3805,-3.4159,-3.4421,-3.6961,-3.7524,-3.7494,-3.7539,-3.7524,-3.7674,-3.8332,-3.8467,-3.8661,-3.9305,-3.9424,-3.92,-3.8556,-3.9005,-3.8975,-3.7719,-3.8646,-3.9155,-3.8467,-3.8916,-3.9005,-3.8377,-3.7674,-3.706,-3.6582,-3.5983,-3.5624,-3.5579,-3.7731,-3.859,-3.7902,-4.074,-4.1878,-4.1204,-4.2692,-4.342,-4.3436,-4.4215,-4.4587,-1.9963,-2.0163,-2.0291,-1.9506,0.0,0.0,0.0,-1.8649,-1.8348,-1.7803,-1.8062,0.0,0.0,0.0,-1.7802,-1.8096,-1.843,-1.8798,-1.9199,-1.8751,-1.835,-1.827,-1.7903,-1.7542,-1.7241,-1.7224,-1.7035,-1.6733,-1.6616,-1.6463,-1.6048,-1.5837,-1.5762,-1.5833,-2.0518,-2.3103,-2.31,-2.3073,-2.2581,-2.1579,-2.1513,-2.195,-2.2619,-2.2242,-2.2146,-2.2373,-2.2637,-2.2754,-2.2773,-2.3441,-2.4553,-2.6047,-2.8279,-2.9456,-2.9792,-2.9792,-2.9792,-2.9792,-2.9792,-2.9792,-2.9792,-2.9792,-2.9792,-2.9792,-2.9792,-2.9792,-2.9792,-2.9792,-3.0356,-3.1441,-3.3389,-3.4021,-3.4643,-3.6902,-3.712,-3.6941,-3.733,-3.7105,-3.703,-3.7659,-3.7778,-3.7853,-3.8123,-3.8167,-3.8078,-3.7823,-3.8003,-3.7988,-3.7479,-3.7853,-3.7928,-3.7285,-3.7778,-3.7913,-3.7255,-3.733,-3.6971,-3.5938,-3.6387,-3.6522,-3.6133,-3.7805,-3.8681,-3.8419,-4.0532,-4.1686,-4.188,-4.2912,-4.3673,-4.4147,-4.4451,-4.4587,-1.9724,-1.998,-2.0318,0.0,0.0,0.0,-1.976,-1.9862,-1.9779,-1.8803,-1.7964,0.0,-1.7562,0.0,0.0,0.0,-1.8364,-1.8557,-1.8758,-1.8277,-1.7822,-1.7609,-1.7358,-1.7042,-1.6834,-1.6853,-1.6817,-1.6508,-1.6407,-1.6279,-1.5778,-1.7305,-1.8092,-1.8073,-2.1336,-2.2883,-2.2324,-2.235,-2.1763,-2.0587,-2.0384,-2.094,-2.1984,-2.1684,-2.1671,-2.1904,-2.2187,-2.2383,-2.2529,-2.3232,-2.483,-2.7128,-2.87,-2.9456,-2.9792,-2.9792,-2.9792,-2.9792,-2.9792,-2.9792,-2.9792,-2.9792,-2.9792,-2.9792,-2.9792,-2.9792,-2.9792,-2.9792,-3.0495,-3.1556,-3.2887,-3.3751,-3.4767,-3.6689,-3.6641,-3.6297,-3.6716,-3.6477,-3.6372,-3.6985,-3.712,-3.718,-3.7375,-3.7404,-3.7345,-3.715,-3.7285,-3.7255,-3.6866,-3.7165,-3.724,-3.6821,-3.715,-3.7165,-3.6537,-3.6881,-3.6656,-3.5579,-3.6547,-3.6848,-3.6193,-3.7625,-3.8451,-3.8483,-4.005,-4.1194,-4.1948,-4.2472,-4.3234,-4.4215,-4.4215,-4.435,-2.0684,-2.0438,-2.0304,0.0,0.0,0.0,-2.1728,0.0,-2.3341,-2.2833,0.0,-1.7338,-1.7634,-1.7445,0.0,-1.7528,-1.8083,-1.8477,-1.8477,-1.7956,-1.7575,-1.7569,-1.7279,-1.7034,-1.7034,-1.6776,-1.6703,-1.6703,-1.6108,-1.5846,-1.5765,-2.0467,-2.306,-2.3114,-2.3085,-2.2273,-2.0587,-2.0577,-2.0577,-2.0568,-2.0023,-2.0277,-2.1428,-2.1744,-2.1865,-2.1865,-2.1875,-2.2119,-2.2585,-2.3711,-2.5758,-2.8072,-2.8072,-2.8755,-2.9779,-2.9792,-2.9792,-2.9792,-2.9792,-2.9792,-2.9792,-2.9792,-2.9792,-2.9792,-2.9792,-2.9792,-2.9792,-2.9792,-3.0482,-3.1462,-3.2393,-3.331,-3.4404,-3.6097,-3.5983,-3.5504,-3.5504,-3.5504,-3.5699,-3.6357,-3.6477,-3.6671,-3.7285,-3.7389,-3.718,-3.6567,-3.7,-3.6941,-3.5669,-3.6611,-3.7389,-3.7404,-3.7404,-3.715,-3.6537,-3.6492,-3.6207,-3.5549,-3.6165,-3.629,-3.5569,-3.6934,-3.7745,-3.7822,-3.9315,-4.0446,-4.1204,-4.1204,-4.1965,-4.342,-4.342,-4.3842,-2.0596,-2.1173,0.0,-2.2026,0.0,0.0,0.0,0.0,0.0,0.0,-2.0971,-2.0123,-2.0468,-1.946,0.0,-1.8673,-1.7977,-1.7542,-1.7864,-1.7728,-1.7455,-1.7,-1.6444,-1.6195,-1.6195,-1.6121,-1.6116,-1.6089,-1.5906,-1.5798,-1.5756,-2.0459,-2.3075,-2.3093,-2.2002,-2.1115,-2.0585,-2.0589,-2.0622,-2.0613,-1.9976,-2.0101,-2.0819,-2.0322,-2.0225,-2.0518,-2.082,-2.1211,-2.1712,-2.3103,-2.4181,-2.5043,-2.6925,-2.7885,-2.8346,-2.9397,-2.9792,-2.9792,-2.9792,-2.9792,-2.9792,-2.9792,-2.9792,-2.9792,-2.9792,-2.9792,-2.9792,-2.9792,-3.0908,-3.2249,-3.2522,-3.3822,-3.5192,-3.5678,-3.5654,-3.5504,-3.5504,-3.5504,-3.5564,-3.5759,-3.5804,-3.5848,-3.6043,-3.6073,-3.6013,-3.5818,-3.5953,-3.5938,-3.5549,-3.5833,-3.6252,-3.6716,-3.6761,-3.6686,-3.6507,-3.6492,-3.6207,-3.5549,-3.5733,-3.5943,-3.6275,-3.7244,-3.7998,-3.858,-3.9013,-3.9914,-4.1204,-4.1204,-4.1965,-4.342,-4.342,-4.3842,-2.1706,-2.2096,0.0,-2.3144,-2.4316,-2.54,-2.5674,0.0,0.0,0.0,-2.1912,-2.1057,-2.1045,-1.998,0.0,-1.8321,-1.7499,-1.6997,-1.7163,-1.7267,-1.7145,-1.6697,-1.6143,-1.5765,-1.5763,-1.5837,-1.5769,-1.5833,-1.7621,-1.7887,-1.593,-1.8175,-2.0332,-2.2016,-2.1144,-2.0245,-1.9584,-2.0034,-2.0119,-1.9934,-1.9432,-1.9448,-1.9785,-1.9443,-1.9424,-1.9697,-2.0303,-2.082,-2.1269,-2.2393,-2.3111,-2.3684,-2.5711,-2.6912,-2.7693,-2.8996,-2.9591,-2.9792,-2.9792,-2.9792,-2.9792,-2.9792,-2.9792,-2.9792,-2.9792,-2.9792,-2.9792,-2.9792,-3.1132,-3.2593,-3.2593,-3.4056,-3.5504,-3.5504,-3.5504,-3.5504,-3.5504,-3.5504,-3.5504,-3.5504,-3.5504,-3.5504,-3.5504,-3.5504,-3.5504,-3.5504,-3.5504,-3.5504,-3.5504,-3.5504,-3.5654,-3.6058,-3.6088,-3.6088,-3.6088,-3.6088,-3.5923,-3.5534,-3.5782,-3.6117,-3.6615,-3.71,-3.7831,-3.8854,-3.8908,-3.9531,-4.0747,-4.0747,-4.1525,-4.2963,-4.2963,-4.3555,-2.3313,-2.2981,0.0,-2.4043,-2.5059,0.0,-2.5742,-2.5271,-2.4696,-2.4253,0.0,-2.113,-2.0548,-1.9886,-1.8989,-1.7618,-1.6992,-1.6622,-1.6613,-1.6661,-1.6763,-1.7194,-1.6779,-1.6454,-1.6469,-1.6368,-1.6289,-1.6421,-2.0447,-2.0893,-1.6469,-1.5132,-1.626,-2.0273,-2.0451,-1.974,-1.8106,-1.9033,-1.9338,-1.8899,-1.8708,-1.8523,-1.8582,-1.9004,-1.9189,-1.9277,-2.0137,-2.0713,-2.1094,-2.1533,-2.2322,-2.3313,-2.4503,-2.583,-2.7358,-2.8436,-2.9214,-2.9716,-2.9716,-2.9741,-2.9792,-2.9792,-2.9792,-2.9792,-2.9792,-2.9792,-2.9792,-2.9792,-3.1132,-3.2593,-3.2593,-3.4056,-3.5504,-3.5504,-3.5504,-3.5504,-3.5504,-3.5504,-3.5504,-3.5504,-3.5504,-3.5504,-3.5504,-3.5504,-3.5504,-3.5504,-3.5504,-3.5504,-3.5504,-3.5504,-3.5504,-3.5504,-3.5504,-3.5504,-3.5504,-3.5504,-3.5504,-3.5504,-3.6117,-3.6554,-3.6722,-3.6783,-3.7467,-3.8854,-3.8962,-3.9368,-4.007,-4.007,-4.0798,-4.2202,-4.2202,-4.3014,-2.2984,-2.2974,0.0,0.0,-2.4834,-2.5742,-2.5742,-2.5557,-2.5246,-2.4243,-2.4028,-2.3937,-2.3561,-2.3364,-2.3112,-2.2834,-1.8991,-1.5948,-1.5989,-1.6005,-1.7437,-2.1283,-2.1615,-2.15,-2.156,-2.0358,-2.0122,-2.14,-2.1259,-2.0708,-1.965,-1.8047,-1.7596,-1.8504,-1.923,-1.9309,-1.8737,-1.8505,-1.8658,0.0,-1.8506,-1.832,-1.8562,-1.8389,-1.8467,-1.8828,-1.9687,-1.9922,-1.9736,-2.0166,-2.0485,-2.0907,-2.3427,-2.4706,-2.5233,-2.7496,-2.8637,-2.9114,-2.9114,-2.9415,-2.9792,-2.9792,-2.9792,-2.9792,-2.9792,-2.9792,-2.9792,-2.9792,-3.1132,-3.2593,-3.2593,-3.4056,-3.5504,-3.5504,-3.5504,-3.5504,-3.5504,-3.5504,-3.5504,-3.5504,-3.5504,-3.5504,-3.5504,-3.5504,-3.5504,-3.5504,-3.5504,-3.5504,-3.5504,-3.5504,-3.5504,-3.5504,-3.5504,-3.5504,-3.5504,-3.5504,-3.5504,-3.5504,-3.5668,-3.6305,-3.7515,-3.8117,-3.8564,-3.8908,-3.9542,-3.9952,-4.007,-4.007,-4.0544,-4.1441,-4.1441,-4.2236,-2.4767,0.0,0.0,-2.4747,0.0,-2.5361,-2.5156,-2.4898,-2.452,-2.3732,-2.4177,-2.4433,-2.3857,-2.3779,-2.376,-2.376,-2.1257,-1.9273,-1.9274,-1.9297,-2.0257,-2.2796,-2.3102,-2.3086,-2.311,-2.1588,-2.0922,-2.1868,-2.1091,-2.0207,-1.9409,-1.8492,-1.8031,-1.799,-1.8408,-1.86,-1.849,-1.7985,-1.7959,-1.8369,-1.792,-1.7822,-1.8037,-1.8018,-1.8242,-1.8662,-1.9111,-1.9297,-1.9316,-1.9746,-1.9912,-2.0197,-2.2863,-2.4041,-2.4589,-2.6834,-2.8059,-2.8536,-2.8536,-2.8737,-2.8988,-2.8988,-2.9164,-2.9377,-2.9377,-2.9578,-2.9792,-2.9792,-3.1132,-3.2593,-3.2593,-3.4056,-3.5504,-3.5504,-3.5504,-3.5504,-3.5504,-3.5504,-3.5504,-3.5504,-3.5504,-3.5504,-3.5504,-3.5504,-3.5504,-3.5504,-3.5504,-3.5504,-3.5504,-3.5504,-3.5504,-3.5504,-3.5504,-3.5504,-3.5504,-3.5504,-3.5504,-3.5504,-3.5504,-3.5846,-3.6662,-3.744,-3.8342,-3.9437,-3.9901,-4.007,-4.007,-4.007,-4.046,-4.1204,-4.1204,-4.1813,-2.6669,0.0,-2.5367,-2.595,-2.5625,0.0,-2.4482,-2.4033,-2.3574,-2.3213,-2.3673,-2.393,-2.3223,-2.3135,-2.3135,-2.3135,-2.3135,-2.3096,-2.3065,-2.3086,-2.3105,-2.3066,-2.3071,-2.3016,-2.2695,-2.138,-2.0617,-2.0619,-2.0304,-1.9535,-1.8092,-1.7926,-1.7851,-1.7828,-1.7802,-1.777,-1.777,-1.7368,-1.7197,-1.7275,-1.7275,-1.7275,-1.7285,-1.7705,-1.8086,-1.8428,-1.8496,-1.874,-1.9102,-1.96,-1.9766,-1.9895,-2.2527,-2.3716,-2.4306,-2.6417,-2.7494,-2.7959,-2.7959,-2.8021,-2.8109,-2.8109,-2.8411,-2.8787,-2.8787,-2.9189,-2.9641,-2.9641,-3.1053,-3.2593,-3.2593,-3.4056,-3.5504,-3.5504,-3.5504,-3.5504,-3.5504,-3.5504,-3.5504,-3.5504,-3.5504,-3.5504,-3.5504,-3.5504,-3.5504,-3.5504,-3.5504,-3.5504,-3.5504,-3.5504,-3.5504,-3.5504,-3.5504,-3.5504,-3.5504,-3.5504,-3.5504,-3.5504,-3.5619,-3.5733,-3.591,-3.6631,-3.7987,-4.007,-3.9952,-3.9952,-4.007,-4.007,-4.0392,-4.1018,-4.1018,-4.1407,0.0,0.0,-2.6124,0.0,-2.5774,-2.5163,0.0,0.0,-2.3213,0.0,-2.3193,-2.3223,-2.3154,-2.3135,-2.3135,-2.3135,-2.3135,-2.3144,-2.3061,-2.3087,-2.3063,-2.3066,-2.3135,-2.2533,-2.1085,-2.071,-2.0581,-2.0571,-1.9223,-1.8252,-1.8038,-1.7463,-1.7226,-1.7197,-1.6973,-1.6899,-1.6899,-1.6484,-1.6436,-1.6816,-1.6816,-1.6816,-1.6836,-1.7266,-1.75,-1.7568,-1.7939,-1.8125,-1.8242,-1.9043,-1.915,-1.9059,-2.2277,-2.3301,-2.333,-2.573,-2.6917,-2.7394,-2.7394,-2.7708,-2.8109,-2.8109,-2.816,-2.821,-2.821,-2.8599,-2.9038,-2.9038,-3.0724,-3.2593,-3.2593,-3.4056,-3.5504,-3.5504,-3.5504,-3.5504,-3.5504,-3.5504,-3.5504,-3.5504,-3.5504,-3.5504,-3.5504,-3.5504,-3.5504,-3.5504,-3.5504,-3.5504,-3.5504,-3.5504,-3.5504,-3.5504,-3.5504,-3.5504,-3.5504,-3.5504,-3.5504,-3.5504,-3.6117,-3.6753,-3.7472,-3.8189,-3.9086,-4.007,-3.9437,-3.9368,-4.007,-4.007,-4.0121,-4.0223,-4.0223,-4.0629,-2.6894,-2.7067,-2.7231,0.0,-2.6303,-2.5228,-2.4727,0.0,-2.3135,-2.3135,-2.3135,-2.3135,-2.3135,-2.3135,-2.3076,-2.3073,-2.313,-2.3107,-2.3116,-2.2271,-2.1675,-2.1693,-2.168,-2.1006,-1.9325,-1.9126,-1.9155,-1.917,-1.8419,-1.7826,-1.752,-1.7245,-1.7042,-1.6864,-1.651,-1.6475,-1.6665,-1.6045,-1.5918,-1.6357,-1.6611,-1.6602,-1.6367,-1.6816,-1.7021,-1.7051,-1.7725,-1.7881,-1.7725,-1.8574,-1.8809,-1.8872,-2.2001,-2.3059,-2.3219,-2.5607,-2.6615,-2.6816,-2.6816,-2.6979,-2.718,-2.718,-2.7394,-2.7645,-2.7645,-2.8247,-2.8925,-2.8925,-3.0316,-3.196,-3.2464,-3.3602,-3.4839,-3.5359,-3.5504,-3.5504,-3.5504,-3.5504,-3.5504,-3.5504,-3.5504,-3.5504,-3.5504,-3.5504,-3.5504,-3.5504,-3.5504,-3.5504,-3.5504,-3.5504,-3.5504,-3.5504,-3.5504,-3.5504,-3.5504,-3.5894,-3.6117,-3.6117,-3.6859,-3.7456,-3.7822,-3.8092,-3.8635,-3.942,-3.9542,-3.9731,-4.007,-4.007,-4.007,-4.007,-4.007,-4.0257,0.0,0.0,-2.7944,-2.8036,-2.6813,-2.5518,0.0,0.0,-2.3135,0.0,-2.3135,-2.3135,-2.3135,-2.3135,-2.3124,-2.3057,-2.2739,-2.2448,-2.2459,-2.1395,-2.0561,-2.0562,-2.0198,-1.9449,-1.8091,-1.7979,-1.7981,-1.7967,-1.8029,-1.7773,-1.7379,-1.714,-1.6908,-1.6685,-1.6191,-1.6064,-1.6396,-1.5742,-1.5576,-1.5908,-1.624,-1.6279,-1.6135,-1.6406,-1.6621,-1.6768,-1.7402,-1.7578,-1.7451,-1.8291,-1.8562,-1.8842,-2.1371,-2.2544,-2.3115,-2.5014,-2.6065,-2.6508,-2.6289,-2.6339,-2.6533,-2.6533,-2.6741,-2.708,-2.708,-2.7745,-2.8536,-2.8687,-2.9947,-3.1567,-3.2352,-3.3463,-3.4543,-3.5294,-3.5504,-3.5504,-3.5504,-3.5504,-3.5504,-3.5504,-3.5504,-3.5504,-3.5504,-3.5504,-3.5504,-3.5504,-3.5504,-3.5504,-3.5504,-3.5504,-3.5504,-3.5504,-3.5504,-3.5504,-3.5504,-3.6006,-3.6337,-3.6337,-3.7279,-3.7822,-3.7822,-3.8149,-3.8652,-3.9193,-3.9782,-4.007,-4.007,-4.007,-4.007,-4.007,-4.007,-4.007,0.0,-2.7673,0.0,-2.7949,-2.7151,0.0,0.0,0.0,-2.3135,-2.3135,-2.3135,-2.3135,-2.3135,-2.3135,-2.3124,-2.3057,-2.1741,-2.0698,-2.0747,-2.0642,-2.0632,-2.0605,-1.9123,-1.8124,-1.801,-1.7975,-1.7988,-1.7979,-1.7979,-1.7969,-1.792,-1.7152,-1.6694,-1.6665,-1.5898,-1.5459,-1.5478,-1.543,-1.542,-1.5449,-1.5469,-1.5684,-1.6125,-1.6145,-1.6328,-1.6665,-1.6777,-1.7021,-1.7451,-1.8291,-1.8562,-1.8752,-2.0326,-2.1691,-2.2965,-2.3482,-2.4854,-2.6445,-2.5837,-2.6,-2.6533,-2.6533,-2.6546,-2.6571,-2.6571,-2.6904,-2.7482,-2.7996,-2.9913,-3.1875,-3.2455,-3.3973,-3.5439,-3.5504,-3.5504,-3.5504,-3.5504,-3.5504,-3.5504,-3.5504,-3.5504,-3.5504,-3.5504,-3.5504,-3.5504,-3.5504,-3.5504,-3.5504,-3.5504,-3.5504,-3.5504,-3.5504,-3.5504,-3.5504,-3.5504,-3.5569,-3.5554,-3.5554,-3.6951,-3.7822,-3.7822,-3.9226,-4.002,-4.002,-4.007,-4.007,-4.007,-4.007,-4.007,-4.007,-4.007,-4.007,0.0,0.0,0.0,-2.8482,-2.7765,-2.7012,-2.7101,-2.5808,-2.4262,-2.3311,-2.3092,-2.3092,-2.3092,-2.311,-2.3142,-2.3116,-2.1669,-2.0604,-2.0603,-2.0595,-2.0586,-2.0601,-1.9088,-1.7981,-1.7981,-1.7961,-1.8025,-1.8027,-1.8008,-1.7773,-1.7217,-1.6904,-1.6412,-1.5908,-1.5576,-1.541,-1.541,-1.541,-1.541,-1.542,-1.5986,-1.6191,-1.6135,-1.6357,-1.6582,-1.6665,-1.6665,-1.6982,-1.7451,-1.8291,-1.8477,-1.8389,-2.0431,-2.149,-2.2151,-2.3861,-2.4896,-2.5473,-2.5975,-2.605,-2.5963,-2.6339,-2.6533,-2.6596,-2.6879,-2.713,-2.7469,-2.8386,-2.9411,-3.0602,-3.2203,-3.3263,-3.4208,-3.5255,-3.5504,-3.5504,-3.5504,-3.5504,-3.5504,-3.5504,-3.5504,-3.5504,-3.5504,-3.5504,-3.5504,-3.5504,-3.5504,-3.5504,-3.5504,-3.5504,-3.5504,-3.5504,-3.5504,-3.5504,-3.5504,-3.5943,-3.6415,-3.6951,-3.7962,-3.8761,-3.9226,-3.9799,-4.007,-4.007,-4.007,-4.007,-4.007,-4.007,-4.007,-4.007,-4.007,-4.007,-2.7482,0.0,0.0,0.0,0.0,-2.7252,-2.7929,0.0,-2.4848,-2.4384,-2.3619,-2.3567,-2.5066,-2.5355,-2.4862,-2.332,-2.167,-2.0566,-2.0566,-2.0566,-2.0604,-2.0581,-1.9609,-1.8862,-1.8844,-1.835,-1.798,-1.7977,-1.7998,0.0,-1.6982,-1.6807,-1.6205,-1.502,-1.5235,-1.5284,-1.4991,-1.5294,-1.541,-1.542,-1.6006,-1.6211,-1.6125,-1.6221,-1.6533,-1.6943,-1.6797,-1.7061,-1.7646,-1.835,-1.8643,-1.8782,-2.0133,-2.1293,-2.2285,-2.3502,-2.4611,-2.5448,-2.5988,-2.605,-2.595,-2.6339,-2.6533,-2.6596,-2.6892,-2.7005,-2.7231,-2.8348,-2.9006,-2.9927,-3.2077,-3.3249,-3.4193,-3.5255,-3.5504,-3.5504,-3.5504,-3.5504,-3.5504,-3.5504,-3.5504,-3.5504,-3.5504,-3.5504,-3.5504,-3.5504,-3.5504,-3.5504,-3.5504,-3.5504,-3.5504,-3.5504,-3.5504,-3.5504,-3.5504,-3.5943,-3.6461,-3.7011,-3.7716,-3.8509,-3.9279,-3.9558,-3.9833,-4.007,-4.007,-4.007,-4.007,-4.007,-4.007,-4.007,-4.007,-4.007,0.0,0.0,0.0,0.0,0.0,0.0,-2.7913,0.0,-2.4891,-2.6315,-2.4852,-2.4609,-2.9032,-2.9745,-2.8283,-2.3897,-2.172,-2.062,-2.0586,-2.0624,-2.0594,-2.0581,-2.0627,-2.0581,-2.0626,-1.9036,-1.8033,-1.7995,-1.7996,-1.7842,-1.7402,-1.6953,-1.5928,-1.43,-1.4991,-1.505,-1.4273,-1.4991,-1.541,-1.541,-1.542,-1.5654,-1.6105,-1.5635,-1.6162,-1.7363,-1.6934,-1.7236,-1.8057,-1.8486,-1.9141,-1.9844,-1.9473,-2.1032,-2.3358,-2.2428,-2.394,-2.6339,-2.5799,-2.5975,-2.6508,-2.6521,-2.6533,-2.6533,-2.6546,-2.6546,-2.6716,-2.7821,-2.8795,-2.9984,-3.2121,-3.4109,-3.5504,-3.5504,-3.5504,-3.5504,-3.5504,-3.5504,-3.5504,-3.5504,-3.5504,-3.5504,-3.5504,-3.5504,-3.5504,-3.5504,-3.5504,-3.5504,-3.5504,-3.5504,-3.5504,-3.5504,-3.5504,-3.5504,-3.5504,-3.5504,-3.5504,-3.5504,-3.6228,-3.6964,-3.7822,-3.8525,-3.9262,-4.007,-4.007,-4.007,-4.007,-4.007,-4.007,-4.007,-4.007,-4.007,-2.8072,0.0,0.0,0.0,0.0,0.0,0.0,0.0,-2.7859,-2.8748,-2.8373,-2.8331,-2.9578,-2.8467,-2.6971,-2.5744,-2.2766,-2.0619,-2.0591,-2.0572,-2.0605,-2.0591,-2.0609,-2.0619,-2.0591,-2.0138,-1.9326,0.0,-1.8267,-1.8144,-1.7422,-1.666,-1.5926,-1.5069,-1.5294,-1.5294,-1.505,-1.5294,-1.541,-1.542,-1.5732,-1.5947,-1.6135,-1.6269,-1.6738,-1.7373,-1.7256,-1.7686,-1.8496,-1.8926,-1.9062,-1.9072,-1.9893,-2.1124,-2.2506,-2.2943,-2.4048,-2.536,-2.6,-2.605,-2.59,-2.6395,-2.6533,-2.6596,-2.6929,-2.7055,-2.7281,-2.8398,-2.9497,-3.0977,-3.3347,-3.4697,-3.5504,-3.5504,-3.5504,-3.5504,-3.5504,-3.5504,-3.5504,-3.5504,-3.5504,-3.5504,-3.5504,-3.5504,-3.5504,-3.5504,-3.5504,-3.5504,-3.5504,-3.5504,-3.5504,-3.5504,-3.5504,-3.5504,-3.5504,-3.5504,-3.5733,-3.6275,-3.6492,-3.7188,-3.8525,-3.8799,-3.9262,-4.007,-4.007,-4.007,-4.007,-4.007,-4.007,-4.007,-4.007,-4.007,-2.8599,-2.8448,-2.8398,-2.816,0.0,0.0,-2.8386,-2.8711,-2.9012,0.0,-2.9821,-2.9796,-2.9766,-2.8014,-2.6493,-2.6525,-2.4533,-2.3069,-2.3088,-2.3095,-2.2424,-2.0836,-2.0586,-2.0619,-2.0581,-2.0627,-2.0034,-1.8672,-1.845,-1.8085,-1.7422,-1.6719,-1.6011,-1.5207,-1.5505,-1.5409,-1.4874,-1.5225,-1.541,-1.542,-1.5674,-1.5791,-1.5811,-1.625,-1.6699,-1.7119,-1.7305,-1.7764,-1.8408,-1.8838,-1.9072,-1.9248,-2.0,-2.1259,-2.273,-2.3301,-2.439,-2.5598,-2.6239,-2.6239,-2.6013,-2.642,-2.6533,-2.6584,-2.6841,-2.7105,-2.7469,-2.8335,-2.9987,-3.1969,-3.3791,-3.4901,-3.5504,-3.5504,-3.5504,-3.5504,-3.5504,-3.5504,-3.5504,-3.5504,-3.5504,-3.5504,-3.5504,-3.5504,-3.5504,-3.5504,-3.5504,-3.5504,-3.5504,-3.5504,-3.5504,-3.5504,-3.5504,-3.5504,-3.5504,-3.5782,-3.6165,-3.6554,-3.6904,-3.7658,-3.8854,-3.8908,-3.9262,-4.007,-4.007,-4.007,-4.007,-4.007,-4.007,-4.007,-4.007,-4.007,-2.9164,-2.8976,-2.8812,-2.8323,-2.7783,0.0,-2.7996,-2.8369,-2.8867,0.0,-2.9655,-2.9602,-2.9486,-2.7805,-2.6482,-2.6496,-2.6511,-2.6466,-2.6469,-2.6493,-2.5233,-2.1702,-2.1257,-2.109,-2.0677,-2.0572,-2.0247,-1.9409,-1.8475,-1.785,-1.7422,-1.7012,-1.6277,-1.5139,-1.5817,-1.5616,-1.4396,-1.5117,-1.5459,-1.541,-1.5459,-1.5488,-1.5498,-1.5986,-1.6426,-1.6826,-1.7266,-1.7666,-1.8047,-1.8467,-1.9111,-1.9853,-2.0043,-2.149,-2.3514,-2.3599,-2.4838,-2.6533,-2.6533,-2.6533,-2.6533,-2.6533,-2.6533,-2.6533,-2.6533,-2.6841,-2.7477,-2.8299,-3.0427,-3.2807,-3.3876,-3.4839,-3.5504,-3.5504,-3.5504,-3.5504,-3.5504,-3.5504,-3.5504,-3.5504,-3.5504,-3.5504,-3.5504,-3.5504,-3.5504,-3.5504,-3.5504,-3.5504,-3.5504,-3.5504,-3.5504,-3.5504,-3.5504,-3.5504,-3.5619,-3.6212,-3.6676,-3.6737,-3.7397,-3.8149,-3.8854,-3.8908,-3.9262,-4.007,-4.007,-4.007,-4.007,-4.007,-4.007,-4.007,-4.0155,-4.0155,-2.9654,-2.9289,-2.89,-2.88,-2.8348,0.0,-2.8084,-2.8134,-2.8381,0.0,-2.8905,-2.8578,-2.7398,-2.6758,-2.6541,-2.6482,-2.6502,-2.6505,-2.6525,-2.6517,-2.6193,-2.5427,-2.5378,-2.4111,-2.0898,-2.0581,-2.0267,-1.9409,-1.8484,-1.7823,-1.7412,-1.7305,-1.6986,-1.636,-1.6476,-1.6325,-1.5747,-1.5867,-1.5762,-1.542,-1.5762,-1.5937,-1.5957,-1.6758,-1.7178,-1.7285,-1.7705,-1.7939,-1.8047,-1.8467,-1.8945,-1.9517,-2.0645,-2.2071,-2.3588,-2.4409,-2.5441,-2.6533,-2.6533,-2.6533,-2.6533,-2.6533,-2.6533,-2.6533,-2.6533,-2.6841,-2.7825,-3.0398,-3.1487,-3.2484,-3.464,-3.5359,-3.5504,-3.5504,-3.5504,-3.5504,-3.5504,-3.5504,-3.5504,-3.5504,-3.5504,-3.5504,-3.5504,-3.5504,-3.5504,-3.5504,-3.5504,-3.5504,-3.5504,-3.5504,-3.5504,-3.5504,-3.5504,-3.5718,-3.6322,-3.6492,-3.6843,-3.7515,-3.769,-3.8149,-3.8854,-3.8908,-3.9262,-4.007,-4.007,-4.007,-4.007,-4.007,-4.007,-4.0087,-4.0696,-4.0663,-2.9792,-2.9578,-2.9289,-2.9001,-2.8725,0.0,0.0,-2.7908,-2.8109,-2.8122,-2.8142,-2.7817,-2.6709,-2.6492,-2.6865,-2.7939,-2.8126,-2.8122,-2.8122,-2.8125,-2.8174,-2.8138,-2.7201,-2.5698,-2.3751,-2.1786,-2.0078,-1.8743,-1.8218,-1.792,-1.7705,-1.7695,-1.75,-1.707,-1.7061,-1.6846,-1.6406,-1.6396,-1.6289,-1.6074,-1.6289,-1.6396,-1.6416,-1.708,-1.7383,-1.7402,-1.7832,-1.8008,-1.8027,-1.8242,-1.8574,-1.9095,-2.0731,-2.2291,-2.3599,-2.4636,-2.5664,-2.6533,-2.6533,-2.6533,-2.6533,-2.6533,-2.6533,-2.6533,-2.6533,-2.6841,-2.7908,-3.0951,-3.1765,-3.2398,-3.4824,-3.5504,-3.5504,-3.5504,-3.5504,-3.5504,-3.5504,-3.5504,-3.5504,-3.5504,-3.5504,-3.5504,-3.5504,-3.5504,-3.5504,-3.5504,-3.5504,-3.5504,-3.5504,-3.5504,-3.5504,-3.5504,-3.5504,-3.5668,-3.6006,-3.6753,-3.7397,-3.7748,-3.8541,-3.9102,-3.9489,-3.9489,-3.9662,-4.007,-4.007,-4.007,-4.007,-4.007,-4.007,-4.0104,-4.0849,-4.1001,-2.9792,-2.9792,-2.9679,-2.9214,-2.9089,-2.8837,0.0,0.0,0.0,-2.7628,0.0,0.0,-2.6637,0.0,0.0,0.0,0.0,0.0,0.0,-2.9523,0.0,-2.9804,-2.7821,-2.6505,-2.6466,-2.3239,-2.0276,-1.8152,-1.8269,-1.8291,-1.8008,-1.8008,-1.7852,-1.7519,-1.75,-1.7295,-1.6865,-1.6855,-1.6816,-1.6665,-1.6816,-1.6855,-1.6875,-1.7305,-1.75,-1.7529,-1.7861,-1.8057,-1.8135,-1.8135,-1.8448,-1.9173,-2.0864,-2.2306,-2.3537,-2.4815,-2.5804,-2.6533,-2.6533,-2.6533,-2.6533,-2.6533,-2.6533,-2.6533,-2.6533,-2.6905,-2.7927,-3.0706,-3.1555,-3.2277,-3.4667,-3.531,-3.534,-3.5474,-3.5504,-3.5504,-3.5504,-3.5504,-3.5504,-3.5504,-3.5504,-3.5504,-3.5504,-3.5504,-3.5504,-3.5504,-3.5504,-3.5504,-3.5504,-3.5504,-3.5554,-3.5668,-3.5733,-3.5846,-3.6133,-3.7294,-3.8092,-3.8206,-3.9401,-4.007,-4.007,-4.007,-4.0155,-4.029,-4.0155,-4.0155,-4.029,-4.0155,-4.007,-4.0104,-4.1001,-4.1339,-2.9792,0.0,0.0,0.0,-2.9691,-2.9528,-2.8888,0.0,-2.8549,-2.7557,0.0,-2.7143,-2.6584,0.0,0.0,0.0,0.0,0.0,-2.7152,-2.8574,-2.9768,-2.9804,-2.7823,-2.6478,-2.6518,-2.4515,-2.1728,-1.8299,-1.9172,-1.9342,-1.8095,-1.8008,-1.7988,-1.7939,-1.7939,-1.7734,-1.7314,-1.7314,-1.7119,-1.6738,-1.7119,-1.7314,-1.7324,-1.7744,-1.7939,-1.7939,-1.7988,-1.8223,-1.8494,-1.8494,-1.9294,-2.0469,-2.1677,-2.2439,-2.3217,-2.5481,-2.6383,-2.6533,-2.6533,-2.6533,-2.6533,-2.6533,-2.6533,-2.6533,-2.6533,-2.7011,-2.8027,-2.9717,-3.0743,-3.1792,-3.4059,-3.4592,-3.4741,-3.5355,-3.5504,-3.5504,-3.5504,-3.5504,-3.5504,-3.5504,-3.5504,-3.5504,-3.5504,-3.5504,-3.5504,-3.5504,-3.5504,-3.5504,-3.5504,-3.5504,-3.5718,-3.6384,-3.6508,-3.7024,-3.8398,-3.869,-3.9086,-3.9782,-4.002,-4.007,-4.007,-4.007,-4.0392,-4.1068,-4.0409,-4.0409,-4.1068,-4.0409,-4.007,-4.0104,-4.1525,-4.1813,0.0,0.0,0.0,0.0,0.0,0.0,-2.9063,0.0,-2.88,-2.8335,0.0,0.0,0.0,0.0,0.0,0.0,-2.7902,0.0,0.0,0.0,-2.7864,0.0,0.0,0.0,-2.6602,-2.5734,-2.4327,-2.2128,-2.0809,-1.9724,-1.8808,-1.8269,-1.8008,-1.8008,-1.8008,-1.793,-1.7744,-1.7744,-1.7656,-1.748,-1.7656,-1.7744,-1.7754,-1.793,-1.8008,-1.8008,-1.8008,-1.8115,-1.8271,-1.8801,-1.9369,-2.0033,-2.1788,-2.2747,-2.3327,-2.5253,-2.5963,-2.6013,-2.6352,-2.6533,-2.6533,-2.6533,-2.6533,-2.6589,-2.704,-2.7417,-2.8106,-3.0157,-3.1246,-3.2208,-3.4029,-3.4771,-3.5145,-3.5429,-3.5504,-3.5504,-3.5504,-3.5504,-3.5504,-3.5504,-3.5504,-3.5504,-3.5504,-3.5504,-3.5504,-3.5504,-3.5504,-3.5504,-3.5504,-3.5504,-3.5619,-3.5958,-3.6322,-3.6828,-3.7526,-3.8398,-3.9032,-3.9368,-3.9833,-4.007,-4.007,-4.007,-4.0223,-4.0544,-4.024,-4.024,-4.0544,-4.024,-4.007,-4.0121,-4.1593,-4.2117,-3.0216,0.0,0.0,0.0,0.0,0.0,0.0,0.0,0.0,0.0,-2.8298,0.0,0.0,0.0,0.0,0.0,0.0,-2.7058,0.0,-2.7538,0.0,0.0,0.0,0.0,0.0,-2.6202,-2.5692,-2.4858,-2.2432,-2.0517,-1.933,-1.8721,-1.8269,-1.8008,-1.8008,-1.8008,-1.8008,-1.8008,-1.8008,-1.8008,-1.8008,-1.8008,-1.8008,-1.8008,-1.8008,-1.8008,-1.8008,-1.8203,-1.8564,-1.9096,-1.9637,-2.0358,-2.1894,-2.2803,-2.3429,-2.5008,-2.5598,-2.5649,-2.6076,-2.6226,-2.6251,-2.6483,-2.6658,-2.6905,-2.755,-2.8051,-2.8766,-3.0463,-3.1579,-3.2562,-3.3898,-3.4711,-3.5265,-3.5459,-3.5504,-3.5504,-3.5504,-3.5504,-3.5504,-3.5504,-3.5504,-3.5504,-3.5504,-3.5504,-3.5504,-3.5504,-3.5504,-3.5504,-3.5504,-3.5668,-3.591,-3.6085,-3.6798,-3.7306,-3.7526,-3.8564,-3.9262,-3.9262,-3.9782,-4.007,-4.007,-4.007,-4.0172,-4.0392,-4.0189,-4.0172,-4.0392,-4.0172,-4.007,-4.0121,-4.1593,-4.2286,0.0,0.0,0.0,-2.9998,0.0,0.0,0.0,0.0,-2.9603,0.0,0.0,0.0,0.0,0.0,0.0,-2.651,0.0,0.0,0.0,0.0,-2.65,-2.6469,0.0,0.0,0.0,-2.5505,-2.484,-2.4834,-2.3935,-2.2223,-1.9483,-1.9299,-1.8854,-1.8008,-1.8008,-1.8008,-1.8008,-1.8008,-1.8008,-1.8008,-1.8008,-1.8008,-1.8008,-1.8008,-1.8008,-1.8008,-1.8008,-1.8692,-1.9781,-1.9477,-2.0533,-2.2374,-2.2028,-2.242,-2.3315,-2.4996,-2.5598,-2.5598,-2.5611,-2.5624,-2.5724,-2.6276,-2.704,-2.767,-2.767,-2.8876,-3.0208,-3.0297,-3.1395,-3.2632,-3.335,-3.4023,-3.4681,-3.5355,-3.5504,-3.5504,-3.5504,-3.5504,-3.5504,-3.5504,-3.5504,-3.5504,-3.5504,-3.5504,-3.5504,-3.5504,-3.5504,-3.5504,-3.5504,-3.6117,-3.6859,-3.7632,-3.8414,-3.9139,-3.9901,-4.002,-4.007,-4.007,-4.007,-4.007,-4.007,-4.007,-4.0426,-4.1153,-4.0443,-4.0443,-4.117,-4.0443,-4.007,-4.0121,-4.1593,-4.2286,0.0,0.0,-3.1888,-3.0983,0.0,0.0,0.0,0.0,0.0,0.0,0.0,0.0,0.0,0.0,0.0,0.0,0.0,0.0,0.0,-2.6521,-2.6528,-2.6511,-2.6501,-2.649,0.0,0.0,-2.5615,-2.4835,-2.4298,-2.3123,-2.1158,-1.9955,-1.9166,-1.8854,-1.8269,-1.8008,-1.8008,-1.8008,-1.8008,-1.8008,-1.8008,-1.8008,-1.8008,-1.8008,-1.8008,-1.8008,-1.8596,-1.9127,-1.9586,-2.0593,-2.1469,-2.2115,-2.2518,-2.2884,-2.3251,-2.4192,-2.4531,-2.4632,-2.5347,-2.5598,-2.582,-2.6902,-2.7484,-2.792,-2.9066,-2.9827,-3.0389,-3.097,-3.1753,-3.2557,-3.2781,-3.3649,-3.4532,-3.4771,-3.5175,-3.5504,-3.5504,-3.5504,-3.5504,-3.5504,-3.5504,-3.5504,-3.5504,-3.5504,-3.5504,-3.5504,-3.5504,-3.5668,-3.6165,-3.6446,-3.6904,-3.769,-3.8469,-3.9016,-3.9262,-3.9782,-4.007,-4.007,-4.007,-4.007,-4.007,-4.007,-4.0206,-4.046,-4.0206,-4.0206,-4.046,-4.0206,-4.007,-4.0104,-4.1102,-4.183,-3.3101,-3.3101,0.0,-3.196,-3.1669,0.0,-3.0482,0.0,-3.0279,0.0,0.0,0.0,0.0,0.0,0.0,0.0,0.0,0.0,0.0,-2.8309,-2.8266,-2.8266,-2.8289,-2.7458,-2.5492,-2.6345,-2.6258,-2.4305,-2.4355,-2.3673,0.0,-2.0846,-2.0074,-1.9748,-1.8921,-1.8462,-1.8462,-1.8134,-1.8008,-1.8008,-1.8008,-1.8008,-1.8008,-1.8337,-1.8462,-1.8529,-1.9365,-1.9944,-2.0333,-2.1428,-2.2063,-2.2384,-2.2884,-2.3078,-2.314,-2.3791,-2.4004,-2.4155,-2.5222,-2.5658,-2.6,-2.7288,-2.8117,-2.8812,-2.995,-3.0524,-3.0881,-3.1633,-3.2183,-3.2617,-3.3095,-3.3844,-3.4532,-3.4786,-3.519,-3.5504,-3.5504,-3.5504,-3.5504,-3.5504,-3.5504,-3.5504,-3.5504,-3.5504,-3.5504,-3.5504,-3.5504,-3.5782,-3.6508,-3.6843,-3.7322,-3.8076,-3.887,-3.9315,-3.9315,-3.9782,-4.007,-4.007,-4.007,-4.007,-4.007,-4.007,-4.0324,-4.0849,-4.0341,-4.0341,-4.0865,-4.0341,-4.007,-4.0087,-4.0578,-4.1204]}]]